GFSNE_sfc_wetblb_000.txt.gz
Wetbulb
68.96 69.49 69.00 67.48 67.23 67.34 67.35 66.77 64.21 60.15 60.50 63.92 63.74 67.27 66.87 66.97 68.23 68.11 68.24 66.93 64.78 64.14 63.52 63.01 63.12 63.53 63.72 63.89 64.36 64.65 64.79 65.45 66.92 68.68 69.41 70.81 73.59 74.79
66.68 68.44 69.09 67.80 67.94 67.70 67.43 66.88 66.09 63.82 60.81 63.88 64.09 66.22 67.53 67.30 68.42 68.20 68.05 67.17 65.85 64.83 63.89 62.90 63.06 63.36 63.71 63.78 63.89 63.98 64.20 64.39 64.93 65.88 67.56 68.48 69.72 72.24
68.38 68.80 69.25 70.47 67.92 66.80 66.79 66.23 65.41 64.82 62.07 63.48 64.94 67.09 67.72 67.74 68.03 68.47 68.18 67.68 67.06 64.85 63.99 63.08 62.39 62.38 62.68 62.68 62.66 62.81 63.03 63.12 63.54 64.33 65.92 67.54 68.31 70.02
68.06 69.02 69.11 68.56 69.51 69.70 67.38 68.32 66.86 66.96 64.47 63.60 65.87 65.17 67.27 67.58 67.44 67.64 66.87 66.70 66.53 65.30 63.25 62.04 61.40 61.14 60.89 61.02 60.93 60.91 60.53 60.77 61.32 62.25 63.72 65.39 67.08 68.27
68.69 68.85 68.89 69.15 68.39 67.84 67.93 66.26 65.99 65.79 66.13 63.74 63.26 64.91 64.99 65.50 66.05 66.89 67.74 67.37 65.84 65.40 62.93 62.17 61.35 61.01 60.61 59.82 59.59 58.75 57.28 57.30 58.14 59.15 60.67 62.22 64.51 66.64
69.02 69.11 69.08 69.12 68.90 68.41 67.21 68.15 67.42 65.85 66.38 63.32 63.19 62.80 63.24 65.18 64.92 62.05 61.97 64.09 63.39 64.59 64.82 62.91 62.67 62.62 62.29 60.43 59.87 59.64 57.27 55.74 55.90 56.53 57.48 58.70 60.70 63.29
69.30 69.75 70.03 69.74 67.14 66.86 66.53 68.13 67.35 65.32 63.11 62.10 61.76 61.85 60.73 60.64 62.43 63.00 61.88 62.90 63.60 64.69 63.37 63.14 62.71 63.88 64.35 62.67 63.44 62.89 60.43 58.62 56.97 56.24 55.99 56.35 57.52 59.26
69.01 69.80 70.10 68.43 67.35 64.60 63.88 63.44 64.25 64.53 63.08 61.74 61.11 61.24 63.89 63.52 63.65 62.36 61.56 60.26 58.86 64.39 63.19 60.99 63.74 63.13 63.70 63.56 62.16 60.83 59.68 58.93 57.83 57.57 56.68 55.69 56.15 57.31
69.89 69.64 67.99 66.39 66.33 68.05 64.78 62.53 61.98 61.03 61.12 63.99 63.06 63.05 63.68 63.84 63.77 62.50 61.67 60.75 59.58 61.35 62.23 60.11 62.95 61.37 63.29 63.02 60.33 59.65 58.53 57.89 57.64 57.28 57.31 56.61 55.99 55.91
69.27 67.71 67.02 65.56 65.62 67.12 67.05 65.77 65.37 65.62 66.08 64.99 64.60 63.91 63.96 63.59 62.17 61.35 60.88 60.30 60.47 61.18 63.19 58.97 61.49 59.90 62.18 62.92 59.75 58.82 57.95 57.33 57.14 56.81 56.30 55.93 54.81 54.16
66.81 66.24 65.35 65.62 62.30 59.22 63.63 63.85 64.69 64.72 62.25 58.83 57.45 56.48 55.87 55.70 57.06 59.24 58.40 57.04 56.56 57.83 61.11 59.30 59.33 59.19 60.26 59.95 60.46 59.06 57.80 56.64 56.08 56.14 56.38 55.71 53.80 52.93
65.40 64.75 60.06 61.89 56.37 56.14 62.16 63.24 62.26 62.76 63.07 62.15 61.88 60.52 58.70 60.72 57.45 60.26 58.07 55.61 56.04 55.68 59.24 58.03 57.78 56.66 52.94 56.56 59.40 60.10 59.74 58.55 54.82 54.48 55.24 55.18 53.06 60.63
64.16 66.99 65.99 55.77 53.78 52.69 52.76 62.18 60.41 58.91 59.45 60.21 60.16 59.04 59.30 60.23 60.08 60.59 60.55 57.39 54.91 54.43 58.05 59.21 57.44 55.19 53.50 53.08 55.84 57.46 60.08 60.36 61.97 61.85 53.00 53.34 52.34 57.98
66.82 65.92 60.65 51.37 50.48 51.47 53.45 52.94 52.20 52.25 58.88 59.08 58.02 56.42 57.29 57.69 57.89 57.86 58.56 58.28 57.45 58.16 61.23 62.78 57.39 53.94 52.35 51.72 52.80 57.50 60.01 61.50 63.36 64.23 65.69 57.97 51.99 53.10
66.53 54.56 50.35 48.99 48.59 49.04 51.85 52.27 50.53 57.87 58.43 56.90 55.53 55.76 56.54 56.88 57.37 58.46 58.25 60.22 60.82 61.57 60.84 62.72 58.09 55.17 53.82 53.40 54.06 57.23 57.35 59.96 62.75 68.61 69.21 65.03 60.41 59.72
53.80 58.55 56.08 53.24 50.63 52.89 55.39 54.10 57.71 58.18 56.49 54.91 55.02 55.82 56.02 55.48 54.26 53.85 51.85 52.84 56.37 58.16 61.36 61.29 58.00 57.16 54.68 55.49 57.68 57.92 59.58 59.28 62.52 66.69 66.98 67.02 66.57 66.50
59.39 61.13 60.02 59.93 59.27 58.77 58.69 58.10 57.73 56.63 55.05 55.10 54.31 53.88 53.11 52.40 51.54 51.89 51.23 54.09 54.88 54.75 54.80 58.63 58.89 58.08 56.31 56.77 55.69 56.09 55.57 56.81 62.53 63.81 64.03 62.87 63.91 67.17
56.09 58.81 58.41 58.70 57.81 57.76 57.06 55.81 55.58 53.14 54.05 53.24 52.61 52.22 51.05 50.46 49.99 50.17 51.64 53.42 53.33 55.51 51.05 54.36 59.12 55.14 54.37 55.87 56.61 55.33 55.31 55.45 56.13 62.61 62.70 61.63 61.55 64.19
57.38 58.68 57.44 57.61 56.74 55.98 54.80 53.86 53.00 53.39 53.07 51.84 51.31 50.73 50.27 49.91 49.23 49.67 50.65 52.36 53.72 54.65 50.67 54.30 57.77 53.04 49.24 48.80 55.03 54.46 53.60 53.98 54.72 56.65 64.24 62.77 62.87 63.61
58.16 57.86 56.68 56.34 55.26 53.98 53.71 53.03 52.32 51.74 50.82 50.10 49.91 50.05 49.88 49.32 48.83 49.21 49.93 51.29 52.84 54.34 51.39 54.20 52.31 51.51 49.10 50.18 50.71 54.44 51.41 52.86 54.04 55.61 60.69 64.81 66.29 60.67
57.60 56.33 56.00 55.08 54.37 54.15 53.68 52.34 50.80 49.25 47.30 48.62 49.34 49.17 49.29 49.07 48.97 49.48 49.80 47.68 49.88 53.44 51.35 48.51 50.94 52.45 54.89 54.41 51.22 51.43 53.94 51.45 52.52 53.35 55.06 58.14 63.17 62.60
56.81 55.77 55.28 55.20 54.52 53.84 52.38 50.33 48.47 48.28 49.37 49.09 49.01 48.88 48.92 49.05 48.76 48.93 49.40 49.71 52.78 53.33 47.90 47.77 54.65 51.64 52.94 50.84 49.94 50.25 51.27 52.25 53.36 53.41 53.15 53.74 51.09 55.17
56.24 55.54 55.43 54.37 53.74 51.97 49.84 48.29 47.92 48.84 49.44 48.87 48.31 48.43 48.64 48.16 48.87 49.23 49.07 49.98 50.98 51.82 51.58 53.69 50.74 49.63 50.85 50.31 49.46 50.37 50.05 49.73 50.03 50.62 52.61 52.51 53.53 53.53

GFSNE_sfc_wetblb_003.txt.gz
Wetbulb
70.56 71.85 69.32 67.71 67.37 67.03 66.86 67.71 63.76 59.83 61.36 65.13 63.56 69.33 67.29 67.58 68.60 68.07 68.38 68.62 67.23 65.18 64.01 63.71 63.80 64.40 64.55 64.58 64.55 64.60 64.82 64.82 64.73 65.22 65.68 66.43 68.30 70.01
67.62 71.47 71.59 68.19 67.87 67.36 67.31 66.81 65.59 63.11 60.22 63.82 64.51 67.63 68.52 67.40 68.55 68.66 68.01 68.26 66.44 65.39 64.83 63.91 63.69 63.95 64.36 64.29 64.34 64.13 64.22 64.34 64.46 64.59 64.71 65.11 65.87 67.60
71.06 69.71 70.71 72.32 67.85 67.07 66.78 66.54 65.20 64.78 62.03 64.56 65.51 67.97 70.09 69.87 69.02 69.41 68.77 69.66 67.51 65.74 65.16 64.27 63.38 63.15 63.33 63.33 63.22 63.29 63.12 63.32 63.47 63.73 64.17 64.34 64.84 65.61
68.58 70.49 69.48 68.63 71.64 72.14 67.79 70.59 68.79 68.92 64.59 65.19 66.36 65.35 67.90 70.19 70.49 70.03 67.55 66.29 67.13 65.69 64.80 63.66 62.53 61.83 61.74 61.59 61.22 61.03 60.68 60.94 61.35 61.96 62.74 63.30 63.86 64.35
68.71 69.99 69.59 71.05 71.33 69.22 70.20 68.10 67.23 68.19 67.31 64.04 63.45 64.82 65.53 65.78 66.35 69.20 68.73 67.38 66.03 65.70 63.47 62.68 62.08 61.57 60.90 60.01 59.30 58.61 57.35 57.40 58.17 58.85 59.79 60.78 61.85 63.03
70.08 70.36 70.36 70.34 70.33 70.33 69.82 70.52 69.35 67.45 66.72 64.66 63.24 63.16 64.47 63.70 65.87 63.77 63.24 63.95 63.70 65.01 65.49 63.13 62.82 63.64 62.11 60.23 59.93 59.78 57.44 55.93 55.75 56.24 56.79 57.55 58.96 60.29
69.44 69.43 70.43 70.57 68.26 67.48 69.26 65.33 68.71 66.43 65.30 64.28 63.16 63.12 62.85 62.66 62.47 64.17 63.03 63.60 62.51 64.82 63.93 64.35 65.11 65.07 64.42 63.37 64.21 63.57 60.60 58.56 56.53 55.76 55.43 55.26 55.79 56.97
68.93 69.71 69.89 69.06 67.71 65.21 64.92 64.43 64.34 63.96 64.59 63.04 62.15 62.23 63.76 64.19 64.83 64.03 63.01 60.46 58.36 64.24 63.42 62.46 63.77 63.15 64.46 65.61 63.77 61.74 60.27 58.85 58.00 57.03 56.21 55.26 55.11 55.46
70.03 69.25 69.35 68.08 67.13 67.81 65.52 63.34 63.02 62.54 62.09 64.35 63.40 64.00 63.68 64.35 64.94 63.71 62.88 61.12 59.53 61.08 62.04 59.61 62.30 62.29 64.71 64.86 60.84 59.71 58.84 58.31 57.63 57.06 56.65 56.05 55.34 54.81
69.78 69.76 69.83 69.34 68.75 65.99 67.11 65.49 65.54 67.49 66.79 64.59 64.94 65.49 65.45 64.73 62.86 61.76 61.62 61.37 61.32 61.91 63.43 57.96 61.21 60.99 63.69 64.56 60.32 59.42 58.63 57.99 57.15 56.74 56.35 55.07 54.01 53.55
69.79 69.92 69.55 67.45 64.09 61.03 63.23 62.79 65.01 66.19 64.30 61.80 59.58 57.55 56.34 56.22 57.60 59.25 57.83 56.74 55.68 57.02 59.94 59.20 59.81 58.97 60.27 60.93 62.73 60.02 57.37 56.20 55.78 55.83 55.91 55.15 53.38 52.41
71.74 70.12 61.79 63.68 58.49 58.26 64.33 64.33 63.85 64.82 64.59 64.47 63.88 60.61 58.66 60.61 56.96 59.78 59.82 56.41 55.94 55.12 58.27 55.28 55.93 56.79 56.70 60.20 61.19 60.57 58.22 56.87 55.29 54.74 54.92 54.61 53.09 57.96
66.39 67.10 65.78 56.56 56.02 54.10 53.96 62.70 62.14 59.64 62.65 61.07 60.33 60.57 61.92 61.63 59.54 61.45 63.34 57.91 54.70 53.73 57.16 55.33 55.04 58.17 58.30 56.80 56.57 56.69 57.39 57.26 59.10 58.88 55.72 52.65 51.46 55.29
65.81 66.01 67.89 55.27 54.70 53.63 54.28 54.94 53.51 53.33 58.99 58.52 58.77 59.10 58.87 57.63 58.07 59.19 60.98 59.72 58.53 58.40 58.21 58.81 58.40 59.44 57.69 54.10 52.70 55.88 56.60 58.60 58.83 59.45 61.32 59.43 52.03 51.77
65.94 56.10 54.21 52.53 51.41 50.95 51.27 53.50 52.94 56.94 57.59 57.86 57.92 57.16 56.19 57.17 59.96 58.63 60.07 60.17 59.11 58.99 60.05 61.92 58.76 58.74 58.93 54.94 53.69 54.08 55.96 57.47 60.25 60.57 61.69 64.40 61.02 55.56
55.78 59.77 57.54 55.80 52.60 54.40 56.27 54.81 57.23 58.07 58.30 56.87 55.15 56.00 56.27 55.33 54.37 53.80 51.71 51.20 50.60 54.50 60.18 62.06 58.71 59.13 57.44 56.74 54.82 53.61 56.52 54.13 56.64 58.38 59.74 66.63 63.27 62.04
62.82 63.30 60.98 60.80 60.40 59.69 59.32 59.32 58.81 58.63 56.90 56.30 55.02 54.13 53.29 53.05 52.24 52.08 50.83 50.56 50.72 53.40 54.98 57.83 57.72 60.40 61.19 57.03 53.37 54.36 54.82 54.04 54.69 56.06 56.66 63.03 64.45 65.46
59.78 59.81 59.62 59.63 58.81 58.68 58.54 58.28 57.96 56.07 55.97 55.18 53.53 52.74 51.74 51.05 50.29 50.22 50.93 50.75 50.84 53.09 54.44 56.95 56.27 55.28 54.17 55.51 57.38 54.14 54.70 53.27 53.57 55.14 56.12 59.96 61.38 64.19
57.79 58.81 58.87 58.78 58.43 58.03 57.08 56.07 54.82 55.11 55.51 52.87 51.97 51.62 51.02 50.34 49.71 49.55 50.09 50.42 51.08 53.10 54.89 55.92 53.33 53.00 47.98 47.33 53.54 54.99 52.58 52.57 51.94 53.00 54.58 55.50 60.66 62.68
57.38 58.48 58.35 57.94 57.08 55.96 55.19 54.71 54.43 53.33 52.43 51.47 50.70 50.67 50.39 49.57 48.98 49.17 49.69 50.12 50.09 52.91 54.30 53.28 48.72 51.14 49.72 49.21 50.71 53.29 50.80 51.74 50.70 51.00 52.27 54.02 57.00 59.76
59.19 58.09 57.79 56.97 56.29 55.59 55.00 54.36 53.31 51.48 49.32 48.27 49.89 50.06 49.71 49.39 48.96 49.37 49.48 47.20 48.13 52.37 52.42 53.05 52.13 52.39 53.42 56.75 51.27 50.55 52.44 50.96 51.26 51.31 51.58 51.38 54.37 62.02
58.84 58.16 57.67 57.08 56.43 55.53 54.52 53.17 51.15 49.52 49.72 50.03 49.79 49.51 49.53 49.33 48.73 48.75 49.09 48.95 49.84 50.62 52.39 54.51 54.46 51.18 53.16 51.59 49.68 50.33 50.23 51.82 52.04 52.08 52.24 51.71 50.43 49.23
58.49 58.06 57.65 57.20 56.33 55.24 53.33 51.09 49.39 48.68 49.50 49.46 49.01 49.05 49.16 48.31 49.38 49.35 49.28 49.37 49.42 49.92 51.58 49.28 52.88 51.36 52.12 49.40 49.54 50.98 49.15 48.94 49.78 49.08 49.66 50.96 51.64 50.85

GFSNE_sfc_wetblb_006.txt.gz
Wetbulb
70.93 70.32 69.12 68.17 68.59 68.44 67.38 66.79 62.45 60.00 59.75 63.92 63.55 66.83 65.36 66.98 68.00 67.45 66.84 68.82 68.14 66.76 65.03 64.16 64.45 64.81 65.16 65.24 65.27 65.22 65.11 65.19 65.37 65.43 65.24 65.06 64.85 65.57
69.72 69.73 69.30 68.80 69.18 68.49 65.86 66.96 64.75 63.32 59.86 63.87 64.51 66.33 67.78 67.68 68.14 67.33 67.68 68.72 67.71 66.41 64.85 63.88 63.83 64.36 64.67 64.95 64.94 64.88 64.83 64.93 64.80 64.82 64.91 65.07 65.46 64.83
69.93 69.76 69.15 70.80 68.95 67.95 68.71 67.01 65.40 65.04 62.69 63.52 65.01 66.19 65.94 66.30 66.79 67.39 68.34 67.01 66.84 65.75 64.94 64.36 63.79 63.80 64.09 64.01 63.78 63.63 63.84 63.88 63.86 64.07 64.61 64.76 65.07 65.12
69.66 69.60 68.93 68.79 69.59 68.98 68.56 67.47 67.15 67.09 64.72 63.20 64.92 65.09 65.36 66.77 67.05 66.66 66.94 66.17 65.12 65.90 65.64 64.47 63.73 62.88 62.68 62.22 62.02 61.59 61.17 61.46 61.74 62.06 62.88 63.61 64.20 64.27
68.85 68.97 68.78 68.75 68.89 68.97 68.51 67.73 66.91 66.19 65.28 63.38 62.44 64.73 64.12 64.10 63.67 64.76 64.30 66.44 67.21 66.74 64.16 63.03 62.75 62.31 61.44 60.54 59.98 59.05 57.63 57.22 58.11 58.94 59.86 60.79 61.98 62.91
70.27 70.11 69.99 68.71 68.62 68.86 67.78 67.98 67.75 66.54 64.64 62.83 62.37 62.56 63.86 64.00 64.65 62.21 61.27 64.09 64.03 65.03 65.42 63.73 63.53 63.16 62.30 60.59 60.36 59.92 57.41 55.92 55.62 56.21 56.78 57.65 58.78 59.96
68.51 70.15 69.81 70.06 68.26 68.25 67.95 66.92 67.51 65.50 63.42 61.34 60.01 60.50 60.93 61.79 61.02 62.16 61.20 61.65 61.90 63.06 62.61 62.11 61.68 61.93 62.16 62.27 63.30 63.52 60.42 58.50 56.88 55.75 55.45 55.16 55.46 56.48
67.34 69.61 70.32 67.78 67.10 65.01 64.83 64.99 66.85 64.94 62.75 60.36 60.29 59.48 60.42 62.16 62.69 61.58 61.06 59.20 57.55 62.27 61.05 59.06 61.11 60.33 60.59 60.82 61.98 61.61 60.66 59.86 58.55 57.27 56.07 55.18 55.21 55.37
67.76 69.25 67.95 67.71 67.37 68.05 65.11 63.83 63.64 62.96 62.85 61.96 60.20 60.93 61.30 62.57 62.33 61.06 60.58 59.38 57.80 59.52 59.27 56.46 59.19 58.86 60.59 61.89 61.08 60.89 59.77 57.85 57.12 56.54 56.41 55.82 55.25 54.63
68.32 68.58 66.18 67.73 68.63 68.54 66.97 66.77 64.59 64.43 64.66 64.10 62.89 62.31 63.79 64.88 63.05 60.80 59.10 58.48 58.66 59.07 59.50 55.54 56.96 56.08 58.65 59.96 58.87 58.64 58.08 57.28 57.22 56.97 55.81 54.59 52.96 52.39
68.18 68.23 67.82 69.07 65.78 61.23 65.09 63.78 63.62 65.05 64.51 61.12 62.51 60.77 58.44 56.80 58.11 59.08 56.37 55.29 54.49 55.77 58.38 55.65 56.10 53.79 54.14 54.37 56.11 58.93 57.81 56.36 55.46 55.41 55.92 55.44 53.93 52.73
68.12 68.16 62.54 65.11 60.92 58.90 63.77 64.13 63.59 64.02 64.67 64.28 63.14 60.46 57.98 59.41 57.61 58.25 57.88 55.32 55.29 54.57 57.04 53.19 52.21 51.19 48.10 54.25 58.07 59.32 58.94 56.63 54.33 53.81 54.65 54.40 53.23 54.99
65.58 66.58 67.40 58.57 56.60 55.92 56.02 62.60 60.44 57.06 60.44 61.11 60.78 59.59 60.02 60.75 60.14 61.38 60.78 58.93 53.91 52.14 55.06 53.55 51.51 50.47 51.07 53.68 57.14 58.03 58.20 57.42 57.68 57.03 55.19 53.23 51.90 53.13
65.82 67.12 62.25 54.21 55.21 56.02 54.10 54.17 53.82 54.49 58.24 58.16 57.70 57.56 58.49 57.73 57.69 57.39 57.92 57.62 56.95 55.35 56.44 56.76 52.83 52.49 54.81 53.09 52.55 56.36 57.47 56.90 56.73 57.78 58.24 55.60 54.44 53.84
66.29 57.59 54.68 52.20 55.01 52.49 53.34 54.12 53.89 56.38 56.57 56.23 56.50 57.37 56.06 56.84 57.98 56.71 57.79 57.18 55.62 55.71 54.66 58.65 57.73 56.98 55.76 53.77 54.20 55.55 54.38 55.38 56.60 56.84 55.80 55.59 56.20 57.66
56.79 57.20 57.09 57.04 56.21 56.51 56.93 53.65 55.90 57.66 57.52 57.57 56.04 56.48 57.32 55.23 53.66 54.28 52.14 51.25 49.27 49.19 53.39 59.47 58.23 57.60 54.63 55.49 55.70 54.12 54.72 53.24 55.29 55.19 54.68 54.48 56.00 57.58
61.05 61.93 59.32 59.91 59.51 58.49 57.96 58.83 58.15 58.11 57.83 58.02 56.46 54.97 53.04 52.94 52.15 52.53 50.84 49.06 48.47 49.10 50.71 55.51 58.48 58.05 57.23 55.53 52.56 53.35 53.81 53.65 53.46 53.09 52.56 52.37 54.87 57.36
61.64 63.35 61.67 60.73 59.18 57.79 57.17 57.15 57.64 57.68 57.83 56.00 54.60 52.95 51.52 51.29 50.63 50.38 50.20 50.13 48.91 49.90 50.74 55.13 53.72 52.64 53.13 53.52 55.89 53.13 53.30 52.53 52.45 52.17 52.23 51.66 51.73 55.11
62.25 61.21 59.18 60.34 60.28 59.69 58.28 57.57 56.41 57.30 56.10 54.98 53.84 52.90 51.60 50.97 49.57 49.40 49.38 49.51 49.19 49.09 50.00 54.57 50.79 50.23 48.99 47.93 52.30 54.69 52.64 51.77 51.43 50.55 51.22 50.76 49.92 52.32
59.09 58.41 59.10 60.29 59.50 58.38 57.57 56.61 56.04 55.11 53.81 52.76 50.89 50.08 50.38 50.51 49.27 48.81 48.92 48.45 48.07 48.19 48.60 54.21 51.87 51.32 48.96 48.73 50.20 53.30 50.42 51.59 50.27 49.22 49.40 50.11 51.80 53.21
57.28 57.33 59.43 59.36 58.85 58.39 57.86 57.10 55.46 53.67 50.67 49.89 49.48 49.81 50.89 49.16 48.65 48.71 48.50 46.88 47.43 48.49 50.37 51.21 53.83 52.79 52.44 52.95 50.15 50.03 52.64 50.60 50.57 49.64 49.45 47.63 47.12 49.10
60.90 59.49 59.55 58.92 58.41 57.78 57.20 56.10 54.05 52.41 51.11 51.04 50.97 50.49 50.27 49.90 47.84 47.91 48.06 47.44 47.93 48.80 50.29 52.23 52.29 53.46 52.14 49.54 48.15 49.75 50.87 50.78 51.51 51.07 50.98 49.25 47.29 43.84
61.10 60.91 59.87 59.55 58.84 57.64 56.51 54.11 51.66 50.08 50.07 50.92 50.05 49.69 49.87 48.19 49.10 49.17 48.00 48.18 47.88 47.54 47.90 46.95 52.20 52.15 50.52 50.35 49.42 48.03 47.94 48.03 48.74 46.71 47.46 49.05 49.76 49.29

GFSNE_sfc_wetblb_009.txt.gz
Wetbulb
63.43 63.89 63.83 63.32 63.69 63.73 63.55 61.14 57.64 54.18 54.94 58.30 58.12 62.53 63.25 63.76 64.28 64.16 62.55 66.00 66.53 66.53 65.30 64.13 64.46 64.84 65.56 65.76 65.72 65.70 65.73 65.80 65.89 65.70 65.69 65.10 64.95 65.06
65.26 64.70 63.92 63.50 63.47 64.03 63.38 61.74 61.09 59.69 55.57 58.73 60.02 61.16 64.18 64.78 65.68 65.36 63.92 67.80 67.15 66.48 65.31 64.05 63.86 64.43 64.86 65.42 65.48 65.17 65.22 65.37 65.42 65.45 65.34 65.34 65.62 65.21
64.64 63.59 64.68 64.78 63.48 63.48 63.92 62.36 62.35 61.70 57.60 59.50 60.08 61.89 61.29 61.51 63.21 63.98 65.16 64.92 64.66 65.56 65.17 64.36 63.40 63.40 64.07 64.68 64.56 64.47 64.54 64.29 64.33 64.67 65.14 65.32 65.61 65.74
64.31 63.44 63.26 64.50 63.82 63.71 65.21 64.23 63.07 62.30 60.19 58.43 60.88 61.24 61.32 61.53 62.32 63.16 65.11 66.45 63.90 65.75 65.55 64.30 63.16 62.87 62.70 62.77 62.64 62.46 61.91 61.93 62.13 62.68 63.32 63.86 64.54 64.88
65.65 65.48 64.98 64.10 63.29 64.23 65.28 64.94 64.08 63.80 61.69 60.05 59.55 61.84 62.61 61.83 61.57 61.04 61.27 61.68 63.99 66.17 63.88 63.16 62.55 62.37 61.78 61.15 60.77 59.79 58.28 57.61 58.38 58.94 60.05 60.83 61.80 62.85
65.42 66.29 65.81 64.83 64.54 64.61 64.44 64.24 64.19 63.47 62.13 61.37 59.64 60.08 60.99 61.86 61.92 59.74 58.19 60.11 60.40 64.00 64.54 63.52 63.35 63.32 62.77 61.05 60.49 60.30 57.76 56.14 55.55 56.14 56.82 57.24 58.37 59.81
65.75 67.07 66.56 67.46 67.42 65.56 64.93 64.76 64.46 63.58 62.12 60.07 57.98 57.44 58.24 57.82 59.37 58.67 58.68 58.94 59.49 59.84 59.78 59.45 58.54 58.06 58.83 60.61 62.82 63.53 60.96 58.91 57.30 56.43 55.79 55.10 55.22 56.27
66.06 66.82 65.60 68.01 67.00 65.23 65.23 65.36 65.56 63.08 59.31 58.38 57.50 57.24 57.31 59.31 58.65 58.05 57.86 56.84 55.28 59.20 56.40 56.52 56.92 56.40 56.91 57.46 60.64 60.44 59.70 59.02 57.88 57.00 56.60 55.36 55.10 55.36
66.86 66.58 66.08 67.00 66.05 64.96 63.72 63.54 63.30 63.48 62.61 60.10 58.26 57.05 57.45 58.63 58.67 56.89 56.28 56.20 55.14 57.28 54.32 53.85 54.68 54.35 57.55 58.44 59.10 59.13 58.55 57.55 56.82 56.50 56.33 55.67 55.02 54.38
67.10 66.56 64.86 64.02 65.42 63.72 63.92 62.74 63.51 62.61 61.94 62.08 60.27 60.93 60.07 60.82 59.93 58.87 57.13 54.99 54.53 55.62 55.66 52.38 54.12 52.59 53.50 53.67 56.59 57.06 56.10 55.52 56.22 55.89 55.58 54.76 53.31 52.23
65.71 65.68 64.33 64.30 63.35 61.17 62.53 61.66 60.97 60.90 62.39 60.79 61.36 61.12 59.58 58.36 58.98 55.92 53.76 51.65 50.80 51.26 53.59 51.87 52.56 48.75 48.91 48.95 49.32 54.81 55.17 55.68 55.48 55.88 55.34 54.54 52.72 51.52
63.52 64.98 62.43 63.24 60.96 59.46 60.94 59.73 58.79 60.18 57.82 58.18 58.54 57.98 57.09 56.65 57.41 55.24 55.98 53.67 50.59 50.52 53.52 48.64 47.20 46.08 45.42 46.33 50.03 53.29 55.46 55.79 54.35 53.61 53.87 53.29 51.87 54.34
62.32 62.57 63.36 59.51 57.14 57.04 57.94 59.65 58.33 53.23 54.77 53.79 54.57 55.16 54.73 55.41 57.05 57.74 58.32 55.94 52.63 50.88 51.63 48.93 46.14 45.81 45.13 45.46 51.92 55.02 55.38 55.67 56.69 56.42 53.92 52.01 51.52 52.90
61.84 61.69 57.04 54.93 55.13 57.42 54.56 52.63 52.51 53.44 52.83 52.67 52.41 51.99 52.40 51.62 52.46 52.36 52.36 54.16 53.26 51.15 51.84 51.55 49.55 48.14 47.08 51.01 51.93 53.43 55.02 55.74 56.34 55.00 55.30 54.52 53.06 52.45
61.29 59.29 53.64 53.68 54.58 53.15 53.83 53.44 54.00 50.82 50.83 50.98 51.07 51.92 51.00 53.16 50.44 49.55 49.33 48.37 47.20 46.56 49.18 47.29 49.48 49.79 52.47 52.72 51.49 52.61 52.46 53.42 54.78 54.64 55.25 55.17 54.05 54.17
56.70 55.49 54.86 53.93 52.78 53.79 53.53 52.41 50.80 51.38 52.11 51.55 51.60 51.13 50.53 47.73 47.18 47.39 45.38 44.67 42.85 43.44 46.54 47.94 51.15 55.46 51.10 51.41 52.06 52.12 52.24 50.54 53.29 53.86 53.77 53.65 53.61 54.00
55.78 53.86 52.92 52.80 52.84 52.56 53.01 53.59 52.90 53.83 53.40 52.94 52.06 48.14 45.88 46.08 45.85 45.25 43.99 42.45 41.14 42.26 43.70 47.53 52.59 53.69 54.92 53.56 51.75 51.09 50.83 51.15 52.79 52.34 51.88 50.88 51.75 53.12
57.14 56.20 54.64 55.14 55.04 54.98 54.00 54.18 55.83 56.39 55.00 48.99 46.95 45.95 44.97 44.98 43.72 43.97 43.02 42.27 42.14 42.42 43.71 44.54 49.71 47.42 48.46 49.54 54.33 50.62 51.04 51.56 52.54 52.48 51.60 49.37 48.92 51.22
56.46 56.22 55.28 53.93 53.60 53.40 54.13 53.57 51.02 51.30 48.75 46.94 45.89 44.76 43.68 43.36 44.31 42.68 42.23 42.58 42.21 42.01 43.92 42.97 46.87 45.79 45.47 44.90 49.73 53.15 51.72 51.77 51.45 49.96 50.14 49.15 47.84 48.61
54.30 53.17 52.45 53.11 51.70 50.51 49.17 48.43 47.79 46.37 45.08 42.79 41.64 41.31 41.17 42.68 42.15 41.71 41.76 41.02 41.04 41.38 42.34 44.75 46.96 47.57 46.02 45.63 48.39 51.19 50.39 50.56 49.42 48.34 47.56 48.40 48.32 50.85
51.61 51.61 54.94 52.73 50.49 50.29 49.50 48.77 46.82 45.04 42.72 41.60 40.92 41.65 43.56 41.38 40.93 41.30 41.66 44.11 43.51 41.27 41.16 43.98 46.68 52.30 48.88 49.22 46.90 47.29 50.01 49.95 49.23 48.64 47.37 44.90 45.06 45.57
53.59 52.87 54.19 52.92 50.45 49.83 49.09 47.55 45.76 44.50 43.09 42.79 42.56 42.59 41.56 41.59 40.69 41.21 41.63 40.64 41.32 41.59 40.86 45.44 45.49 48.12 49.58 45.70 45.33 45.61 45.94 47.46 49.13 49.97 49.63 47.53 44.29 41.79
53.63 52.75 52.34 51.42 50.67 49.86 48.87 46.51 44.46 43.28 41.50 41.68 41.43 40.53 40.79 40.98 41.56 41.76 40.77 41.68 41.69 40.69 40.29 40.12 42.08 47.37 45.82 45.51 45.77 43.89 44.43 44.55 45.59 44.86 45.24 47.17 46.86 46.84

GFSNE_sfc_wetblb_012.txt.gz
Wetbulb
62.78 61.93 62.53 61.76 62.41 62.34 61.45 59.04 55.73 52.92 53.32 56.86 56.60 60.51 62.40 63.44 63.84 64.13 63.66 64.55 66.35 65.83 65.00 64.10 64.41 65.32 65.91 65.99 66.27 66.48 66.49 66.19 66.20 66.19 66.11 65.89 65.17 65.26
63.68 62.14 62.38 61.88 61.60 62.71 60.91 60.54 58.76 57.49 54.11 57.05 57.98 59.36 61.08 63.27 64.82 65.45 63.12 66.00 65.86 65.54 65.12 64.50 64.38 64.75 65.18 65.55 65.79 65.74 65.80 65.74 65.78 65.75 65.87 65.96 65.94 65.74
64.42 63.35 62.91 62.49 61.64 61.72 61.79 61.09 60.23 59.19 56.61 57.72 59.10 59.68 61.09 60.08 60.98 61.55 63.54 63.51 63.76 65.05 64.88 64.65 63.79 64.01 64.53 64.66 64.82 64.87 65.18 65.04 64.85 65.03 65.43 65.69 65.95 66.23
62.67 62.64 62.13 64.38 64.19 62.06 62.67 62.07 61.60 60.35 58.76 57.48 58.91 60.21 60.48 61.32 61.32 61.32 62.87 64.55 63.60 65.17 64.03 63.46 63.09 62.89 62.82 62.57 62.59 62.51 62.25 62.39 62.87 63.40 64.12 64.56 65.01 65.12
63.95 62.60 62.54 63.46 62.06 61.84 62.55 61.61 62.21 62.80 61.55 59.39 58.74 60.54 60.72 60.46 60.34 60.37 60.48 60.72 62.28 65.65 64.03 63.02 62.41 61.97 61.50 60.92 60.13 59.15 57.73 57.86 58.62 59.40 60.23 61.20 62.26 63.02
64.67 64.49 63.81 64.24 64.01 63.46 63.11 63.64 63.36 62.36 62.70 61.55 60.90 59.92 58.86 59.68 59.41 58.70 58.56 58.25 58.76 62.00 63.56 62.77 62.95 62.91 61.60 60.44 60.76 60.62 58.00 56.23 55.74 56.05 56.62 57.17 58.23 59.56
64.55 64.63 64.81 65.97 66.05 64.67 64.54 62.82 61.94 62.53 62.51 61.14 59.61 57.90 56.92 56.58 56.56 57.24 57.26 57.48 58.13 58.82 57.91 57.85 56.84 55.96 56.46 58.93 61.18 62.74 60.62 59.08 57.27 56.36 55.76 55.29 55.40 56.26
63.77 64.02 64.96 67.12 66.26 65.73 64.76 63.90 63.95 63.13 61.73 59.87 57.20 56.04 56.46 56.14 56.84 56.80 56.22 54.92 53.64 57.51 55.37 54.93 53.92 53.99 55.12 55.18 59.17 60.06 59.03 58.07 57.28 56.46 55.60 54.75 54.89 55.19
64.07 64.13 65.07 66.39 65.27 65.38 63.51 62.99 62.75 63.17 63.02 60.79 57.99 57.42 56.34 56.66 56.86 56.20 55.58 55.12 54.52 56.74 53.50 51.32 53.18 52.92 55.09 56.67 58.62 58.31 57.75 56.39 55.56 54.72 54.43 54.73 54.67 54.05
64.98 65.00 65.85 65.51 64.41 63.67 63.08 63.07 62.42 62.10 63.03 62.67 60.69 60.50 58.85 59.56 58.56 58.41 57.06 55.30 53.84 54.45 53.99 50.78 52.56 52.62 53.31 52.92 55.88 56.60 55.70 54.61 54.34 54.41 54.91 54.38 52.80 51.96
64.73 65.49 66.29 65.36 61.58 60.61 63.19 60.63 60.36 61.12 61.20 59.66 59.63 59.41 58.71 58.18 58.98 56.74 54.71 51.72 50.82 50.73 52.23 51.84 51.52 49.64 48.29 47.75 49.20 53.45 53.82 53.09 53.88 54.28 54.66 54.20 52.44 51.48
64.80 64.89 61.60 62.41 59.29 58.23 62.00 59.96 59.25 59.90 59.12 56.86 56.47 56.65 57.60 56.81 57.38 56.20 54.15 51.44 49.75 49.65 52.28 50.52 46.93 45.37 43.79 43.84 45.44 48.50 49.53 53.07 53.04 53.02 53.15 52.90 51.49 53.67
62.54 63.08 63.64 58.86 55.98 55.35 56.68 59.27 59.17 57.24 55.93 52.75 52.84 53.38 53.35 53.01 53.62 54.69 54.32 53.74 51.29 49.94 53.30 48.65 45.58 44.57 43.30 43.38 46.06 50.55 52.90 53.91 53.33 54.33 52.86 51.76 50.71 51.67
62.68 61.86 59.99 54.00 52.11 54.64 57.34 56.44 52.96 53.72 52.15 51.31 50.33 50.42 50.73 50.15 50.02 50.53 50.06 51.75 52.99 51.98 51.41 49.14 47.14 45.47 43.92 43.32 45.13 50.54 52.55 53.55 53.34 53.70 54.16 52.93 51.67 51.46
63.12 59.15 52.29 50.11 51.56 54.08 53.65 52.78 52.71 50.75 49.61 49.38 49.26 50.09 50.34 49.87 48.78 47.38 47.36 46.24 45.09 44.67 47.18 44.31 45.70 44.41 45.26 46.84 49.52 49.78 50.45 51.38 53.19 52.58 52.82 52.92 52.62 52.53
57.70 55.47 54.85 55.04 53.68 53.48 52.64 52.51 51.52 50.11 50.42 50.14 49.80 50.26 49.45 45.60 45.17 45.38 43.74 42.81 40.61 41.73 44.81 45.63 46.15 47.73 50.04 50.06 49.25 50.12 51.29 48.24 50.63 51.84 52.07 52.74 53.16 52.79
53.95 53.27 52.13 51.76 51.30 51.17 51.06 51.40 50.62 50.04 50.78 50.51 50.65 48.96 44.68 44.14 44.21 43.13 42.20 40.34 39.40 39.89 41.36 43.65 45.81 47.65 50.58 50.49 48.88 50.12 49.55 49.73 51.18 51.38 52.07 51.10 51.23 51.15
54.13 52.43 51.37 51.67 51.72 51.70 51.56 51.64 51.82 53.44 51.76 50.91 47.19 44.46 43.20 43.55 41.76 41.60 40.86 39.63 38.95 40.01 40.00 41.22 42.05 45.45 46.57 47.93 52.74 48.58 48.40 49.43 51.14 51.81 51.14 48.07 47.44 49.47
55.06 54.47 53.76 53.51 53.58 53.34 53.33 52.41 51.89 51.39 48.91 45.72 44.53 43.50 42.00 40.99 41.19 41.13 39.88 39.40 39.42 39.13 40.25 39.56 40.76 43.35 42.64 43.78 46.73 52.18 48.08 49.56 49.77 48.86 47.50 47.75 46.62 46.64
54.68 54.66 53.88 52.21 51.46 49.96 49.43 47.60 46.20 44.28 42.37 41.41 40.62 40.14 39.18 39.81 40.96 39.48 39.01 38.04 38.86 38.92 38.95 40.44 42.40 44.65 43.66 43.98 44.31 47.83 49.07 47.41 47.12 45.75 46.02 46.70 47.33 48.43
52.04 51.58 51.16 50.55 49.23 47.75 47.01 46.33 45.05 43.80 42.27 40.53 39.42 39.54 40.94 40.67 38.95 38.83 38.92 42.35 41.61 38.34 38.35 39.24 41.24 49.05 46.71 46.76 43.87 43.94 46.25 48.21 47.57 45.74 45.45 43.78 41.80 42.18
51.69 51.14 50.83 49.11 48.33 47.75 46.90 45.44 44.38 42.93 41.84 40.85 40.39 39.73 40.21 39.74 38.36 38.59 39.47 38.66 38.36 39.15 38.39 39.71 40.76 43.44 45.74 43.78 42.33 42.46 43.81 45.36 47.09 48.57 48.28 45.44 40.98 38.42
51.92 50.71 50.07 49.69 49.16 48.62 47.41 45.22 43.95 42.70 40.54 39.36 39.57 39.81 39.00 38.69 38.49 39.11 38.38 38.67 39.25 39.02 37.43 37.60 38.53 43.76 43.43 42.97 43.51 41.61 41.37 42.84 43.51 43.68 43.67 46.55 44.98 44.30

GFSNE_sfc_wetblb_015.txt.gz
Wetbulb
62.68 62.70 61.27 61.16 61.98 60.25 59.58 57.00 54.69 52.28 52.80 55.86 56.79 58.70 61.07 60.98 61.97 62.06 64.70 64.66 66.07 65.31 64.60 64.08 64.58 65.17 65.97 66.40 66.65 66.62 66.81 67.03 66.86 66.44 66.37 66.56 65.71 65.56
62.29 61.36 61.03 60.53 60.73 60.65 60.48 60.02 56.84 55.42 54.05 56.59 57.71 58.46 59.77 61.66 62.95 63.89 62.84 66.09 65.69 65.20 64.97 64.41 64.52 65.05 65.46 65.80 66.00 66.00 66.01 66.23 66.30 66.32 66.20 66.17 66.27 66.37
63.48 61.98 61.23 61.23 60.49 60.79 60.42 59.76 58.46 57.04 55.52 58.17 58.30 58.59 59.75 60.64 60.59 60.79 61.71 61.31 62.11 64.37 64.70 64.22 63.86 64.37 64.81 65.18 65.03 65.01 65.12 65.39 65.45 65.58 65.94 66.35 66.29 66.58
63.25 62.67 62.29 63.03 61.31 61.52 60.60 60.87 59.55 59.14 57.83 56.24 58.87 60.74 60.28 61.43 60.39 60.53 61.71 63.37 62.44 64.48 63.61 62.96 62.42 62.39 62.60 62.80 62.71 62.56 62.03 62.01 62.46 63.41 64.37 64.94 65.35 65.39
62.41 62.35 62.34 61.62 60.56 61.01 60.83 61.21 60.45 61.03 59.47 58.47 59.15 59.47 60.03 60.28 60.66 59.46 59.47 59.90 61.41 64.72 63.26 62.61 62.21 61.76 61.21 60.21 59.48 58.69 57.28 57.02 58.07 59.18 60.08 61.06 62.05 62.57
64.57 63.25 62.16 62.03 61.38 61.14 60.62 60.88 60.97 60.28 60.44 59.38 60.08 59.14 59.09 60.46 58.94 57.75 57.38 57.49 58.09 61.17 62.49 61.92 61.78 61.81 60.79 59.28 59.18 59.88 57.74 55.62 55.05 55.64 56.41 56.90 57.92 59.17
64.45 64.23 63.41 64.04 64.85 63.53 62.59 61.74 61.33 60.03 59.85 59.81 60.27 58.75 58.12 57.54 55.90 56.46 56.20 56.44 57.02 57.96 57.79 57.12 56.51 54.63 54.49 57.47 58.88 60.63 58.85 58.11 56.79 55.90 55.29 55.01 55.17 55.94
64.10 64.24 64.00 66.05 65.57 64.50 63.97 64.08 62.93 60.83 60.45 58.67 58.87 57.45 56.90 56.08 55.70 56.00 55.10 54.04 53.94 56.70 55.56 55.70 54.16 53.42 53.73 54.45 58.58 59.40 58.83 57.76 56.75 55.96 55.00 54.12 53.87 54.20
65.65 65.20 63.83 65.38 65.10 65.30 63.80 63.32 62.78 62.68 62.36 59.97 58.68 58.74 57.72 58.66 56.58 54.73 54.40 54.50 54.03 55.92 55.01 52.68 52.25 52.53 54.06 55.56 58.11 58.44 57.33 56.48 55.26 54.48 54.09 53.75 53.54 53.50
66.10 65.21 63.26 63.11 64.00 64.79 63.78 62.66 61.25 61.65 62.28 61.76 60.25 61.25 60.45 59.14 57.68 57.42 56.12 54.86 53.84 54.30 53.85 50.71 51.67 51.90 53.25 53.52 56.36 57.19 56.24 55.07 54.29 53.60 53.20 53.23 52.12 51.34
66.41 63.93 63.93 63.70 62.44 60.80 62.65 61.09 60.61 61.37 61.24 59.80 59.18 58.54 57.93 57.69 58.61 58.39 56.82 54.33 50.95 50.92 51.58 50.91 50.88 50.10 48.77 48.69 49.64 53.70 53.59 52.78 52.21 52.53 53.59 53.13 51.89 50.94
62.39 63.48 62.40 64.47 58.51 58.15 63.04 60.81 59.09 60.24 60.04 58.03 56.93 54.65 54.83 54.74 57.04 55.94 54.70 52.18 48.96 48.83 51.42 50.26 47.68 45.41 42.92 44.32 43.59 45.57 45.74 50.24 50.94 51.40 52.72 52.89 51.23 51.37
62.44 62.58 63.41 57.74 54.82 54.05 56.92 61.29 59.88 57.94 57.39 54.18 52.05 51.90 51.78 51.75 51.94 52.28 53.08 52.53 49.99 49.48 52.47 49.80 45.55 44.01 42.48 42.21 43.65 46.58 47.46 50.19 51.62 52.17 51.79 50.66 50.44 51.34
61.72 63.13 62.92 55.74 52.07 51.32 54.20 55.25 54.04 54.91 52.84 51.00 49.73 49.38 49.87 49.68 48.98 49.14 48.10 50.36 52.54 51.39 51.14 48.41 46.19 43.94 41.53 40.85 41.49 46.18 49.62 50.85 50.78 51.82 52.07 51.55 50.90 51.13
63.40 60.40 53.14 49.51 49.51 52.41 54.77 54.21 52.84 51.77 50.04 49.16 48.57 48.98 50.22 48.98 47.09 45.91 46.21 44.57 43.56 43.64 46.33 43.53 44.87 42.95 42.89 42.47 44.18 47.62 47.55 48.95 51.38 50.21 50.91 51.08 51.68 52.03
56.78 54.87 54.67 54.39 53.99 54.16 52.86 52.39 51.59 50.18 49.88 49.27 48.59 48.93 49.02 45.70 44.19 44.05 42.68 41.56 39.61 40.66 43.06 43.18 42.73 42.77 44.10 46.01 46.51 47.41 49.13 46.33 49.27 50.44 50.88 51.18 52.51 52.36
55.57 54.25 54.07 52.92 51.96 51.13 50.63 50.65 50.21 49.77 49.77 49.16 49.26 49.19 46.82 43.42 43.12 42.11 40.95 39.27 38.06 37.89 39.27 41.53 42.32 42.88 44.34 45.48 45.72 46.87 47.26 46.94 48.79 49.53 49.96 48.88 49.73 49.89
54.53 53.49 52.78 52.31 52.05 50.91 50.47 50.15 50.03 51.69 49.27 49.57 49.52 47.28 43.65 42.09 41.77 40.42 39.83 38.04 37.41 37.39 37.57 38.44 38.93 40.92 44.71 45.93 50.65 46.53 45.54 45.77 48.19 48.65 47.65 45.53 45.11 47.15
56.04 53.25 52.69 51.74 51.43 51.41 51.39 51.07 51.19 51.31 50.83 49.92 45.35 43.42 42.76 40.97 40.04 39.79 38.32 37.89 37.26 37.12 38.06 37.39 37.29 39.82 40.18 39.28 43.43 51.72 46.42 45.61 45.60 45.02 44.89 44.31 43.77 44.65
53.96 53.53 53.09 52.71 52.51 52.13 51.07 50.86 48.42 46.40 45.02 43.49 41.12 39.96 38.80 38.45 39.80 38.26 37.66 36.20 36.82 37.37 37.40 37.97 37.35 38.63 40.02 39.72 42.37 45.95 48.17 44.75 43.46 44.01 43.64 44.77 45.21 47.56
53.71 53.63 53.70 52.95 51.52 49.69 48.54 46.82 45.16 42.85 41.75 40.57 39.87 38.59 39.26 40.02 37.99 37.75 37.25 41.00 40.39 36.66 36.82 37.26 38.90 45.68 42.54 44.26 42.33 41.91 44.26 47.24 46.66 44.19 44.18 43.53 42.06 41.47
53.27 53.06 51.23 50.35 48.82 47.38 46.28 45.03 44.12 43.14 41.33 40.03 39.07 38.26 38.59 38.80 38.26 37.28 37.71 37.39 36.86 37.30 37.15 37.98 38.26 41.98 43.41 42.00 40.65 40.52 41.61 42.96 46.43 47.73 48.54 47.56 42.64 38.53
51.98 51.58 50.13 48.64 47.75 47.15 45.92 45.31 46.32 42.77 41.31 40.16 38.58 38.88 38.99 37.73 37.19 37.47 37.47 37.45 37.38 37.40 35.91 35.86 37.17 40.19 42.04 41.27 41.67 39.82 39.95 41.43 42.66 41.97 42.91 47.82 47.13 45.63

GFSNE_sfc_wetblb_018.txt.gz
Wetbulb
65.66 64.64 64.88 64.49 63.98 62.72 62.06 61.51 61.08 57.62 58.53 61.57 61.94 63.65 65.10 64.57 64.88 66.01 66.68 66.53 66.31 66.19 64.73 64.09 64.66 65.39 66.07 66.64 67.03 67.02 67.16 67.08 67.23 67.10 66.93 67.14 66.40 66.02
65.00 65.24 64.56 64.05 64.31 64.31 64.10 63.24 60.83 61.06 59.57 60.91 62.30 63.72 64.55 65.36 65.64 67.33 66.44 65.80 65.94 65.33 64.64 64.31 64.56 65.06 65.63 65.91 66.13 66.33 66.48 66.68 66.65 66.91 66.77 66.74 66.77 66.86
65.35 64.45 64.62 64.84 63.42 63.39 63.83 63.36 62.26 61.11 60.24 62.30 62.30 63.98 64.43 65.62 66.01 65.86 65.70 65.99 65.99 64.05 64.38 64.16 63.84 64.13 64.84 65.18 65.22 65.15 65.24 65.51 65.62 65.97 66.43 66.54 66.84 66.90
65.40 64.91 64.49 64.00 64.47 64.05 63.70 64.16 63.25 63.25 63.39 62.51 62.88 63.73 63.98 65.06 65.78 65.80 65.33 65.69 65.96 64.81 63.50 62.97 62.61 62.34 62.35 62.52 62.24 62.16 61.47 61.52 61.96 62.53 63.67 64.49 65.42 65.90
65.61 65.66 65.48 65.00 64.71 64.38 64.44 63.76 64.27 63.94 63.40 63.03 62.75 63.72 63.76 64.03 64.56 64.70 64.18 64.59 64.20 64.87 62.98 62.47 61.95 61.59 60.78 59.78 58.93 58.13 56.93 56.76 57.58 58.42 59.72 60.51 61.71 62.67
65.77 65.48 65.17 64.89 64.64 64.09 64.23 64.59 64.68 64.55 63.98 63.45 63.28 63.91 63.79 63.28 63.21 62.26 61.93 62.57 62.64 63.73 64.10 62.72 62.57 62.18 60.43 58.79 58.89 59.63 57.64 56.35 55.48 55.77 56.33 56.92 58.23 59.31
66.13 65.79 65.42 65.24 65.08 64.46 64.25 64.50 64.68 63.91 63.66 63.56 63.17 62.86 61.81 61.72 61.51 61.83 60.83 61.32 61.80 62.51 63.29 63.22 62.91 62.30 62.01 59.64 60.29 60.58 58.47 57.45 56.52 55.82 55.06 54.78 54.87 55.21
66.18 65.84 66.78 66.38 65.75 63.50 63.35 63.85 64.93 64.52 64.00 63.71 63.23 62.39 63.06 61.46 61.45 60.65 59.95 59.11 59.42 62.33 61.64 61.86 61.19 61.58 61.94 60.57 59.46 59.13 58.79 58.12 57.08 55.96 54.72 53.84 53.73 54.04
67.27 66.49 66.02 66.73 65.80 66.61 63.75 63.20 63.04 62.56 63.84 65.37 63.84 62.71 62.10 62.02 61.77 59.80 58.91 60.33 60.20 61.84 60.82 59.70 60.92 59.85 61.40 60.44 58.39 58.44 57.89 57.15 55.95 55.20 54.23 53.51 53.03 52.85
67.33 67.35 67.14 66.87 66.44 66.51 66.86 65.84 65.51 65.17 65.15 65.44 65.35 65.07 64.37 63.98 63.45 62.69 61.63 60.66 59.38 60.34 59.99 57.04 59.40 57.95 59.53 59.70 57.27 57.28 56.48 55.38 54.48 54.13 53.41 52.18 51.33 50.85
67.70 67.60 67.18 66.96 62.30 61.23 66.31 65.64 64.84 64.42 60.75 59.93 60.53 59.31 58.22 58.22 61.33 60.83 58.84 57.36 57.14 57.78 57.56 57.36 57.88 56.45 56.59 55.69 56.45 54.11 52.98 52.44 52.16 52.17 52.46 52.25 50.90 50.43
67.40 67.36 62.06 64.86 58.33 58.15 66.44 65.55 62.57 62.18 63.69 62.17 60.39 57.97 57.53 57.22 57.89 61.25 59.57 57.03 56.42 54.96 57.33 55.44 55.24 53.65 49.92 52.93 52.63 54.19 54.42 52.00 50.08 50.19 51.05 51.80 50.77 56.22
65.38 64.51 65.40 58.17 55.29 54.76 59.02 64.78 64.03 63.14 60.77 61.41 58.42 57.06 56.97 57.35 57.18 57.92 58.99 57.84 55.83 54.66 57.35 56.73 53.54 52.15 50.15 49.29 51.33 53.18 54.13 54.43 55.96 56.09 52.49 50.72 49.87 51.84
65.12 65.60 64.90 55.34 52.80 52.98 56.05 56.59 53.41 57.71 59.20 57.18 55.95 55.46 56.53 55.66 55.65 55.41 55.23 56.78 57.73 57.19 57.37 56.64 52.09 50.57 49.93 47.69 47.36 52.13 53.67 55.37 56.44 55.96 56.44 53.49 51.37 50.64
65.60 62.75 55.16 50.25 50.07 52.36 54.23 53.43 54.53 58.83 56.73 55.49 54.93 54.99 56.18 55.86 54.91 53.29 53.42 52.27 52.24 52.21 51.76 51.91 51.10 50.67 49.35 49.04 48.72 49.27 50.42 53.93 55.52 56.32 54.94 54.33 53.83 54.40
57.60 57.64 55.73 55.97 56.37 57.03 56.43 56.25 58.14 57.02 56.36 55.68 54.76 54.88 55.21 54.58 52.91 51.75 51.45 49.96 49.13 49.58 51.78 50.95 50.66 50.16 48.03 49.66 49.82 49.56 52.75 51.74 54.27 54.42 53.65 53.09 53.54 53.80
57.56 58.61 58.45 58.14 57.56 57.24 56.56 56.02 55.52 55.47 55.09 54.70 54.74 54.75 54.65 52.64 51.22 50.15 49.20 48.31 47.81 47.15 47.42 49.32 50.64 50.22 49.20 49.18 49.59 51.21 51.41 51.89 53.88 53.38 52.01 50.12 50.96 51.48
59.81 59.97 58.75 58.41 57.98 56.48 55.92 55.08 54.80 54.69 55.24 55.02 55.02 54.89 54.39 52.15 50.07 48.14 47.86 47.48 46.66 46.57 46.03 47.09 47.03 47.50 49.52 51.40 51.90 50.19 51.63 52.16 53.09 52.16 50.87 48.11 48.02 50.46
60.15 59.91 59.76 58.48 57.29 56.33 55.87 55.53 55.30 55.59 55.76 54.73 54.82 54.43 52.00 49.60 47.77 47.50 47.15 46.15 46.17 45.89 46.80 46.76 45.96 46.38 44.98 43.87 49.35 52.31 52.28 52.33 51.32 48.93 48.94 48.15 46.90 48.72
61.44 59.70 58.93 57.72 56.89 56.35 55.72 55.74 56.04 55.30 55.38 55.03 53.71 51.87 49.23 47.83 46.34 46.69 45.96 45.59 45.62 46.34 46.17 47.52 46.29 45.70 44.94 45.74 46.15 49.80 48.58 51.75 49.43 47.78 47.39 48.20 49.13 49.26
59.58 59.13 58.92 57.87 57.30 57.07 56.50 55.93 55.30 53.88 53.07 51.70 49.64 47.71 46.88 46.53 47.21 46.53 46.05 42.80 44.15 45.89 45.42 46.26 47.73 46.18 47.04 49.00 48.44 49.30 51.12 47.50 48.95 48.28 47.53 46.02 45.26 44.87
58.83 58.49 58.00 57.93 57.51 56.33 54.41 53.76 52.45 50.03 49.59 48.93 48.60 47.25 46.84 47.54 46.95 46.20 45.79 45.95 46.05 46.36 45.56 46.15 47.42 46.89 50.25 49.71 48.56 48.79 48.73 49.86 49.25 48.90 48.93 47.43 45.05 41.24
58.69 58.19 56.96 57.01 55.95 54.48 53.36 52.34 51.97 50.88 50.04 49.44 48.30 47.19 46.49 45.96 46.66 46.22 46.37 45.70 45.69 46.09 45.27 45.08 46.25 47.17 47.97 48.55 47.12 47.41 47.76 46.85 46.40 46.19 46.72 48.27 48.04 47.70

GFSNE_sfc_wetblb_021.txt.gz
Wetbulb
71.34 71.08 69.88 69.73 69.07 68.44 67.58 67.49 65.01 61.96 62.66 66.33 65.74 69.26 70.72 71.31 70.41 69.79 70.26 68.20 67.18 66.70 66.08 65.30 65.26 65.73 66.56 67.02 67.28 67.47 67.71 67.80 67.69 67.62 67.67 68.24 67.46 67.04
70.37 70.70 70.27 69.74 69.70 69.13 68.21 67.64 66.67 65.37 62.52 66.62 66.69 69.32 70.44 70.14 69.88 70.67 70.34 67.46 66.52 65.98 65.57 64.86 64.91 65.48 65.84 66.33 66.67 66.80 66.84 67.13 67.26 67.32 67.39 67.45 67.64 67.78
70.78 70.41 70.43 71.02 69.20 69.13 69.09 68.77 68.00 67.02 64.36 66.55 67.67 69.36 69.55 69.72 69.45 70.37 69.88 70.11 69.45 65.30 64.64 64.73 64.08 64.48 65.04 65.53 65.48 65.33 65.40 65.35 65.48 65.88 66.32 66.69 67.14 67.44
71.10 70.27 69.62 69.21 69.75 69.89 68.73 69.27 68.59 68.66 66.55 66.57 68.18 67.83 68.81 69.86 70.13 70.25 69.35 68.66 69.13 66.90 64.26 63.83 63.77 63.62 63.34 63.20 62.84 62.38 61.54 61.56 62.05 62.57 63.06 63.74 64.57 65.19
71.79 70.40 69.69 69.38 68.68 68.64 68.60 68.05 67.79 68.25 67.77 66.33 66.35 68.60 68.63 68.86 68.91 69.51 69.51 69.28 68.10 66.35 63.79 63.48 63.33 63.17 62.51 61.39 60.44 58.99 57.13 56.77 57.54 58.69 59.70 60.83 61.57 62.14
72.65 71.46 70.49 69.46 69.21 68.87 68.91 68.85 68.53 67.67 68.02 66.92 66.54 66.72 67.47 69.04 68.10 66.64 66.28 67.58 66.52 66.93 65.99 63.72 63.37 63.70 62.04 59.68 59.67 60.05 58.04 56.76 56.54 56.70 57.14 57.82 58.61 59.63
72.63 71.61 70.86 69.88 67.75 68.39 68.93 68.99 69.04 67.78 67.11 66.28 65.75 65.98 65.80 66.38 66.30 66.73 65.69 65.97 66.51 66.79 65.32 65.78 66.18 66.06 65.78 61.35 61.86 61.36 59.82 58.17 57.02 56.32 55.97 55.59 55.29 55.64
72.71 71.96 71.26 67.89 67.01 64.75 64.68 66.05 68.70 68.31 67.78 66.68 66.23 65.66 68.14 67.62 67.15 65.83 65.18 63.69 62.04 66.65 65.27 64.19 67.22 65.16 65.64 66.15 62.82 60.13 59.04 58.36 57.82 57.14 55.73 54.79 54.20 54.45
73.55 72.55 71.03 70.47 68.33 69.18 63.98 63.36 64.00 64.07 66.06 69.84 67.90 67.57 67.38 68.53 67.67 65.63 65.58 64.66 63.96 66.07 65.24 62.77 64.97 63.66 64.58 64.01 60.12 59.37 58.42 57.71 57.12 56.30 55.30 54.49 53.70 53.07
73.61 73.12 71.96 71.56 70.59 69.70 69.96 68.65 68.43 68.92 67.94 68.15 69.41 70.13 69.39 69.24 67.79 67.57 67.55 66.31 65.41 64.98 65.61 59.86 62.57 61.73 62.79 62.04 58.50 58.24 56.61 55.27 54.96 54.55 54.07 52.92 51.43 50.44
73.51 73.15 72.47 71.84 66.40 62.63 68.29 69.51 69.60 69.79 64.24 61.71 62.47 61.15 59.83 60.52 63.83 66.01 63.65 62.20 61.33 61.65 63.57 60.58 60.40 59.56 59.54 58.96 58.79 56.35 54.29 53.05 52.23 52.01 52.38 52.01 50.45 50.05
72.80 72.51 63.87 69.78 59.13 59.50 67.67 69.65 68.56 68.98 68.13 65.91 65.38 59.00 61.12 60.75 59.77 65.92 63.47 59.88 59.15 58.14 61.59 57.84 57.64 57.10 53.44 56.43 56.37 56.39 56.63 53.98 52.11 51.42 51.76 51.73 50.64 58.17
70.63 70.01 71.63 59.38 55.78 55.72 59.70 70.60 68.11 69.11 65.07 66.40 64.17 63.79 63.93 62.83 61.84 62.50 63.38 61.16 58.94 57.85 59.73 58.63 56.09 55.15 53.26 52.53 54.12 55.34 55.55 56.03 57.30 56.84 52.14 51.55 50.41 52.15
70.59 69.19 68.05 56.34 54.34 54.43 58.41 59.69 56.04 61.92 66.85 65.65 64.14 63.05 61.32 60.80 60.78 60.94 61.91 61.78 62.00 60.16 60.23 59.92 54.48 53.04 51.92 51.01 50.45 53.53 54.72 55.75 57.54 56.79 57.14 54.70 51.41 50.86
69.77 65.57 58.53 53.82 53.58 54.22 55.92 54.75 56.56 66.44 65.52 64.09 63.03 61.67 61.34 61.24 61.45 60.19 59.90 59.84 59.31 58.83 57.08 58.43 55.31 54.69 52.95 50.96 50.53 51.93 52.29 54.21 56.02 56.01 57.02 57.57 56.71 56.30
61.94 60.99 58.51 58.65 58.97 61.71 58.60 58.36 66.48 66.36 64.85 63.82 62.68 61.50 61.05 59.87 59.37 59.37 58.25 57.77 55.76 55.33 57.50 57.05 56.62 55.56 51.99 52.17 52.29 52.15 53.26 51.30 54.48 55.93 57.02 56.72 55.80 55.09
59.68 61.11 61.33 62.46 62.16 63.48 63.39 64.52 64.33 63.39 62.58 62.41 60.91 59.53 59.52 59.60 59.14 59.04 58.04 56.66 53.59 53.41 51.96 53.07 56.22 56.54 54.77 54.13 51.39 51.90 51.80 52.74 54.87 55.75 55.60 53.13 53.33 54.05
61.45 60.72 60.66 62.19 62.42 62.50 61.90 62.41 62.24 60.80 62.35 60.95 60.18 60.11 59.39 59.06 58.85 57.46 56.17 54.26 53.13 52.00 51.31 51.59 52.24 51.68 52.11 54.87 55.35 51.69 51.68 51.89 54.10 55.14 54.26 51.03 50.72 53.15
63.64 62.19 62.16 62.05 62.97 62.99 62.82 60.98 61.27 61.93 62.54 60.47 60.34 60.15 60.23 59.90 55.69 55.74 54.26 53.52 51.58 51.19 50.66 51.91 51.49 50.44 48.17 47.06 51.87 52.79 51.86 52.31 53.13 51.93 51.87 50.98 49.76 51.37
63.55 62.13 63.26 63.15 63.26 62.73 62.49 61.85 62.30 61.35 60.61 60.39 60.54 60.76 59.84 58.04 55.41 54.19 53.23 51.61 50.87 50.50 50.37 51.57 51.69 50.92 48.92 48.24 48.92 52.20 48.83 53.89 52.02 50.39 49.66 50.25 51.18 50.58
63.32 64.22 65.49 65.04 64.30 64.19 62.94 62.26 61.93 60.97 60.82 60.79 60.51 59.44 58.17 55.87 54.28 53.28 52.02 46.73 47.45 50.01 49.59 50.47 51.79 46.67 51.80 53.48 51.00 50.17 52.60 48.64 51.24 51.53 50.13 48.27 47.27 47.45
65.51 65.25 65.66 64.66 65.06 64.45 62.79 61.58 61.19 59.77 59.91 59.97 58.70 57.34 55.88 54.83 53.44 52.13 51.35 50.26 50.15 50.03 50.38 51.57 52.87 52.33 51.71 50.72 49.10 50.07 50.59 52.09 50.92 50.04 50.15 49.19 47.15 43.61
65.86 65.96 64.88 65.26 64.76 63.08 61.62 60.68 60.26 59.71 59.34 58.34 57.25 56.36 55.31 53.48 53.06 52.34 51.51 50.71 50.20 49.73 50.42 50.25 50.56 51.36 50.73 50.40 48.92 49.79 50.36 49.62 48.77 47.98 48.98 49.13 49.12 48.20

GFSNE_sfc_wetblb_024.txt.gz
Wetbulb
74.61 73.45 71.37 70.28 71.30 70.65 69.98 68.82 66.43 63.94 64.27 68.21 66.72 70.51 70.41 70.24 71.63 71.28 70.91 69.67 68.63 67.72 66.70 66.08 66.46 66.78 67.02 67.43 67.80 67.92 68.34 68.31 68.44 68.57 68.45 68.69 68.28 68.19
74.11 73.43 72.87 70.56 71.29 70.90 69.87 69.16 68.20 66.43 64.40 67.59 67.72 69.84 70.25 70.16 70.37 70.93 71.14 69.80 67.78 66.59 66.44 65.78 65.69 65.79 66.09 66.40 66.89 66.94 67.16 67.41 67.63 67.74 67.71 67.77 68.03 67.93
74.82 73.67 73.00 73.33 70.03 70.16 70.30 69.61 68.55 68.01 65.51 67.07 68.78 70.91 71.61 71.55 70.85 71.01 71.74 71.36 70.52 66.80 66.04 65.20 64.71 65.11 65.50 65.83 65.90 65.70 65.41 65.42 65.55 66.04 66.09 66.46 66.86 66.99
74.96 74.02 73.22 71.80 72.10 73.01 70.40 72.08 70.94 71.07 67.49 68.00 70.02 68.74 70.83 72.07 72.37 72.05 71.11 70.35 70.31 67.46 66.51 64.74 64.38 64.34 64.62 64.67 64.25 63.72 62.95 62.34 62.32 62.52 63.17 63.66 64.36 64.71
75.93 74.93 73.90 72.52 71.60 70.94 70.88 70.11 69.74 69.44 69.84 67.49 67.39 69.52 69.57 70.56 70.94 71.82 71.53 71.77 70.43 68.01 64.50 64.41 64.29 64.16 63.35 62.62 62.01 60.75 58.28 57.33 58.01 59.22 59.99 61.16 61.97 62.43
76.84 75.96 74.97 73.16 72.15 71.49 70.60 70.89 70.75 69.10 70.12 67.90 67.24 67.19 68.57 70.72 69.48 67.47 68.27 70.36 68.93 69.18 68.44 65.37 66.69 65.00 63.87 62.47 61.25 60.52 58.47 57.31 57.06 57.44 57.95 58.66 59.34 60.03
77.37 76.74 75.94 73.50 69.48 70.11 70.59 72.04 72.91 69.39 67.54 67.52 66.95 67.07 66.95 67.39 67.64 67.82 66.91 67.40 69.07 69.23 68.05 67.82 67.80 68.00 67.14 62.52 64.68 62.96 61.30 59.68 58.07 57.30 56.93 56.64 56.55 56.74
77.16 76.95 76.49 71.27 69.89 66.00 65.88 66.69 71.06 71.32 70.78 67.46 67.12 67.54 69.31 68.77 68.73 67.51 66.70 65.60 63.85 69.13 67.84 67.05 67.91 66.75 67.66 67.74 62.23 60.76 59.74 58.91 58.24 57.86 57.09 55.96 55.12 55.37
78.19 77.35 75.81 74.96 71.28 72.72 66.00 64.77 65.18 65.07 66.80 71.24 69.62 69.61 69.67 70.38 71.05 70.19 67.97 67.06 65.74 67.54 68.89 65.29 67.14 65.49 66.53 66.42 61.63 59.88 59.22 58.41 57.70 57.11 56.72 55.57 54.51 53.93
77.71 77.23 77.07 76.40 74.35 73.09 72.89 69.49 69.75 70.15 69.78 69.48 70.48 71.53 72.59 71.99 71.56 70.29 69.45 68.46 68.48 68.13 68.80 62.89 65.13 63.01 64.48 64.51 59.90 58.55 57.61 56.06 55.59 55.26 54.66 53.65 52.10 51.03
77.84 77.65 77.40 76.76 69.73 64.01 72.86 72.10 71.23 70.60 65.12 63.06 64.20 62.57 63.22 63.52 65.60 68.53 66.33 64.83 63.87 64.18 66.89 63.70 62.22 61.42 62.16 61.60 61.74 57.30 54.38 53.83 53.67 53.89 53.64 52.93 51.15 50.37
77.74 78.58 66.21 74.02 62.80 60.80 71.83 72.85 71.31 70.83 70.19 70.55 69.60 65.05 63.19 64.47 60.66 68.17 67.11 64.36 63.07 60.72 64.74 61.68 59.60 59.41 57.15 59.57 59.20 58.57 58.30 55.40 53.39 52.36 52.57 52.47 51.07 57.97
74.55 74.99 75.94 62.28 56.39 57.18 62.48 71.93 71.16 71.22 68.04 70.46 69.70 68.89 68.08 67.95 66.33 66.68 66.90 64.00 61.25 60.24 62.03 62.33 58.97 58.29 56.36 54.95 56.07 57.13 57.26 57.12 57.79 57.21 51.52 50.96 50.87 53.53
75.20 75.57 74.57 57.94 54.82 55.18 59.93 61.42 58.58 62.01 70.67 68.51 67.88 66.58 66.32 65.95 65.54 65.22 65.57 64.71 64.54 63.38 63.53 63.27 57.98 56.70 54.48 53.16 52.77 55.45 56.12 57.23 57.24 57.18 58.41 55.24 51.42 51.16
75.94 71.25 61.56 55.00 52.83 55.79 57.98 58.02 58.83 68.13 68.67 67.21 67.16 66.78 66.64 66.07 66.04 64.38 64.27 64.22 63.70 63.47 60.86 61.09 58.28 57.40 54.42 52.77 52.57 53.79 53.75 55.50 56.98 56.61 56.94 57.55 58.14 58.93
61.85 63.95 60.62 59.17 59.45 61.39 59.19 60.96 68.62 68.33 68.72 67.58 67.53 67.17 66.26 63.63 62.57 62.24 60.65 60.64 59.64 59.52 61.55 60.66 59.45 57.60 53.84 53.85 53.89 53.23 54.38 52.93 55.25 55.96 57.10 57.93 58.32 58.01
60.66 61.84 62.02 63.16 62.76 63.49 64.13 64.40 67.22 67.30 66.76 67.89 66.85 65.50 63.18 62.21 61.50 62.17 61.16 60.21 58.45 57.50 57.39 58.17 59.61 59.20 57.08 56.45 52.87 53.99 54.32 54.09 54.72 55.62 57.37 55.32 56.31 56.41
63.23 63.43 63.81 64.65 64.62 64.19 64.48 64.16 65.91 65.45 66.36 66.48 65.60 63.74 62.26 61.71 61.32 61.41 60.67 59.38 57.79 57.23 56.41 55.25 54.45 54.12 54.52 57.95 57.42 54.22 54.26 53.83 54.62 56.26 56.64 53.51 52.96 54.82
65.52 64.67 64.70 64.29 64.48 63.37 64.12 64.91 64.73 66.05 68.00 65.76 64.50 63.60 62.60 61.86 60.63 60.32 59.46 58.36 57.18 56.47 55.03 54.36 53.66 53.16 50.79 49.77 54.16 54.39 53.02 53.61 54.06 54.05 54.07 52.97 51.86 52.66
66.51 64.62 64.64 64.64 64.62 64.93 65.19 65.48 65.99 66.09 65.98 65.06 64.08 63.10 62.36 61.86 60.81 59.50 59.00 57.87 56.52 54.81 53.61 53.73 53.88 53.83 52.14 50.99 50.56 52.92 49.40 54.86 53.51 52.31 51.95 52.73 52.95 51.62
65.80 65.35 66.36 65.87 65.99 65.73 66.17 66.70 67.11 65.87 65.05 64.34 62.92 62.71 62.45 61.47 60.23 59.43 58.18 50.77 50.78 53.85 52.54 52.73 55.14 52.05 54.77 53.64 52.21 53.65 55.32 48.85 52.16 53.42 52.50 49.79 49.14 49.31
65.17 65.71 66.42 66.63 67.11 66.93 66.20 65.72 65.31 64.14 64.39 63.29 62.87 62.63 61.68 61.00 59.41 58.26 57.06 55.22 53.21 52.25 52.68 54.07 55.58 54.65 53.84 52.39 51.46 52.83 52.80 54.88 53.33 50.78 50.62 49.95 48.52 44.65
65.48 66.32 67.08 67.22 68.49 67.94 65.70 65.30 64.39 63.44 63.11 63.31 62.72 61.59 60.85 59.23 59.25 57.78 56.46 55.10 53.79 53.14 53.07 52.81 53.33 53.79 52.81 52.58 51.07 51.90 53.50 53.20 52.21 51.55 51.53 52.12 51.55 50.95

GFSNE_sfc_wetblb_027.txt.gz
Wetbulb
76.62 75.94 72.52 70.85 71.63 71.41 70.59 69.48 67.33 64.79 66.34 68.98 67.33 73.12 70.55 70.75 71.69 71.24 71.15 69.34 69.67 68.38 67.19 66.68 67.01 67.45 67.80 68.11 68.06 68.01 68.26 68.47 68.79 68.71 68.78 69.06 68.84 68.74
75.41 77.08 75.61 71.23 72.17 71.42 70.46 69.76 68.96 66.92 64.57 68.75 69.02 71.52 71.82 70.17 70.56 70.70 70.77 69.60 69.25 67.92 66.91 66.31 66.34 66.52 66.67 66.95 67.11 67.17 67.50 67.59 67.68 67.82 67.88 68.19 68.20 67.87
77.92 77.59 76.06 76.51 70.79 70.61 70.61 69.89 69.14 68.33 65.78 67.57 69.57 73.23 74.28 72.27 71.33 71.73 71.43 72.63 70.34 66.28 66.68 66.23 65.51 65.67 65.79 66.16 66.50 66.39 66.21 65.90 65.48 65.29 65.18 65.63 66.14 66.21
76.97 77.06 75.47 73.24 75.22 75.60 71.01 74.88 71.54 73.28 67.93 71.95 72.37 70.26 72.44 74.06 74.27 74.63 71.46 70.33 71.54 67.02 67.56 66.14 65.13 64.72 64.92 65.50 65.50 64.95 64.06 63.14 62.28 61.72 62.25 62.49 63.10 63.87
78.07 77.43 76.19 75.70 75.15 71.46 72.18 71.80 70.25 71.03 71.21 68.31 68.00 69.63 70.21 71.19 72.50 73.47 73.92 73.00 71.25 67.82 65.79 64.90 64.33 64.48 64.24 63.51 62.73 61.92 59.56 58.26 58.46 59.26 59.97 60.55 61.53 62.32
78.67 78.51 77.69 76.42 75.27 74.91 73.93 73.48 73.52 71.08 70.62 68.82 67.72 67.54 68.84 72.36 70.71 68.89 69.44 70.45 69.57 69.71 68.94 67.04 66.11 64.81 64.17 62.61 62.44 61.68 59.11 57.88 57.52 58.09 58.28 58.96 59.67 60.16
78.88 79.12 78.72 76.58 71.93 73.03 72.28 73.07 72.62 71.02 67.56 67.60 67.41 67.40 67.07 68.62 69.04 69.04 67.40 69.59 69.11 70.11 70.28 69.89 68.71 66.62 66.27 63.65 65.64 64.04 61.96 60.52 59.42 58.19 57.60 57.19 57.05 57.64
78.71 79.32 79.34 73.28 71.07 67.62 67.09 67.94 71.63 72.82 70.80 67.77 67.14 67.52 72.48 71.05 69.64 68.34 68.50 66.78 66.08 69.91 69.33 67.99 69.81 69.25 68.72 68.31 64.19 64.98 62.72 59.43 58.53 58.00 57.22 56.50 56.37 56.02
79.39 79.13 78.33 76.82 73.64 74.59 67.05 65.85 65.28 66.33 68.33 73.11 70.96 71.40 72.61 73.46 73.52 70.59 71.85 69.12 66.81 70.11 71.30 65.83 68.22 66.42 66.82 63.17 61.76 62.05 59.97 58.28 57.69 57.12 56.49 55.90 55.18 54.30
79.22 79.33 79.11 77.84 76.66 75.74 74.63 72.03 71.84 71.59 71.73 70.47 72.64 73.43 74.09 74.77 73.50 72.52 72.55 71.41 69.62 68.90 70.98 64.06 66.76 64.86 65.26 65.36 61.39 60.49 58.79 56.32 56.17 55.78 55.08 54.00 52.39 51.44
79.24 79.52 79.06 78.74 71.54 66.23 75.29 74.32 72.69 71.67 66.33 64.33 64.87 64.54 64.09 65.66 69.31 71.68 67.16 65.98 64.39 65.67 69.56 65.40 64.72 62.62 62.85 62.92 62.97 58.87 57.45 54.83 54.44 55.30 55.25 54.01 52.03 50.98
77.84 79.22 68.09 76.14 64.55 62.48 74.50 74.64 72.97 71.73 71.32 69.37 66.66 64.60 65.07 65.46 62.05 71.95 68.64 65.68 64.57 64.20 66.62 63.26 63.00 61.31 58.22 62.29 61.69 60.52 59.97 54.67 53.20 52.77 53.29 53.21 51.62 56.84
76.39 76.70 78.10 64.28 59.86 58.84 65.18 74.69 72.55 72.52 69.28 71.30 68.50 69.45 69.72 70.09 69.02 68.11 69.53 67.60 64.83 63.25 63.46 64.50 61.54 60.17 58.69 57.70 59.52 60.03 58.89 58.99 59.00 58.45 51.17 50.90 51.07 54.01
76.32 76.79 76.74 60.08 56.46 56.99 62.00 64.61 59.75 66.45 73.13 70.36 68.13 67.56 67.61 68.15 68.79 68.58 69.00 69.26 67.72 66.04 64.17 65.09 60.77 58.78 57.62 55.95 54.42 57.64 58.39 59.83 59.66 59.16 59.86 55.86 50.37 50.79
77.11 72.88 66.55 56.32 56.08 57.43 59.26 58.70 59.87 71.86 71.37 68.05 67.87 67.73 67.82 67.85 69.88 67.60 68.29 67.96 66.85 65.51 63.67 64.28 61.00 62.15 57.73 54.79 53.14 54.28 54.53 56.58 59.04 59.01 58.96 58.79 58.51 59.12
69.69 72.98 64.48 63.64 63.89 68.13 61.92 62.33 70.39 71.85 70.17 67.85 68.21 69.07 68.91 65.67 63.33 64.68 63.04 62.63 61.11 61.00 65.09 65.25 64.03 61.52 55.71 54.99 54.64 54.06 55.30 53.23 56.99 58.26 58.53 58.10 58.75 58.75
69.27 69.98 66.90 66.01 65.76 64.59 65.68 66.04 68.18 68.99 68.22 68.55 68.16 67.99 65.95 62.27 63.08 64.98 63.40 62.02 59.91 59.62 59.93 60.76 63.10 62.49 58.81 60.44 53.63 54.73 55.18 55.35 56.79 57.69 57.53 55.41 56.98 57.85
68.14 66.96 65.76 65.47 64.53 63.98 64.39 65.07 67.12 66.61 67.33 67.47 66.66 65.70 63.43 62.28 63.68 63.82 63.50 61.77 60.39 59.45 59.10 59.33 59.13 56.64 55.98 58.82 58.45 55.30 55.41 54.91 56.36 57.40 58.00 54.49 53.91 56.58
69.06 67.24 66.74 66.02 65.52 64.64 64.94 65.84 65.41 65.66 67.04 67.06 65.91 67.21 64.39 64.75 63.02 63.03 62.55 61.62 60.11 59.07 58.79 59.08 56.86 54.32 51.65 50.71 57.23 55.51 54.67 54.37 54.64 55.39 55.24 53.77 52.97 54.35
69.44 68.50 66.97 66.02 65.44 64.87 65.82 66.23 65.44 65.41 65.89 67.03 67.70 67.24 64.90 64.59 63.13 62.11 61.94 61.14 59.25 58.43 57.81 57.22 55.58 54.54 53.12 52.67 53.07 54.65 49.63 55.56 54.68 53.64 53.38 54.60 54.54 52.23
67.06 68.70 66.77 66.34 65.75 65.60 66.16 65.87 64.44 66.10 66.12 65.95 66.09 66.24 65.61 64.16 62.58 62.41 61.06 54.72 56.92 58.08 55.81 55.09 56.40 54.46 57.62 56.69 51.27 52.57 57.36 49.21 54.46 56.04 55.00 51.15 50.75 50.71
64.09 65.43 66.85 66.59 65.69 65.33 65.06 65.22 65.21 66.41 65.60 65.70 65.37 66.06 64.61 63.62 62.24 61.62 60.17 58.49 57.16 56.42 55.79 55.98 57.73 56.52 55.04 52.73 51.83 55.11 54.11 55.94 51.68 50.89 51.12 51.73 49.99 45.48
64.20 64.43 64.32 65.06 65.13 65.54 65.49 65.61 65.58 65.39 65.46 65.34 64.87 63.94 63.08 62.29 62.75 61.59 59.64 58.66 57.22 55.34 54.55 53.55 54.44 55.28 54.06 53.51 52.63 52.62 56.16 55.91 54.18 53.64 54.49 52.14 51.99 51.09

GFSNE_sfc_wetblb_030.txt.gz
Wetbulb
75.96 76.27 74.01 72.10 72.85 72.41 71.82 70.53 68.13 64.84 65.11 68.88 67.65 70.07 71.54 69.61 70.21 69.21 68.85 68.56 68.36 68.04 67.22 66.72 67.05 67.36 67.63 68.03 68.12 67.95 67.91 67.98 68.38 68.58 68.46 68.93 68.64 68.91
75.78 74.99 74.17 71.11 71.45 72.72 71.82 71.14 70.22 67.57 64.84 67.72 68.97 69.02 69.62 71.05 70.32 70.74 70.56 69.34 68.71 68.30 67.20 66.36 66.33 66.71 67.07 67.11 67.19 67.33 67.31 67.69 67.70 67.57 67.37 67.48 67.74 67.62
76.36 75.73 73.87 72.97 71.89 71.87 71.35 71.34 70.08 69.50 65.70 67.60 70.65 71.38 70.56 69.28 68.95 69.91 70.13 69.09 67.97 66.63 66.61 66.38 65.76 66.10 65.99 66.20 66.19 66.35 66.62 65.99 65.47 65.20 65.13 64.90 65.40 65.49
75.91 75.72 74.31 73.28 73.25 73.57 73.37 70.50 70.33 70.81 68.38 68.00 70.10 70.11 69.99 71.04 71.89 71.54 70.16 69.36 69.74 67.99 66.27 65.92 65.42 64.97 65.06 65.15 65.34 65.34 64.84 63.60 62.62 61.65 61.71 62.60 62.94 63.40
76.62 75.57 74.78 73.68 72.62 70.99 71.56 72.00 70.82 71.78 72.23 68.33 68.34 70.80 70.60 71.27 70.52 71.29 71.69 70.88 71.02 67.98 64.87 64.81 64.45 64.32 63.69 63.19 63.14 62.07 60.74 59.62 59.24 59.31 59.87 60.47 61.50 62.08
77.26 76.68 75.81 74.03 73.12 72.75 71.61 70.01 71.83 69.28 69.38 69.51 67.81 67.34 69.92 70.26 70.14 67.97 68.60 69.94 69.26 69.91 67.37 66.22 65.17 64.68 63.76 62.21 62.14 61.52 59.56 58.18 57.14 57.50 58.22 58.52 59.27 60.12
76.74 77.32 76.72 75.32 71.98 72.33 71.43 71.71 69.33 71.23 69.14 67.11 66.72 67.57 67.24 68.30 67.44 68.28 67.81 67.94 69.08 69.16 67.04 66.21 65.65 64.69 64.36 63.41 64.68 64.09 61.92 61.03 58.75 58.13 57.33 56.72 56.59 57.18
76.45 76.57 77.10 73.57 72.03 68.77 68.27 68.74 70.56 68.64 67.93 66.63 66.37 65.66 66.49 68.33 69.06 67.47 67.00 66.02 64.00 70.29 67.69 66.77 68.36 67.31 64.92 65.51 65.13 64.88 62.57 61.26 59.18 58.02 57.06 56.33 56.04 56.17
76.76 76.87 76.65 76.75 73.37 73.49 67.67 67.02 66.58 66.78 67.87 68.59 66.69 67.31 68.57 69.92 69.63 69.49 68.51 67.85 66.15 68.41 66.97 64.58 67.05 65.98 65.60 62.71 62.21 61.78 62.60 60.27 57.87 56.82 55.80 54.57 53.97 53.85
76.94 77.07 76.74 76.39 75.96 74.48 72.59 70.31 70.10 69.41 68.33 69.92 70.18 69.61 71.81 72.85 72.48 71.36 69.64 69.26 68.85 68.51 68.38 62.84 66.07 65.07 64.76 61.20 60.72 61.01 59.18 59.71 57.50 55.35 54.34 53.54 52.35 51.29
76.96 77.26 77.22 76.71 71.91 66.27 73.22 70.75 70.04 70.04 66.19 64.31 65.14 66.49 65.48 65.15 69.91 69.70 67.81 66.25 64.56 65.04 67.47 65.05 64.87 63.92 61.79 61.85 59.76 59.06 57.50 56.95 55.69 55.03 54.94 54.35 52.48 50.93
75.84 76.69 68.44 74.88 67.22 61.98 73.15 72.80 70.67 70.21 70.02 68.53 67.52 64.55 64.62 65.98 64.35 70.00 68.18 64.89 64.38 63.54 66.33 64.39 63.66 61.24 57.19 60.74 60.52 56.09 55.15 54.43 52.84 52.70 53.18 53.61 52.86 51.02
74.83 75.05 76.00 63.93 62.35 58.81 65.03 73.77 71.89 71.96 68.77 69.58 67.90 67.38 67.32 67.56 66.93 68.86 70.00 67.52 65.12 64.26 64.06 64.34 61.20 59.69 57.92 56.34 58.06 59.36 57.79 57.08 54.05 53.70 51.05 50.38 51.15 51.81
75.47 75.57 75.10 62.37 59.04 57.30 61.27 66.57 60.96 66.33 72.08 69.57 67.33 66.11 66.42 66.61 67.96 67.92 67.80 68.23 67.52 65.20 61.29 63.05 60.36 58.45 56.43 54.84 53.72 55.81 56.63 56.86 56.39 54.81 56.08 55.57 50.05 50.18
76.83 73.21 59.54 56.59 56.80 58.38 58.79 61.41 60.92 71.41 71.94 69.40 68.08 66.60 67.19 67.76 68.13 67.36 66.40 67.54 65.33 64.32 64.07 63.39 60.25 59.01 56.76 54.37 52.84 52.27 51.89 54.10 55.72 55.05 55.34 55.03 54.22 55.11
68.60 72.16 70.33 67.10 61.15 65.27 63.60 62.55 70.98 72.66 71.87 69.56 68.42 68.39 68.48 67.58 66.76 66.40 63.91 62.73 61.91 61.44 63.46 63.05 61.38 59.21 55.55 54.73 53.56 52.13 53.66 51.72 53.36 54.63 54.96 53.44 53.93 55.11
70.87 74.85 73.99 72.50 73.07 68.56 69.68 68.32 70.39 72.26 71.05 70.20 68.43 67.53 66.60 66.28 64.67 63.99 62.26 61.25 59.00 58.52 58.90 60.82 61.29 59.95 57.70 54.85 52.66 52.96 52.46 53.27 55.13 55.40 53.00 51.71 52.51 53.91
67.80 72.17 72.49 72.39 69.66 70.25 69.59 68.23 69.40 69.58 70.51 69.49 68.05 67.07 65.04 63.33 61.47 61.06 61.71 60.33 58.93 58.33 58.53 58.89 58.16 56.71 55.26 56.09 57.39 52.28 53.52 54.03 54.84 53.93 53.51 51.12 50.84 52.11
71.56 70.83 71.40 72.05 70.70 69.71 69.41 68.66 68.30 69.50 70.01 68.28 66.75 65.85 64.14 63.20 60.99 60.32 60.43 60.33 59.03 58.58 58.63 59.02 57.04 54.50 51.75 50.04 54.49 55.66 52.99 54.07 51.86 51.60 53.19 51.86 49.58 49.98
67.28 70.20 70.54 70.77 70.35 69.22 68.84 68.64 68.98 68.48 67.89 67.04 65.26 64.74 64.10 62.75 61.37 60.78 60.47 59.37 58.59 58.03 57.69 57.97 56.30 54.67 51.05 49.99 51.59 54.54 51.10 52.52 51.95 52.00 51.86 52.00 51.93 53.19
62.41 63.37 64.34 65.43 67.27 69.25 69.18 68.59 68.44 67.81 67.38 66.23 64.93 63.93 63.98 62.82 61.43 61.27 60.35 56.46 56.95 57.46 55.88 55.48 55.44 56.48 56.07 54.94 50.66 49.94 52.09 49.38 53.07 53.65 52.11 50.35 47.66 47.20
64.27 64.75 64.95 65.26 65.13 65.29 66.66 67.71 67.56 67.04 66.61 65.73 64.20 64.22 64.35 63.52 61.54 60.56 59.90 58.01 57.83 57.44 56.02 56.25 54.20 54.61 53.91 52.24 50.37 50.08 52.81 55.12 50.56 51.73 53.11 52.80 48.28 42.92
66.24 66.19 64.30 63.69 63.99 64.40 64.37 64.44 64.66 64.48 64.54 64.43 64.36 64.65 63.71 62.04 61.36 60.42 59.59 58.12 56.04 55.53 55.28 54.01 53.19 53.99 52.67 52.11 51.04 50.92 52.40 52.01 52.13 52.44 50.57 52.52 51.97 51.69

GFSNE_sfc_wetblb_033.txt.gz
Wetbulb
71.59 71.74 68.95 67.58 67.45 66.92 65.58 64.86 62.13 58.91 60.76 63.16 63.40 65.77 65.98 66.83 66.84 65.99 64.02 67.06 66.61 65.97 65.26 65.35 65.95 66.70 66.98 67.26 67.49 67.58 67.72 67.67 67.65 67.88 67.95 67.80 67.58 67.77
72.82 71.73 70.72 68.74 66.99 66.90 66.32 64.66 64.25 61.61 58.67 64.06 63.88 65.05 67.02 67.03 68.09 65.55 65.43 67.06 67.23 66.61 66.00 65.55 65.77 66.41 66.76 66.88 67.05 66.78 66.85 66.87 67.17 67.08 66.67 66.40 66.27 65.89
72.80 72.24 70.91 69.58 66.44 66.33 66.08 66.09 63.83 63.34 59.75 61.34 64.41 64.76 64.93 65.90 66.31 66.42 67.96 66.85 65.52 66.05 66.09 65.77 65.46 65.62 66.22 66.37 66.19 66.12 66.16 66.23 66.09 65.54 65.09 64.47 64.34 64.41
73.29 71.96 71.65 71.63 67.77 67.63 68.35 64.61 64.47 64.71 61.77 59.52 65.13 66.22 64.50 64.26 64.67 64.29 66.82 67.91 65.96 66.37 65.35 65.08 64.59 64.08 64.48 64.74 64.57 64.85 65.32 64.39 63.81 63.16 62.36 62.21 62.71 63.08
73.97 73.38 72.57 71.09 68.95 68.71 67.78 67.18 65.19 65.23 65.20 62.41 63.97 65.28 65.44 66.42 66.19 66.27 66.16 65.81 67.08 68.47 65.24 64.23 64.21 63.33 63.09 62.34 61.89 61.58 61.64 60.50 60.13 59.47 59.32 60.12 61.14 61.80
74.29 74.61 73.79 72.08 70.82 69.69 68.18 66.97 66.78 65.60 65.42 63.39 62.47 63.04 65.44 66.46 65.74 65.59 65.13 67.44 66.90 68.64 66.85 65.24 64.71 64.46 63.64 61.87 61.36 61.12 59.29 57.86 57.30 56.57 57.08 57.90 58.60 59.19
73.68 74.81 74.73 73.77 71.15 70.52 70.30 67.83 66.15 66.21 65.00 64.57 62.97 62.33 62.02 64.84 65.87 65.40 64.48 65.47 66.35 66.46 63.36 62.66 62.54 62.54 63.39 63.48 63.73 63.88 60.64 59.65 58.39 56.40 56.15 55.89 55.95 56.47
74.31 73.90 75.20 72.61 71.16 68.06 67.84 68.03 68.35 65.66 66.41 65.15 64.41 63.90 64.23 62.95 65.25 66.10 65.67 63.54 62.33 65.94 65.00 63.97 63.08 62.00 63.00 62.48 63.52 62.93 60.92 62.04 58.77 57.24 56.44 55.62 55.24 54.95
74.83 74.77 74.34 75.54 72.18 73.21 67.57 66.82 66.81 65.96 65.89 67.33 65.12 64.46 64.31 65.42 65.89 65.16 65.40 64.20 61.87 63.71 64.01 62.50 64.65 63.18 64.55 64.81 62.57 61.52 60.44 60.76 58.81 57.34 56.25 54.76 53.53 53.04
75.34 75.26 74.96 74.57 74.39 73.59 72.84 70.06 69.98 68.77 68.06 67.22 67.21 66.53 66.37 66.55 67.43 67.21 66.22 65.08 65.03 65.32 63.95 60.00 63.58 62.65 61.91 60.01 60.94 60.88 59.64 58.06 57.42 56.06 54.63 53.04 51.42 50.61
75.32 75.39 75.55 75.20 71.01 65.58 73.34 71.85 70.14 70.23 65.90 63.37 64.35 63.93 64.22 65.16 67.89 68.18 65.47 63.86 61.54 63.14 64.63 62.00 62.75 62.43 60.05 58.10 59.00 59.76 58.00 56.41 55.48 54.49 53.92 52.77 50.80 50.14
75.04 75.12 67.69 72.57 66.34 62.36 72.27 72.67 70.69 70.12 69.74 68.83 65.96 63.66 64.17 65.06 64.70 68.69 66.98 64.25 62.09 61.86 64.57 62.17 62.33 61.04 55.91 58.04 57.27 56.88 55.57 54.40 53.43 52.67 52.60 52.66 51.56 48.89
74.39 74.26 74.67 63.90 60.96 59.72 61.37 73.99 72.00 71.97 69.05 69.35 68.78 68.06 66.97 67.16 66.73 68.22 68.08 67.01 63.78 62.13 64.20 65.39 61.86 58.19 54.44 53.84 54.85 53.37 52.60 51.51 50.86 50.05 50.12 49.45 49.96 50.33
75.37 75.77 74.86 61.88 58.92 58.99 59.88 65.14 62.29 64.00 71.98 69.66 69.03 67.40 66.78 65.83 66.88 68.13 68.41 67.72 67.45 65.89 63.20 63.36 58.75 56.82 54.27 51.33 50.89 51.47 51.89 52.19 51.63 50.56 51.05 51.25 49.94 49.11
76.51 73.16 65.27 59.43 56.21 58.70 58.88 61.25 60.38 69.94 72.33 70.93 69.20 68.91 67.82 67.51 67.26 66.30 67.48 67.44 64.83 63.37 60.97 60.91 58.68 56.51 53.94 51.16 50.10 48.91 47.33 48.40 49.92 50.05 50.27 50.64 49.77 50.59
67.17 71.52 69.51 66.38 65.18 66.21 64.12 61.75 66.27 71.83 72.69 72.45 71.46 70.90 69.49 66.85 65.66 66.30 65.32 65.79 63.64 60.67 61.40 61.22 59.15 56.72 52.68 51.78 50.66 47.30 47.85 46.72 48.00 47.75 49.97 48.52 49.18 50.03
66.49 71.53 72.55 73.55 72.68 73.26 69.50 69.28 66.42 67.91 70.85 72.31 72.51 71.21 68.56 66.42 65.72 66.47 65.77 64.66 63.09 60.29 59.43 60.23 58.86 56.39 53.34 51.88 48.91 48.48 47.48 47.34 47.94 48.18 47.78 46.55 47.13 48.75
62.38 69.08 69.98 71.67 72.80 73.06 72.99 72.96 70.77 67.30 68.89 70.78 71.26 71.02 68.06 66.46 66.04 65.81 65.16 63.31 61.98 60.44 59.66 59.20 56.95 54.07 52.57 52.46 53.46 47.07 46.79 47.16 48.47 50.38 48.01 45.51 46.31 47.65
64.24 67.77 67.88 68.99 71.39 72.52 72.49 72.15 71.98 70.95 70.24 69.60 70.88 70.88 68.67 67.66 65.31 64.40 63.07 62.01 60.49 59.58 59.56 58.28 56.71 53.92 49.06 47.33 49.44 54.18 48.55 48.30 48.34 46.53 46.68 47.35 45.30 46.21
60.29 61.01 61.76 62.53 63.14 63.86 64.59 65.11 66.23 69.08 70.34 70.12 70.02 70.60 69.44 67.07 65.10 62.95 61.69 61.19 60.82 59.13 57.44 57.41 56.02 54.43 51.93 49.78 47.18 49.70 50.21 48.88 46.08 44.87 46.49 47.04 47.23 50.91
60.03 58.96 59.77 60.85 61.55 62.07 63.14 64.11 64.45 64.53 64.90 66.61 67.50 69.23 69.51 66.35 63.61 63.01 62.15 58.20 57.61 58.22 56.02 55.78 56.67 56.27 52.56 49.51 46.12 44.76 48.25 49.59 49.07 46.47 46.63 45.67 43.65 42.88
61.13 61.39 61.51 61.89 63.10 62.65 61.87 61.91 63.12 63.29 63.17 64.97 65.83 65.34 64.03 62.57 61.55 61.17 60.26 58.96 58.13 58.08 56.27 54.61 55.02 54.01 50.16 47.14 45.17 44.80 44.85 48.55 49.81 51.37 51.73 50.51 44.31 39.69
60.53 60.86 61.63 61.73 61.57 61.01 60.75 61.17 62.23 61.50 61.45 60.83 61.01 62.30 62.27 61.53 61.66 61.19 59.98 58.95 58.42 56.01 53.65 50.03 49.67 48.87 48.27 47.67 47.53 45.71 45.22 46.78 46.63 45.18 46.48 51.35 51.60 50.83

GFSNE_sfc_wetblb_036.txt.gz
Wetbulb
69.94 70.28 67.22 65.96 66.17 66.05 63.56 62.97 60.82 57.98 58.42 61.63 61.80 64.00 64.99 64.99 64.73 66.34 63.39 66.65 66.58 65.87 64.81 64.59 65.03 65.97 66.80 66.95 67.23 67.43 67.48 67.62 67.67 67.40 67.53 67.49 66.85 66.48
71.20 69.79 69.37 68.46 66.46 65.51 65.21 62.75 62.16 59.86 57.57 61.34 62.87 63.67 64.66 66.88 66.29 65.57 63.23 66.14 66.56 65.68 64.69 63.99 64.50 65.34 66.11 66.62 66.88 66.85 66.78 66.88 66.71 66.87 66.78 66.27 65.59 64.84
72.30 70.86 69.58 68.88 67.65 65.41 64.79 64.31 62.33 60.98 58.69 59.34 62.84 63.40 63.96 64.26 64.48 65.31 63.85 63.14 63.29 65.39 64.87 64.46 64.05 64.67 65.51 65.81 65.71 65.73 65.79 65.68 65.81 66.05 65.61 65.29 63.97 63.74
72.68 71.74 71.05 71.03 68.11 66.14 64.73 64.13 63.58 62.20 59.99 58.47 59.63 64.05 63.09 63.91 63.92 65.14 64.66 65.97 65.24 65.56 64.47 64.16 63.66 63.46 63.72 63.75 63.59 63.77 63.18 63.36 64.01 63.99 63.73 62.76 62.54 62.78
72.98 72.51 72.14 70.92 70.23 68.55 65.33 65.71 63.90 63.24 61.89 59.27 59.45 63.51 62.74 63.81 62.41 63.24 63.28 64.66 65.73 67.01 64.55 63.68 63.46 63.17 62.51 61.90 61.47 60.76 59.55 60.11 60.45 60.50 60.44 60.22 61.09 61.93
73.39 73.45 72.99 72.07 71.36 70.08 67.60 65.91 65.33 64.30 62.83 61.87 60.26 62.45 62.93 63.96 63.33 62.78 62.56 64.53 64.38 66.75 67.35 65.81 64.93 64.45 63.64 61.58 61.28 60.71 58.58 57.68 57.15 57.20 56.71 57.64 58.73 59.57
73.31 73.80 73.85 73.21 71.26 70.69 70.40 68.46 65.37 65.08 63.26 63.26 60.99 60.44 61.94 63.01 63.36 63.39 62.96 64.05 65.50 65.69 64.82 63.59 62.86 62.69 63.30 63.31 64.11 63.75 60.22 58.68 56.84 55.93 54.88 54.95 55.42 56.22
73.21 73.12 73.58 72.10 71.01 68.08 67.24 68.02 68.42 66.87 65.02 64.57 64.21 62.69 63.55 62.48 63.89 64.75 64.11 61.33 61.19 65.07 65.37 65.24 62.46 61.69 63.45 63.38 63.46 62.41 60.73 59.33 57.95 56.57 55.04 54.70 54.81 54.68
73.71 73.56 73.66 74.04 71.53 73.24 67.52 66.13 66.28 65.30 66.77 66.56 65.32 64.82 64.37 64.81 64.32 63.77 64.98 64.21 64.24 64.26 65.41 64.64 63.37 63.87 64.69 64.07 61.74 61.31 60.27 58.91 58.48 56.93 56.01 55.12 53.87 52.43
74.37 74.20 73.88 73.76 73.63 73.00 73.48 70.09 69.52 70.11 67.40 67.00 67.04 66.94 66.95 66.92 65.81 65.55 65.82 65.68 64.24 63.57 64.85 62.77 62.76 64.00 63.48 63.70 61.29 61.16 59.55 58.53 57.65 56.31 55.36 53.87 51.60 50.12
74.99 74.78 74.74 74.37 69.75 64.89 72.64 72.43 71.16 70.43 68.16 63.48 64.38 63.42 61.90 61.39 64.06 65.32 64.31 63.42 63.07 63.60 64.14 64.12 60.93 61.77 61.19 60.84 60.90 60.29 58.44 57.23 56.08 55.82 55.55 53.48 50.51 49.04
74.66 75.23 67.41 71.69 65.40 62.59 70.87 72.70 71.77 72.34 71.44 71.28 67.76 64.97 62.26 63.18 61.52 66.77 66.62 63.85 63.47 61.16 63.88 62.79 60.67 60.47 57.69 58.78 59.00 60.30 59.04 55.79 54.39 53.99 53.92 52.56 49.85 47.22
74.30 74.32 75.06 63.28 60.89 59.60 61.19 73.91 72.96 73.37 72.00 71.54 71.28 69.79 68.95 68.13 66.35 67.62 68.63 66.86 64.49 63.92 63.99 64.77 61.91 58.99 58.65 55.43 56.53 57.27 57.52 53.71 53.68 52.54 50.82 49.73 49.08 49.39
75.08 75.79 75.11 62.40 58.52 58.07 60.02 63.89 62.23 63.69 73.37 73.42 71.16 70.23 70.12 68.62 68.38 68.39 68.56 68.57 68.74 67.35 65.30 66.36 62.92 61.00 59.78 52.38 53.15 53.85 54.18 52.27 51.27 50.76 49.70 48.94 48.59 48.76
76.14 72.69 64.65 59.70 56.75 58.56 57.82 60.23 59.74 69.23 71.91 72.55 72.53 71.74 70.88 71.23 70.31 68.71 68.58 68.59 68.31 67.67 65.92 66.43 63.23 63.63 61.56 56.03 52.86 51.42 50.78 50.73 51.42 49.70 48.50 49.29 49.74 47.80
63.94 68.94 67.54 63.96 60.69 64.99 64.97 63.41 64.44 68.22 70.47 71.30 72.23 73.66 73.44 71.69 70.00 68.88 67.03 67.00 66.16 65.79 65.24 65.34 64.16 59.37 56.01 55.87 55.42 50.07 48.39 47.33 48.11 47.89 48.53 48.27 47.18 47.61
63.94 69.28 69.10 69.80 71.34 72.58 73.38 73.17 71.69 68.51 67.16 68.83 70.32 71.51 72.41 72.55 70.19 69.05 67.19 66.51 65.46 64.91 62.69 61.36 60.29 60.45 59.54 54.16 52.05 52.29 48.31 46.90 47.86 46.18 46.80 45.89 46.31 46.68
60.77 64.49 66.07 67.38 68.88 70.03 71.79 72.35 72.44 70.11 70.19 69.80 69.76 70.32 70.56 71.01 71.13 68.69 67.14 65.74 64.97 65.32 63.40 60.56 58.44 56.14 54.47 54.02 56.14 52.34 48.18 46.56 46.36 47.78 45.60 44.79 44.16 47.34
61.26 60.26 60.68 62.39 62.87 62.74 63.64 63.14 62.76 63.82 64.87 65.20 66.29 67.84 68.98 69.77 68.49 68.46 66.89 65.74 65.09 65.46 64.48 60.04 58.37 59.23 54.56 51.85 51.54 52.01 48.42 47.20 47.36 47.34 46.23 45.57 45.26 45.79
57.57 57.43 57.65 58.20 58.70 59.26 59.26 59.56 60.89 62.23 62.71 63.23 63.64 64.31 65.05 65.86 65.18 65.15 65.60 66.67 65.51 65.11 63.56 60.46 60.35 58.67 55.65 52.56 48.16 50.42 49.01 47.88 47.08 45.91 45.47 45.86 46.05 50.45
57.79 58.92 58.84 60.50 60.72 60.74 60.02 60.35 60.31 60.08 59.42 61.40 62.91 64.60 63.35 61.52 60.58 60.73 62.59 59.01 60.89 64.33 61.25 58.48 58.34 56.15 53.39 52.94 48.47 46.61 49.55 48.76 49.37 47.14 45.14 45.39 43.44 42.58
58.33 58.85 59.70 60.18 59.92 59.74 59.78 59.24 59.36 58.82 58.41 58.27 58.41 58.85 60.44 59.18 59.60 60.02 59.76 58.81 58.09 57.31 56.85 56.71 55.74 54.22 51.70 49.80 45.74 45.01 46.05 48.47 49.45 50.68 50.96 49.65 44.62 41.48
61.17 62.32 61.68 59.96 60.31 60.53 60.23 60.41 59.58 59.66 58.33 58.51 57.77 58.09 59.64 60.73 60.22 59.46 59.19 58.61 56.75 55.62 55.32 55.24 54.52 52.66 49.29 48.50 46.74 44.98 44.57 46.26 47.35 47.38 47.40 51.44 51.27 51.17

GFSNE_sfc_wetblb_039.txt.gz
Wetbulb
68.92 69.21 66.16 65.08 65.45 65.11 62.13 61.87 59.70 56.76 57.42 60.96 60.66 62.77 63.86 64.50 65.21 65.36 64.67 65.87 66.69 65.90 64.66 64.36 65.19 66.27 66.98 67.48 67.44 67.23 67.48 67.59 67.82 67.62 67.21 67.50 66.76 66.01
70.70 68.76 68.74 67.48 65.22 64.85 64.70 62.35 60.67 59.55 57.53 60.00 61.60 62.27 63.07 65.27 65.43 64.94 64.83 65.86 66.62 65.77 64.83 64.18 64.50 65.11 65.69 66.11 66.49 66.60 66.57 66.70 66.79 66.66 66.69 66.43 65.95 64.19
71.19 70.11 68.80 68.26 67.68 65.37 63.98 63.51 61.71 59.73 57.96 59.03 60.80 62.26 62.63 62.67 64.69 65.82 64.70 62.45 62.52 65.16 64.79 64.18 63.66 63.81 64.60 65.17 65.31 65.51 65.80 65.77 65.63 66.11 66.60 65.63 64.23 63.45
71.03 70.90 70.71 70.34 67.66 66.38 64.44 63.06 62.64 61.42 59.62 58.25 58.73 62.19 61.69 62.89 63.34 63.52 65.13 64.55 62.46 63.85 64.13 63.76 63.11 62.76 62.98 63.31 63.24 63.41 63.14 63.34 63.72 64.39 64.98 64.62 62.96 62.58
72.36 71.58 71.67 70.40 69.55 68.22 66.31 64.14 63.20 63.15 60.93 58.91 59.49 60.29 62.90 62.09 61.88 62.54 63.06 63.44 63.61 65.84 63.75 63.22 63.00 62.74 62.23 61.74 61.33 60.40 59.27 59.22 60.15 61.08 61.66 62.15 61.51 62.22
73.26 73.13 72.77 72.00 71.37 70.53 69.29 67.48 65.18 63.29 61.59 60.70 59.35 60.69 61.62 62.65 62.12 60.94 60.79 61.98 63.51 65.12 66.35 65.36 64.87 64.45 63.35 61.63 61.56 60.88 58.37 57.21 57.31 58.13 58.52 58.22 59.04 60.16
72.50 72.95 73.13 72.92 71.08 70.66 71.37 70.03 66.78 65.47 63.88 63.30 62.67 59.47 60.86 61.65 61.79 61.84 62.43 63.34 62.82 64.17 63.99 65.04 64.54 64.57 64.67 63.53 64.51 64.10 60.59 58.69 57.40 56.85 56.33 55.44 55.89 56.98
72.23 72.60 72.90 71.45 70.87 67.99 67.65 68.34 69.71 68.28 66.77 65.27 65.77 63.81 63.38 62.59 64.39 63.17 62.14 59.29 59.84 64.39 64.13 64.31 65.66 64.69 65.03 63.81 64.10 62.76 61.12 59.55 58.18 57.27 55.93 54.50 54.54 54.95
72.59 72.77 72.96 73.64 71.10 72.91 68.22 66.41 66.25 65.51 67.87 70.23 66.27 67.07 65.46 65.54 64.40 62.64 62.65 62.76 62.53 63.09 64.88 63.56 64.47 64.54 66.02 64.67 61.97 61.49 60.48 59.27 58.14 57.31 56.34 55.00 54.38 53.89
73.44 73.34 72.94 73.01 72.82 72.19 72.47 71.85 70.35 71.08 69.28 68.21 70.40 71.51 69.67 68.99 66.12 64.82 64.54 64.91 65.11 65.63 64.09 62.34 63.10 63.81 65.12 64.62 61.43 61.23 60.02 58.64 57.58 56.80 55.79 54.22 52.82 50.92
73.96 73.99 73.94 73.64 69.31 64.61 72.02 71.82 72.07 71.77 68.16 64.23 64.30 64.63 63.77 62.06 64.98 65.79 63.55 62.45 62.27 63.66 64.72 63.95 63.70 63.00 62.34 63.72 63.89 61.21 58.86 57.18 56.52 56.39 55.89 54.24 51.49 49.62
73.64 74.14 66.63 71.31 65.15 62.42 70.91 72.45 71.61 72.55 73.29 72.36 70.37 66.25 64.10 66.24 60.51 65.84 67.41 64.16 63.26 63.76 65.68 63.24 64.16 62.24 59.96 60.45 62.66 61.76 60.33 56.10 54.93 54.91 54.94 53.74 50.46 48.56
72.87 73.29 74.13 63.78 60.74 60.08 61.16 73.52 72.62 73.07 72.47 72.60 73.29 72.37 71.84 70.71 70.45 67.59 66.40 66.83 65.62 64.94 66.77 65.51 64.53 63.51 63.31 58.69 58.06 60.81 61.15 57.57 58.07 55.31 52.16 51.62 49.21 49.26
73.94 75.06 74.51 62.21 58.05 57.63 59.06 62.46 61.41 62.79 72.46 73.17 73.18 73.03 72.45 71.95 70.87 70.83 69.73 67.11 68.31 68.07 69.41 66.38 65.00 63.96 62.53 57.58 56.64 56.12 59.59 59.93 60.51 57.77 56.19 51.32 48.84 49.09
75.30 71.88 63.87 58.65 54.67 56.76 56.74 58.36 57.65 66.19 69.08 70.57 71.54 72.41 73.43 74.28 73.93 72.63 70.85 70.39 68.35 68.28 68.50 68.22 66.45 65.83 64.34 62.07 59.15 56.28 57.18 57.33 56.18 57.80 53.82 52.04 50.30 47.92
64.43 68.33 66.09 62.82 61.19 64.64 64.98 63.35 64.06 66.48 68.29 69.60 70.66 72.15 73.21 73.29 73.43 73.15 71.07 70.34 68.22 67.95 68.83 69.00 67.27 66.54 63.76 63.79 61.83 57.56 58.76 54.11 55.84 54.30 53.85 50.22 48.98 48.84
64.59 68.90 69.08 69.08 69.01 68.94 69.87 71.50 71.41 68.69 66.72 67.56 68.26 68.72 68.87 69.59 69.86 71.41 71.45 71.21 69.26 68.38 67.39 68.76 68.17 67.10 66.07 64.22 60.06 59.37 53.61 51.51 54.35 54.30 51.18 47.74 47.25 48.66
64.20 66.08 65.76 66.41 66.23 66.30 66.32 63.11 63.93 63.46 63.43 63.12 63.27 63.77 64.23 64.33 64.56 65.86 67.30 68.22 67.21 67.25 67.05 67.77 67.23 64.26 62.72 59.79 63.07 55.84 54.37 52.75 51.52 51.50 50.98 48.13 45.58 46.45
63.05 61.47 59.79 58.51 58.15 58.03 58.51 58.61 58.69 59.25 59.39 59.68 59.92 61.25 61.77 62.46 62.82 63.84 63.64 63.25 63.01 63.76 64.73 66.70 66.67 61.97 57.51 55.44 53.68 57.31 53.49 50.92 49.77 49.23 48.96 46.30 47.49 47.51
58.19 57.49 58.65 60.55 60.95 59.05 57.55 57.87 58.93 59.31 58.91 58.55 59.01 60.74 62.25 61.68 60.05 59.34 59.62 58.62 58.12 59.62 61.42 64.17 65.26 62.66 60.17 57.34 50.77 51.07 51.84 50.60 50.32 48.72 45.64 45.40 47.07 50.25
56.92 57.22 57.30 57.85 58.35 58.69 58.57 58.61 58.61 58.47 57.89 57.41 57.24 56.82 56.86 59.40 59.67 59.31 59.23 54.06 54.72 55.90 53.37 52.95 53.79 55.14 56.00 54.96 51.20 49.70 50.00 49.00 51.04 49.60 46.24 45.31 44.20 43.05
60.14 60.19 61.05 60.68 59.26 58.71 58.71 58.91 60.02 59.12 58.11 57.35 56.86 56.88 57.55 57.99 58.47 58.79 57.98 56.92 55.84 54.80 53.93 55.01 55.62 54.60 53.30 50.97 49.60 49.20 48.86 48.80 49.08 50.84 51.47 49.26 45.23 42.00
53.66 55.10 56.32 54.56 54.40 56.02 60.41 61.51 61.61 61.29 58.17 58.29 59.47 59.21 58.01 60.05 60.11 58.65 57.75 56.38 55.88 55.82 54.48 54.43 53.70 53.01 51.26 50.14 48.89 47.06 47.67 47.52 46.66 46.08 46.91 50.62 51.57 51.59

GFSNE_sfc_wetblb_042.txt.gz
Wetbulb
71.75 71.93 70.03 68.88 67.63 67.65 66.58 66.32 65.96 63.00 63.21 66.23 66.08 67.40 67.43 68.39 70.01 70.24 69.59 67.56 67.04 66.18 64.99 64.69 65.19 66.27 67.18 67.73 67.55 67.48 67.49 67.72 67.93 67.77 67.71 67.45 67.25 66.52
72.71 71.55 71.51 70.88 69.26 68.04 67.80 66.21 65.08 65.03 63.06 65.00 66.67 67.34 67.45 67.17 68.10 69.74 68.95 67.86 66.39 65.91 65.08 64.35 64.28 65.17 65.89 66.40 66.55 66.55 66.47 66.88 67.03 66.92 66.77 66.83 66.84 65.53
72.83 72.48 72.28 71.71 70.87 69.91 67.74 67.38 66.04 64.24 63.45 65.55 64.79 67.43 67.79 67.69 68.21 69.38 68.37 68.64 68.40 64.77 65.01 64.41 63.66 64.14 64.84 65.26 65.10 65.24 65.82 65.95 66.02 66.29 66.59 66.78 66.06 64.76
72.36 72.56 72.51 72.32 71.58 71.17 69.42 68.39 67.18 66.16 64.99 64.98 65.86 66.25 66.83 67.90 67.97 67.68 67.94 67.67 67.73 65.84 63.69 63.66 63.20 62.94 62.98 62.92 62.90 63.01 63.00 63.26 63.99 64.57 65.49 66.24 65.67 63.99
73.18 72.65 72.60 72.82 72.44 72.11 71.03 69.62 68.07 67.14 65.48 64.19 65.29 65.12 66.23 66.78 66.60 66.31 67.25 68.01 68.08 66.49 63.53 62.74 62.68 62.52 61.98 61.23 60.86 60.11 59.00 59.36 60.40 61.21 62.52 63.57 63.81 62.89
74.08 73.63 73.36 73.17 72.85 73.22 71.83 71.23 70.64 68.77 66.97 65.32 65.48 65.07 66.11 67.19 66.06 65.91 65.46 65.74 66.63 67.81 66.97 65.59 64.89 64.00 63.00 61.34 60.99 60.93 58.30 57.34 57.19 58.17 59.36 59.98 60.71 61.07
73.64 74.10 74.38 73.66 71.25 71.65 73.27 72.71 71.80 70.24 70.00 67.74 67.12 65.78 65.10 65.46 65.23 67.63 65.23 66.92 67.48 67.54 67.45 67.45 67.54 67.42 67.41 63.93 65.50 64.13 61.14 59.11 57.34 56.82 57.27 57.07 57.04 57.70
73.00 73.35 73.97 71.76 71.17 67.95 67.37 68.37 71.82 71.46 70.68 69.77 69.15 68.76 69.28 68.12 67.51 66.46 65.63 65.15 64.50 68.05 66.23 66.08 67.91 67.09 67.60 68.39 65.72 63.66 61.52 60.48 58.57 57.30 56.59 56.08 55.53 55.84
73.82 73.78 73.66 73.90 71.58 74.04 69.09 66.20 66.52 65.74 68.01 72.75 70.84 70.24 70.07 71.27 70.48 67.88 66.46 66.18 66.32 68.72 66.75 65.24 68.13 66.25 67.80 67.43 62.98 62.34 61.44 60.41 58.83 58.00 56.85 55.87 54.70 54.23
74.21 74.24 74.06 74.19 74.21 73.54 73.92 73.80 73.60 73.01 70.95 70.02 71.69 72.80 73.84 74.23 72.87 71.17 69.62 68.73 67.75 68.04 67.47 64.00 67.62 66.25 67.59 67.96 62.62 62.09 61.08 60.22 58.33 57.25 56.30 54.96 53.07 51.99
74.39 74.67 74.59 74.31 69.23 64.57 73.46 73.25 73.42 74.06 69.23 64.93 65.36 65.41 63.90 62.81 66.15 71.66 68.28 64.45 63.70 65.87 68.64 65.53 66.64 66.46 66.35 66.66 67.54 61.39 60.38 58.96 57.32 56.98 56.23 54.96 52.21 51.19
74.01 74.71 66.28 71.75 64.97 62.15 71.38 73.22 72.64 73.48 73.99 74.07 73.08 67.73 64.71 67.73 62.57 66.39 69.09 67.80 67.19 65.53 69.36 65.19 66.51 66.01 64.21 66.84 68.13 68.33 65.59 57.44 55.87 55.51 55.79 54.37 51.58 55.74
72.92 73.57 74.80 62.95 60.57 60.13 61.07 73.40 72.32 72.96 72.48 73.44 74.01 74.15 73.75 73.20 73.01 72.54 70.15 67.93 68.00 67.78 71.14 68.88 67.29 66.66 64.97 65.32 64.94 66.50 65.75 64.09 60.76 56.69 54.11 53.05 51.01 53.51
73.44 74.50 74.32 61.87 58.14 57.23 58.72 61.80 60.68 62.75 72.25 72.76 72.72 72.92 73.54 73.80 74.44 73.37 72.74 71.51 69.75 70.56 72.60 70.22 67.12 66.78 65.03 64.17 63.06 61.61 64.19 64.81 62.43 60.58 59.52 55.18 51.55 50.18
74.62 71.46 64.92 60.68 55.24 56.99 56.99 58.20 57.57 65.26 67.39 68.47 69.85 71.34 72.80 73.70 74.64 74.56 74.91 74.94 72.85 71.75 69.82 70.10 70.05 69.10 67.07 65.11 64.88 64.36 60.73 62.35 62.10 61.82 60.20 58.35 55.73 51.61
64.64 69.02 65.39 63.58 61.22 64.85 65.19 64.44 64.70 66.89 68.68 69.53 70.24 71.22 72.24 71.76 70.48 71.69 70.82 70.48 69.15 69.49 72.23 71.88 69.59 68.77 67.41 67.62 66.44 64.89 61.19 59.98 61.25 61.84 60.24 58.87 55.95 54.10
66.98 69.69 69.81 70.37 70.53 70.37 70.46 71.30 71.35 69.29 68.77 69.26 68.43 68.29 67.65 67.78 67.36 67.61 66.67 65.83 63.85 64.12 65.36 67.24 69.93 70.59 69.19 68.00 66.35 65.36 64.20 61.19 61.00 60.58 58.34 55.60 54.80 53.78
67.28 68.47 67.68 67.66 67.21 66.37 65.19 65.85 66.63 64.18 64.87 64.74 64.92 64.56 63.71 63.49 63.45 64.78 64.63 62.69 61.26 60.89 60.76 61.79 61.62 62.37 63.43 66.32 66.56 65.99 66.11 61.87 60.04 58.92 58.32 54.88 52.20 51.57
64.84 62.78 61.82 61.66 62.22 63.02 63.57 63.57 63.76 64.20 63.82 64.06 63.40 62.94 62.70 63.66 62.54 60.31 61.13 61.17 58.20 57.66 57.20 57.25 55.83 58.19 59.23 59.72 55.86 53.52 59.87 57.88 56.99 56.01 56.17 55.77 52.90 50.39
61.50 61.34 61.74 63.11 63.31 63.17 63.15 63.32 63.88 64.34 63.94 63.61 63.13 62.77 62.03 62.09 61.86 61.36 61.14 60.10 59.16 57.94 56.31 55.97 54.53 53.84 53.86 53.56 48.96 49.98 50.90 53.28 51.83 49.43 47.88 48.51 49.75 51.05
61.66 61.96 62.01 62.21 62.14 62.60 62.87 63.14 62.95 62.51 61.93 61.77 62.90 62.53 62.23 62.07 61.52 60.53 59.44 54.25 54.99 57.10 55.04 54.76 55.32 55.15 57.43 56.07 49.79 48.44 50.48 50.32 52.41 51.28 49.55 48.20 47.66 47.70
56.09 57.71 56.43 56.25 56.01 56.61 58.60 60.85 61.44 61.49 62.03 62.46 63.35 62.34 61.78 61.57 61.50 60.01 59.38 57.31 56.99 56.69 57.05 58.69 58.41 56.99 55.81 53.01 49.80 49.23 49.25 50.59 51.16 51.29 51.41 51.11 50.07 46.99
51.64 51.79 52.24 51.56 51.41 51.72 52.18 53.42 55.67 60.26 62.67 62.21 62.33 62.36 62.20 61.27 63.12 62.93 61.64 58.62 57.93 56.33 56.83 57.74 57.49 56.92 56.29 54.38 51.54 51.85 51.46 49.05 49.35 49.86 50.00 50.64 51.57 51.35

GFSNE_sfc_wetblb_045.txt.gz
Wetbulb
76.32 76.37 75.25 74.62 73.58 72.62 71.41 70.72 69.06 66.44 67.16 71.30 70.99 73.59 73.08 73.33 73.69 74.38 74.22 70.64 67.63 67.02 65.51 65.00 65.63 66.72 67.56 68.14 68.32 68.53 68.66 68.57 68.32 68.17 68.30 68.48 67.64 68.14
75.93 76.16 76.09 74.97 74.75 73.89 72.96 72.06 71.17 69.26 67.19 71.10 71.20 72.68 73.37 72.15 72.81 72.78 73.47 70.78 68.39 66.76 65.80 64.89 64.65 65.46 66.18 66.72 66.86 67.17 67.26 67.19 67.31 67.63 67.60 67.58 67.74 68.01
76.91 76.18 76.32 76.95 75.37 74.79 74.13 73.24 72.06 70.91 68.41 69.94 71.70 72.68 73.04 73.42 73.25 72.89 72.87 73.29 72.52 66.46 65.70 65.11 64.09 64.23 65.00 65.37 65.47 65.60 66.08 65.97 66.33 66.97 67.25 67.38 67.46 67.34
76.54 76.60 76.12 75.82 76.22 76.36 75.27 74.88 73.59 73.70 70.67 71.26 72.56 71.58 72.62 73.99 73.96 73.70 72.67 72.16 72.54 69.33 65.33 64.32 63.86 63.48 63.22 63.54 63.46 63.48 63.18 63.60 64.23 64.83 66.06 66.67 67.16 66.54
76.75 76.71 76.57 76.71 76.04 75.70 75.86 75.07 74.84 74.45 73.48 71.34 71.03 72.21 71.66 71.58 72.39 73.14 72.58 73.44 72.49 69.65 65.34 63.86 63.22 62.87 62.46 61.72 61.41 60.47 59.37 59.43 60.56 61.65 62.82 64.21 65.56 65.76
77.00 77.03 77.03 76.97 76.64 76.64 76.18 76.14 76.02 75.19 75.11 73.09 72.31 72.41 72.90 74.52 72.75 70.66 70.72 72.30 71.48 72.04 70.29 67.79 66.88 64.89 63.13 61.67 61.48 60.96 58.49 57.11 57.36 58.50 59.39 60.71 62.32 63.37
77.14 77.31 77.36 76.25 72.33 73.77 76.24 77.30 76.74 75.05 73.94 72.97 72.28 72.19 72.07 72.21 71.97 72.55 71.72 72.46 73.48 73.38 72.06 72.32 72.36 71.58 70.26 63.91 65.59 63.89 61.20 59.13 57.47 57.22 57.17 57.63 58.60 59.79
76.38 77.02 77.41 73.85 73.12 68.46 67.64 68.46 73.82 77.00 74.91 73.90 73.51 73.21 75.78 74.94 74.85 73.81 73.07 71.98 71.15 75.97 73.53 71.50 72.35 71.60 72.24 72.38 67.96 64.07 61.96 60.65 59.04 57.73 57.01 56.74 57.00 57.60
76.90 77.02 76.80 76.69 74.27 76.80 70.77 66.72 67.12 66.03 68.36 75.62 75.56 75.80 76.22 76.52 76.86 75.50 75.72 74.85 73.52 75.03 74.22 72.01 73.78 72.75 72.91 72.70 64.56 63.37 62.65 60.90 59.79 58.74 57.75 56.91 56.40 56.11
77.56 77.31 77.63 77.61 77.11 76.14 76.67 76.33 76.77 77.06 75.67 73.58 74.59 75.99 77.47 78.20 78.53 76.88 75.67 74.00 73.10 74.14 75.46 69.57 73.17 72.81 74.49 74.27 65.23 62.64 62.16 61.47 59.98 58.41 57.36 55.97 54.73 53.85
77.31 77.59 77.25 77.26 71.02 65.49 75.86 75.54 76.15 76.72 71.82 66.21 67.21 66.25 63.99 62.70 66.07 71.81 70.71 70.59 69.39 71.07 75.50 71.33 72.22 72.79 73.68 73.15 73.82 62.82 60.72 60.18 59.59 58.96 57.49 56.25 53.55 52.28
77.01 77.41 67.60 73.00 65.87 62.48 74.72 75.23 75.07 76.06 77.11 77.90 78.04 72.77 68.17 70.52 63.18 68.18 70.86 68.95 68.90 69.14 74.60 72.37 70.89 69.54 67.64 72.93 72.69 71.85 71.74 58.72 57.81 57.64 57.03 55.86 53.06 59.45
74.62 75.06 76.08 63.18 61.12 59.88 60.94 76.09 75.43 75.83 74.87 75.90 75.62 75.67 76.17 76.15 77.02 76.89 73.74 71.52 70.75 70.10 73.76 72.25 70.77 70.85 69.91 68.56 71.02 71.59 71.07 70.90 64.13 62.05 55.20 54.73 51.76 58.28
75.69 76.76 76.74 62.36 58.25 57.52 60.26 63.21 60.66 62.74 72.89 72.83 73.21 73.19 73.47 73.97 75.21 75.49 75.03 74.18 72.94 72.31 73.81 74.78 71.58 70.63 69.50 67.68 67.32 69.78 69.64 67.81 67.95 64.49 64.82 56.66 52.22 54.86
76.40 72.80 64.28 59.88 55.71 59.70 57.71 59.05 58.23 65.57 68.18 68.97 69.83 70.64 72.21 74.29 75.17 74.68 75.46 74.89 74.10 73.51 72.65 73.77 73.59 71.57 71.00 68.62 66.91 67.24 66.72 67.64 66.40 66.36 62.91 59.83 55.96 57.72
66.26 72.02 69.12 66.58 63.87 66.93 67.13 64.75 64.67 66.68 67.68 69.08 70.57 72.07 72.72 72.58 71.26 70.83 69.14 69.07 67.63 67.31 69.89 70.12 70.35 69.48 66.86 66.68 66.12 65.29 66.76 65.66 64.59 64.59 64.24 61.44 59.26 58.98
69.86 73.32 73.03 72.80 72.13 72.42 71.77 71.52 72.31 70.53 69.31 70.54 71.06 70.18 69.47 68.60 67.94 68.57 67.61 66.81 65.35 64.47 64.36 65.03 66.51 64.76 63.41 64.18 63.60 64.98 64.87 65.89 66.79 65.22 62.57 60.36 59.55 57.80
68.79 71.16 70.82 70.17 69.49 69.26 68.52 68.21 68.98 67.80 70.62 69.73 68.81 67.76 66.69 66.61 66.36 66.67 66.30 65.24 63.55 62.37 63.02 63.27 62.21 57.96 57.86 61.14 57.32 51.16 52.69 58.28 62.94 64.50 62.28 58.41 54.47 54.43
68.86 67.21 64.73 64.40 64.70 65.32 66.07 67.69 68.71 68.87 69.00 67.95 67.45 67.11 66.63 66.02 64.93 65.49 65.38 64.54 63.76 62.73 62.94 62.90 59.92 56.52 53.10 52.15 57.00 53.27 51.36 56.86 56.14 56.74 57.60 55.21 53.03 53.18
66.73 65.08 64.85 65.04 65.36 67.50 68.17 68.02 68.12 67.50 66.39 65.98 66.60 67.08 66.52 65.44 65.14 65.33 65.08 61.17 59.56 61.38 62.89 62.56 59.59 56.78 55.04 52.59 51.22 51.89 49.27 53.38 51.99 49.89 49.34 50.63 52.30 53.90
64.30 63.22 64.25 64.38 63.51 63.74 63.08 63.62 63.82 64.00 63.76 63.58 63.87 66.02 65.86 64.81 64.61 63.56 62.26 54.91 56.32 60.94 60.14 59.37 60.30 56.08 61.52 59.90 52.78 51.43 51.85 50.03 51.39 51.91 52.87 52.13 50.89 50.24
59.04 59.77 59.12 58.77 57.63 56.78 57.08 58.24 59.56 61.32 63.37 63.35 64.12 64.78 64.77 65.13 64.51 64.19 64.07 61.46 60.41 59.86 60.53 61.56 62.19 63.42 60.94 57.28 55.28 53.28 53.39 52.38 52.37 51.24 51.64 52.49 53.83 49.53
55.13 54.65 54.69 53.97 53.97 53.94 54.77 54.28 54.50 55.68 56.43 57.37 57.64 58.69 62.42 63.38 64.19 64.23 63.62 63.05 62.53 61.61 61.36 61.28 62.76 62.29 59.18 57.95 55.45 54.43 51.24 51.20 52.93 52.25 49.39 50.83 51.68 51.84

GFSNE_sfc_wetblb_048.txt.gz
Wetbulb
77.60 77.59 76.46 74.59 75.24 74.28 73.72 72.48 70.20 67.57 68.97 72.72 71.15 74.96 74.39 74.53 75.32 75.61 75.61 71.26 68.79 67.58 66.22 65.49 65.96 67.01 67.66 68.53 69.04 69.26 69.57 69.77 69.80 69.38 69.14 69.36 68.77 68.65
76.53 77.30 77.61 75.35 75.39 75.21 74.52 73.75 72.89 70.85 68.18 71.65 72.11 74.16 75.33 74.74 74.68 75.31 75.13 72.18 69.09 67.70 66.47 65.38 65.01 65.77 66.30 66.94 67.30 67.31 67.71 67.96 67.93 68.02 67.87 68.13 68.51 68.78
78.03 77.31 77.51 78.54 76.11 75.20 75.00 74.45 73.72 73.02 70.12 71.17 72.21 74.57 76.07 75.74 75.77 76.24 75.57 75.43 74.26 67.58 67.00 65.97 64.82 64.64 65.08 65.55 65.76 65.84 66.02 66.31 66.48 66.92 67.44 67.59 67.86 68.08
77.66 77.77 77.15 76.76 77.58 77.84 75.97 77.01 75.87 76.38 72.36 74.04 75.12 73.16 76.22 77.32 76.11 75.61 75.09 74.55 74.34 70.72 66.38 65.35 64.65 64.19 63.79 63.59 63.60 63.61 63.40 63.60 64.45 64.90 65.93 66.69 67.34 67.42
77.77 77.65 77.60 77.98 77.61 77.03 76.81 75.94 75.86 76.08 76.23 74.47 73.81 74.52 74.57 75.49 76.17 77.66 76.73 76.97 75.20 71.72 66.31 65.13 64.15 63.77 63.07 62.41 61.67 60.81 59.73 59.76 60.80 61.74 62.72 64.18 65.50 66.43
78.27 78.24 78.16 78.42 78.31 78.47 78.14 77.97 77.76 76.96 76.94 74.94 73.82 73.23 73.42 76.29 75.30 73.93 73.74 75.33 75.06 75.97 73.36 69.44 68.38 66.56 64.20 62.30 61.88 61.65 58.92 57.62 57.81 58.68 59.47 60.68 62.47 63.86
78.14 78.65 78.78 77.42 73.25 74.72 77.89 79.79 80.02 77.31 75.42 74.18 73.39 73.60 73.55 74.08 75.31 75.41 74.88 75.65 77.31 77.30 76.56 77.04 76.65 76.09 75.06 64.53 66.85 64.58 61.91 60.06 57.91 57.29 57.49 57.62 58.95 60.32
77.38 78.09 79.00 75.20 74.27 69.20 68.40 68.75 73.04 77.64 78.67 75.75 74.44 74.20 78.20 77.14 76.55 75.46 74.95 74.12 73.59 78.83 78.27 76.65 78.03 76.96 77.20 77.20 69.96 65.57 62.72 61.26 60.05 58.49 57.54 56.53 57.35 58.25
78.06 77.55 77.28 76.61 75.45 78.30 70.86 67.61 68.28 66.92 67.95 75.36 75.68 76.44 77.69 78.45 79.44 78.59 77.87 77.56 76.37 77.89 78.07 75.40 77.03 76.55 77.63 77.35 66.54 64.24 62.43 61.08 59.91 59.22 57.93 56.62 56.38 56.48
78.05 78.05 78.59 78.52 77.92 77.03 77.73 77.44 77.63 78.20 77.00 75.39 76.49 76.95 77.09 78.36 79.28 79.34 78.65 77.82 77.31 76.74 77.17 73.07 76.33 75.86 77.37 77.82 68.05 65.02 62.68 60.71 59.41 58.83 57.99 56.45 55.07 54.21
77.66 78.47 79.14 78.93 72.08 65.58 77.08 76.63 76.94 77.36 71.90 65.26 66.66 66.85 65.67 64.53 68.40 75.47 73.05 73.37 72.36 75.20 77.68 74.85 76.02 76.11 76.55 76.42 76.54 67.40 62.09 60.24 58.26 58.32 58.25 56.81 54.27 52.70
78.49 79.65 68.04 73.47 66.14 62.21 76.58 76.19 75.86 76.02 77.37 78.50 79.96 71.62 67.48 73.56 64.35 73.33 75.12 72.01 72.58 71.37 76.92 73.56 74.07 73.64 70.74 74.18 73.82 73.78 73.73 61.67 57.20 56.30 57.19 56.68 53.62 58.41
75.01 75.16 76.23 63.33 61.58 60.28 60.58 76.39 75.53 76.07 75.75 78.52 78.28 78.50 79.01 78.34 78.25 77.71 74.07 72.19 72.35 72.69 75.64 75.52 73.39 72.58 71.81 71.00 71.75 72.80 73.24 72.77 72.39 67.87 54.25 53.86 52.15 57.19
75.77 76.30 78.14 61.38 57.62 57.91 61.81 64.16 61.28 63.71 75.56 76.11 75.46 74.29 74.73 75.70 76.01 76.91 77.28 77.29 77.17 76.38 77.56 76.46 72.59 71.05 68.92 67.48 67.43 69.40 69.43 70.20 70.75 70.45 68.94 64.30 52.74 52.86
76.98 72.63 62.30 60.25 56.63 60.64 57.77 59.32 58.03 73.59 71.39 69.26 70.39 71.41 73.25 73.16 75.78 77.11 78.07 78.48 76.67 75.30 73.23 73.23 70.50 69.99 67.20 64.96 64.34 65.58 66.28 66.65 67.24 67.12 65.54 67.32 63.27 57.35
68.67 74.04 71.89 66.54 60.99 65.94 72.27 70.66 72.36 70.53 69.85 70.55 70.08 71.79 74.39 74.96 74.78 74.75 71.47 70.98 69.86 69.58 72.49 71.53 70.42 68.45 65.14 64.66 64.37 64.07 60.70 58.85 62.14 63.60 63.80 65.15 65.58 60.34
73.61 76.52 75.84 75.50 75.44 75.29 75.04 74.57 73.22 71.23 70.10 69.81 71.77 72.90 74.55 73.50 71.53 71.22 70.11 69.58 68.01 67.83 67.28 68.25 69.97 69.15 66.00 64.97 62.34 59.81 55.37 56.87 59.67 58.86 61.03 62.11 63.04 59.08
71.32 74.83 74.47 74.45 73.21 72.90 71.74 70.45 71.04 69.61 72.39 72.17 72.64 72.24 70.66 69.51 69.29 69.59 69.26 68.10 67.37 67.61 66.60 67.04 66.39 64.39 63.07 63.55 60.61 57.29 52.65 53.56 55.21 56.33 57.64 55.78 52.79 54.82
73.71 72.50 71.39 70.30 68.19 67.99 68.29 68.62 69.34 70.65 72.01 70.39 70.19 70.01 69.67 69.18 67.81 68.47 68.44 68.26 67.43 65.91 65.98 66.88 65.38 62.46 57.38 57.55 61.19 52.91 51.15 54.52 53.33 53.02 54.02 52.88 51.15 51.60
69.33 67.45 66.31 66.22 66.85 67.17 68.02 68.72 70.11 69.93 69.02 68.30 68.38 69.26 69.55 68.86 68.20 67.69 67.24 66.08 65.31 64.73 65.38 66.19 65.03 63.07 59.02 58.20 56.45 55.76 50.18 53.92 53.80 53.06 52.51 52.91 53.03 53.54
71.06 69.88 69.45 68.07 67.22 65.10 65.69 66.13 66.59 66.27 66.41 65.89 66.51 67.66 66.60 65.92 66.01 65.25 64.69 56.85 59.03 64.45 63.86 64.29 65.27 57.89 64.30 65.11 59.76 56.09 55.90 51.00 52.79 56.25 54.74 52.51 51.17 51.33
65.90 64.73 64.79 62.97 62.05 63.59 64.55 64.42 65.07 64.90 64.84 63.96 63.94 65.30 65.91 66.32 65.01 64.95 64.66 64.16 63.11 63.40 63.91 65.64 66.96 65.38 63.79 62.34 60.50 58.12 56.42 55.84 54.38 52.26 51.65 52.85 54.90 50.07
61.49 62.74 62.27 62.30 62.36 62.51 63.15 62.65 61.27 62.44 62.86 62.86 64.12 64.91 65.07 64.69 66.13 65.34 64.66 64.56 63.93 62.48 63.06 64.77 65.00 64.49 64.04 61.94 58.85 61.28 58.78 58.15 57.99 58.46 56.90 51.31 52.29 53.83

GFSNE_sfc_wetblb_051.txt.gz
Wetbulb
78.25 77.90 76.17 74.41 74.33 73.91 73.04 72.56 70.50 68.04 69.43 73.83 70.67 75.99 74.05 73.88 75.55 75.87 76.70 71.85 69.14 68.09 66.73 66.23 66.53 67.10 67.92 68.65 69.21 69.55 70.24 70.33 70.60 70.72 70.62 70.53 70.57 69.66
75.95 79.86 79.18 76.26 75.81 75.15 74.42 73.76 72.76 70.78 68.43 71.44 72.34 75.06 75.94 74.59 75.61 75.79 75.37 72.46 69.37 68.16 67.18 66.04 65.67 65.92 66.31 66.85 67.30 67.51 68.00 68.49 68.55 68.74 68.81 68.67 68.80 69.20
78.84 78.21 78.72 80.16 75.84 74.69 74.84 74.27 73.59 73.01 70.48 71.73 72.84 76.44 79.54 78.62 77.91 77.76 76.24 77.49 75.13 67.70 67.04 66.27 65.33 65.18 65.36 65.44 65.48 65.64 65.97 66.35 66.69 67.44 67.80 67.93 67.96 68.15
77.86 78.80 77.14 76.67 79.19 79.54 76.65 79.65 76.82 77.92 73.03 74.91 75.10 74.59 77.65 79.01 78.75 79.12 75.74 75.87 75.99 72.18 66.76 65.77 65.17 64.55 64.30 64.10 63.67 63.47 63.15 63.58 64.10 64.89 65.79 66.80 67.12 67.33
78.33 78.64 78.32 78.93 79.38 77.57 79.02 76.31 75.58 76.68 76.80 74.72 74.62 76.07 76.18 76.47 77.28 79.39 79.04 78.26 77.41 73.29 68.90 65.63 64.91 64.70 64.29 63.29 62.26 61.24 59.87 59.37 60.66 61.42 62.73 63.81 65.18 66.12
79.17 79.26 79.13 79.13 79.69 80.16 78.70 79.92 78.61 77.45 76.48 74.97 74.48 75.20 75.66 78.28 76.76 75.32 75.66 77.06 77.27 77.57 75.21 72.03 70.01 66.67 64.78 62.96 62.53 62.37 59.31 57.88 57.92 58.32 59.46 60.27 61.83 63.62
79.07 79.13 79.29 78.22 73.51 75.96 77.76 79.37 79.52 77.97 75.45 74.70 74.13 74.22 73.90 74.54 75.63 76.33 75.51 77.15 78.21 77.74 77.37 78.76 78.37 78.74 75.24 65.63 67.28 65.31 62.17 60.12 58.36 57.54 58.06 57.67 58.91 60.01
78.94 79.69 80.05 75.14 74.34 69.71 69.05 69.27 73.50 77.61 78.93 75.72 74.34 74.11 76.67 76.55 76.84 75.75 75.45 74.21 73.97 78.84 78.96 78.40 78.63 77.43 78.59 78.17 72.07 65.51 62.88 61.20 59.90 58.55 57.22 56.90 56.69 57.66
79.17 79.45 78.62 76.64 75.94 79.49 71.38 68.80 69.13 67.16 68.44 76.33 76.06 76.39 76.45 78.13 78.78 77.94 76.47 77.28 77.22 78.11 78.35 75.84 78.17 77.03 78.83 78.05 69.73 66.64 62.64 61.46 60.10 59.19 58.38 56.93 56.39 56.03
79.45 79.68 79.77 79.36 79.60 78.61 79.45 78.97 78.42 79.07 77.58 75.55 76.74 77.57 78.80 79.62 79.50 78.54 79.00 78.83 78.27 77.87 79.52 74.19 77.13 76.96 78.20 78.61 69.50 65.67 63.80 61.21 60.00 58.65 57.64 56.58 54.94 54.03
78.81 79.04 79.24 79.58 73.17 66.45 77.96 77.41 78.08 78.61 72.20 65.36 65.80 66.52 65.83 64.00 67.85 75.18 75.09 74.65 73.94 75.25 78.20 76.33 76.58 76.12 76.19 75.00 75.62 67.09 63.51 60.64 59.71 59.86 57.76 56.54 54.42 53.22
78.50 79.35 69.08 74.37 67.41 62.53 77.54 78.09 77.23 78.15 78.26 78.48 79.22 74.99 68.60 73.05 64.75 72.93 75.57 73.62 73.82 72.65 78.66 74.53 75.09 74.40 71.23 74.03 74.36 74.35 73.46 63.86 58.03 57.21 57.35 56.03 53.93 61.35
75.36 75.03 76.40 64.21 62.00 61.01 61.86 77.67 76.46 76.65 75.16 77.98 78.00 79.04 79.06 79.84 79.90 80.40 78.82 76.20 74.76 73.03 75.28 76.95 74.15 72.39 70.87 69.75 70.34 70.94 70.59 70.07 70.80 68.44 60.08 53.89 52.46 55.18
75.64 74.17 75.36 61.25 58.32 58.99 61.82 63.82 60.97 63.70 75.49 75.69 75.98 76.73 76.79 76.81 76.44 77.57 78.08 76.75 78.70 76.59 78.75 78.57 71.79 70.05 68.03 65.99 65.79 68.61 68.96 68.15 65.75 66.16 65.50 61.65 58.51 54.55
76.58 69.84 62.50 59.86 57.80 59.73 57.91 61.34 59.89 74.74 75.29 75.90 75.57 75.37 74.65 75.03 76.89 76.03 77.32 80.11 79.65 79.29 75.92 74.81 71.53 71.09 67.87 65.28 64.57 65.38 63.63 63.15 63.78 63.23 63.30 62.06 61.11 63.60
69.34 74.05 71.69 65.86 62.67 68.03 71.88 66.23 75.43 76.95 76.68 74.49 71.78 72.68 74.53 73.99 74.20 76.66 75.21 73.66 71.02 70.90 74.87 73.24 72.47 70.80 66.67 65.60 64.65 63.91 62.51 58.37 61.14 59.34 58.23 58.85 59.27 63.18
73.44 76.06 75.73 76.04 76.34 77.01 77.21 77.91 78.07 75.52 72.78 71.77 72.00 73.08 72.11 75.12 75.70 75.34 72.15 70.84 69.42 69.08 69.49 70.59 72.92 72.01 68.24 66.72 62.97 62.53 59.14 58.54 57.83 56.55 56.40 55.07 54.19 55.17
73.26 75.95 75.97 76.05 75.44 76.32 75.65 74.55 73.29 70.88 72.05 72.53 72.93 73.58 73.52 72.95 71.78 71.27 70.86 69.67 68.75 69.02 68.84 68.23 68.60 67.35 66.39 60.36 59.72 59.88 58.18 56.95 56.34 55.67 55.22 53.32 51.52 53.74
76.48 76.06 76.50 75.45 73.52 72.68 72.25 71.61 71.18 72.15 73.25 72.64 72.00 72.23 71.65 70.91 69.07 69.33 69.61 69.36 68.99 69.07 67.65 67.57 67.87 65.68 61.98 59.64 61.64 56.20 55.77 56.07 55.45 54.07 53.96 52.71 50.91 51.87
74.93 72.62 70.85 69.76 68.27 68.06 68.31 68.89 70.08 71.51 71.01 71.30 70.68 70.32 70.04 69.79 69.43 69.27 68.84 68.34 67.53 67.20 66.20 67.08 67.24 66.04 63.05 61.50 60.32 61.16 50.43 56.29 55.20 53.90 52.57 53.35 53.23 53.34
70.91 70.68 70.21 68.75 68.87 69.16 68.66 69.00 69.62 67.96 67.97 68.98 68.41 68.36 68.39 68.01 67.49 66.98 66.29 57.58 60.86 65.09 65.02 65.71 66.85 60.77 65.65 65.90 62.42 61.72 58.30 50.41 53.82 56.35 54.74 53.08 52.29 52.82
73.73 70.94 69.31 68.18 67.28 67.63 67.50 67.58 67.10 65.54 66.00 66.55 66.41 67.11 66.80 66.43 65.83 65.57 65.46 65.13 65.04 64.79 64.78 64.72 67.18 66.79 65.77 63.93 62.18 61.72 60.08 59.96 52.91 52.01 51.88 53.02 55.43 51.22
68.55 67.94 66.35 65.88 65.74 65.81 65.81 65.03 64.63 65.38 64.99 64.25 64.39 64.89 65.59 64.28 65.43 65.26 65.29 65.61 66.01 65.13 64.16 63.77 63.73 64.97 63.94 63.60 58.41 61.55 60.32 59.59 59.17 58.29 58.32 51.28 52.55 53.24

GFSNE_sfc_wetblb_054.txt.gz
Wetbulb
77.54 78.21 77.27 75.44 75.31 74.50 74.48 72.88 71.46 67.42 68.94 72.22 71.27 74.20 73.56 73.64 75.40 73.12 73.42 71.04 68.99 67.91 66.84 66.54 66.75 67.39 67.82 68.36 68.75 69.18 69.74 70.04 70.12 70.04 70.36 71.05 71.75 72.26
76.96 77.17 77.42 75.89 76.50 76.31 75.54 75.25 73.72 71.17 68.52 71.98 73.32 74.61 74.60 73.83 75.38 74.94 74.77 72.99 69.58 68.25 67.06 65.98 65.89 66.27 66.56 66.78 67.14 67.32 67.70 68.30 68.78 69.09 69.29 69.51 69.64 69.96
78.38 78.38 77.37 77.88 76.86 76.73 76.24 74.88 74.01 74.22 71.09 72.03 74.60 74.57 76.32 76.48 74.84 75.59 76.29 75.10 74.26 67.93 67.00 66.42 65.66 65.66 66.24 66.06 65.72 65.79 66.12 66.38 66.61 67.25 68.04 68.27 68.34 68.38
77.24 77.33 77.57 77.28 77.80 77.53 76.72 76.56 76.80 77.76 74.88 72.52 74.18 73.73 74.03 75.38 76.52 77.05 76.09 75.15 74.46 72.84 67.06 65.89 65.13 64.87 64.94 65.03 64.37 64.19 63.42 63.65 64.32 64.92 65.89 66.70 67.19 67.43
77.11 77.32 77.00 77.84 77.53 77.41 77.41 75.59 75.13 75.81 75.29 74.14 73.34 76.16 75.99 76.12 74.88 77.25 76.84 75.30 75.49 73.41 69.74 66.81 65.02 64.54 63.99 63.39 63.06 61.80 59.90 59.78 60.51 61.33 62.70 63.86 65.08 66.06
77.94 77.30 77.78 77.52 77.34 77.86 77.24 77.17 77.25 76.45 75.58 74.96 73.67 73.46 74.44 75.08 76.37 74.72 74.59 76.29 74.95 76.90 74.55 71.43 69.06 67.25 64.89 63.16 62.78 62.56 59.63 58.41 57.88 58.35 59.30 60.61 61.89 63.04
77.36 77.84 77.96 77.32 74.02 75.45 77.56 77.41 77.22 76.58 75.56 74.70 73.96 73.92 73.02 74.23 73.39 74.28 73.88 74.92 74.63 75.11 74.33 78.15 77.68 77.31 74.59 65.91 66.60 66.07 62.94 60.63 58.75 57.59 57.19 57.30 58.18 59.22
76.52 77.14 78.30 73.91 73.22 69.59 68.65 69.58 73.11 76.14 75.16 75.49 75.01 73.54 73.53 74.29 74.71 73.51 73.48 72.59 71.33 76.85 77.09 75.90 77.76 76.65 77.35 76.87 70.09 65.32 63.66 61.83 60.34 58.82 57.24 56.44 56.61 57.35
77.52 77.24 77.35 77.19 74.08 77.56 70.53 67.95 68.39 67.46 68.96 74.34 73.48 73.44 73.24 74.29 75.21 75.11 74.80 74.46 74.48 77.07 76.19 74.58 76.71 75.83 77.25 77.64 69.35 66.20 64.04 61.89 60.78 59.33 58.40 57.12 56.27 55.79
77.06 76.90 77.09 76.97 77.15 77.51 77.35 76.92 75.77 76.06 74.84 72.67 73.02 74.56 75.86 76.86 77.15 76.71 76.18 75.93 75.96 76.53 77.00 73.00 75.60 75.25 77.09 75.82 69.23 66.00 63.30 61.22 60.12 59.60 58.31 56.23 54.80 53.78
75.37 75.97 77.25 77.93 72.01 67.90 74.64 74.70 75.18 75.98 71.82 66.86 68.76 68.05 67.66 66.36 68.63 72.22 71.80 71.91 73.12 74.41 76.42 74.67 75.18 74.49 74.38 74.22 74.08 64.86 61.95 58.68 58.77 57.81 58.28 56.47 53.89 52.15
75.60 76.29 67.75 72.46 66.95 63.48 74.44 76.04 74.81 75.18 76.26 76.76 76.80 74.56 68.00 70.84 62.97 69.18 72.84 72.68 73.29 72.65 75.49 73.48 73.99 73.76 69.51 71.74 69.16 69.10 68.57 61.08 58.77 57.41 56.65 55.66 54.46 59.88
74.65 74.90 76.17 64.74 62.05 60.66 62.05 75.25 74.24 75.15 74.75 76.45 75.91 76.64 78.02 78.42 79.02 78.04 77.39 76.30 74.25 73.85 75.26 74.81 73.14 70.55 68.81 66.66 67.29 67.04 66.29 64.87 62.96 61.93 57.56 54.88 53.84 54.53
74.94 75.81 75.05 61.93 60.01 60.32 61.84 63.51 61.43 63.35 74.39 74.33 74.41 74.70 75.47 77.43 77.25 76.95 77.23 76.72 77.24 76.17 76.54 76.58 72.61 69.17 66.20 64.28 63.31 64.93 65.08 63.10 61.70 60.12 59.49 56.30 54.93 54.84
76.41 70.70 61.68 59.73 57.13 57.76 58.13 61.43 60.23 71.19 73.69 74.02 74.26 75.16 77.00 76.21 75.63 76.29 77.17 76.65 76.65 76.78 76.81 77.35 70.65 69.16 66.90 64.50 62.66 62.46 60.18 59.88 60.41 58.06 56.20 56.02 55.91 54.99
68.41 72.45 69.57 68.63 63.63 67.42 67.94 63.86 72.07 75.06 75.26 75.37 75.60 75.88 74.33 74.32 74.14 74.65 74.11 75.12 73.22 70.96 75.26 71.54 70.83 68.57 66.40 65.06 63.14 61.91 59.51 56.73 58.17 56.28 55.60 55.72 53.98 53.92
71.83 74.82 74.72 74.18 73.83 75.69 76.80 76.79 75.20 76.12 75.51 74.77 73.35 72.35 72.96 73.08 73.10 75.00 74.98 73.22 69.72 69.17 69.01 71.61 71.14 69.21 65.45 64.26 60.99 60.28 57.86 56.56 56.50 54.95 53.46 52.54 52.51 53.62
71.49 74.00 73.98 74.21 74.06 74.73 75.37 75.41 74.99 72.23 72.64 72.09 72.35 72.23 71.92 72.51 72.88 73.00 71.44 69.38 68.48 68.78 69.10 67.89 67.63 67.75 63.33 58.07 59.07 58.61 57.02 55.59 55.78 54.65 53.03 51.26 50.46 52.92
73.59 73.46 74.27 75.80 76.38 75.46 74.77 72.71 72.03 72.95 72.65 72.32 72.47 72.00 71.37 71.07 69.06 69.72 69.43 69.82 68.86 68.37 67.88 67.59 66.46 65.98 61.98 59.96 56.25 53.93 55.89 55.57 55.02 53.34 52.90 51.75 50.66 52.05
74.44 74.64 75.01 73.81 72.95 71.57 71.11 70.31 70.32 71.52 71.31 71.47 68.77 69.27 69.09 69.99 69.80 69.28 68.38 67.40 66.04 65.60 64.93 66.03 65.92 65.67 62.42 60.66 59.85 56.87 51.09 55.82 54.74 54.51 53.80 54.28 54.32 53.96
71.68 70.73 70.01 69.41 68.65 69.25 68.85 70.11 69.45 67.78 66.43 68.83 68.12 66.90 67.89 67.72 67.09 67.17 66.12 58.96 60.43 64.87 63.93 64.06 65.60 60.50 65.74 65.29 61.83 59.14 55.40 49.86 54.57 55.29 54.37 52.32 50.24 51.09
69.42 68.56 68.50 68.50 68.11 67.75 69.31 69.03 66.43 65.29 66.97 67.75 67.02 66.13 66.68 66.72 66.07 65.15 64.96 64.52 64.21 64.44 64.67 65.43 66.00 65.62 65.32 63.40 61.41 60.56 58.53 55.25 52.21 52.81 52.75 52.93 53.35 50.21
67.34 66.51 66.52 66.70 67.05 66.91 67.07 66.47 65.86 65.42 66.09 65.55 65.58 65.57 65.92 64.34 64.54 63.81 62.99 63.03 64.02 63.13 64.08 64.16 64.70 64.85 63.60 63.91 60.61 58.79 59.33 58.54 57.86 54.35 54.30 52.05 51.86 52.26

GFSNE_sfc_wetblb_057.txt.gz
Wetbulb
71.75 71.47 72.29 71.66 71.37 70.79 68.56 66.73 65.66 61.91 62.76 67.29 67.77 69.78 69.90 70.31 71.73 71.28 69.83 70.09 68.83 67.88 66.50 66.06 66.57 67.44 68.11 68.73 68.87 69.19 69.36 69.71 69.74 69.81 69.86 70.36 71.23 72.24
73.47 72.85 72.16 72.13 71.24 72.81 69.88 69.95 68.30 65.47 63.02 67.02 67.71 70.30 71.08 71.64 72.55 70.52 70.29 71.47 70.07 67.90 66.86 66.04 66.07 66.56 67.11 67.65 67.49 67.47 67.87 67.89 68.14 68.51 68.88 68.92 69.49 70.24
73.65 72.46 72.79 72.91 72.25 72.39 73.73 72.19 69.16 68.77 65.74 66.88 69.93 70.61 70.54 71.08 72.04 71.37 71.66 71.54 71.21 68.02 67.28 66.38 65.78 65.82 66.24 66.58 66.72 66.42 66.37 66.25 66.44 67.20 67.83 68.08 68.51 69.03
73.21 72.74 72.74 74.84 72.84 72.31 73.10 71.95 72.07 72.39 69.99 67.24 69.18 69.64 70.49 71.87 71.78 71.94 73.89 75.29 72.69 72.04 68.24 66.45 65.30 64.80 64.62 64.56 64.89 64.54 63.68 63.90 64.40 64.94 65.71 66.60 67.23 67.81
73.48 73.53 73.14 72.61 72.90 73.65 72.47 72.17 71.69 71.96 72.12 70.48 69.78 71.77 72.74 72.90 72.12 71.82 73.73 74.28 74.58 72.52 68.70 67.47 66.74 65.35 64.25 62.79 62.31 61.67 60.29 59.67 60.59 61.59 62.53 63.44 64.82 66.03
74.55 74.15 74.18 74.14 73.39 73.46 73.86 73.34 73.09 72.51 71.85 71.09 70.69 70.49 70.71 72.46 72.12 71.63 70.56 71.91 72.17 75.16 73.17 70.33 70.69 69.77 66.05 63.23 62.69 62.31 59.92 58.21 57.65 58.11 58.89 59.48 60.67 62.47
73.32 74.18 74.43 74.23 73.39 73.05 74.90 73.99 74.04 73.05 72.57 72.05 71.12 70.89 70.09 70.35 70.01 71.62 70.34 69.97 71.00 71.87 71.48 75.47 75.35 75.95 75.03 70.10 67.83 66.59 63.09 61.17 59.10 57.75 57.08 56.70 56.84 57.92
73.96 73.64 74.60 73.03 72.31 69.67 69.41 70.45 73.73 73.60 72.60 71.94 71.30 70.88 70.33 70.33 71.26 70.46 69.86 70.29 68.80 73.28 74.86 74.60 74.82 74.83 75.72 75.88 69.79 66.23 63.78 61.95 60.58 59.18 58.03 57.22 56.70 56.54
74.49 74.27 74.23 75.67 72.51 74.30 69.75 67.54 67.47 66.81 68.53 72.07 70.61 70.94 70.78 70.96 71.40 70.97 71.46 71.69 71.81 74.40 74.46 72.90 74.06 73.43 74.93 75.72 69.40 64.63 61.03 59.91 58.50 57.68 57.57 57.07 56.20 55.71
74.60 74.88 74.38 74.18 73.48 72.96 73.45 73.56 72.32 71.65 71.03 70.49 70.33 72.33 72.94 73.46 73.24 73.61 73.40 73.54 74.52 72.86 74.04 70.99 72.89 73.05 74.70 73.95 66.64 62.44 59.69 58.61 58.39 57.60 56.35 55.26 52.90 52.83
73.60 74.24 74.52 74.27 70.40 66.82 72.07 72.41 72.91 74.15 71.39 66.13 66.98 66.77 66.33 65.53 68.55 71.19 71.56 72.36 69.49 71.82 73.85 72.46 72.40 72.11 72.96 70.86 66.42 62.52 60.08 58.05 57.02 56.25 56.66 54.32 53.09 52.67
71.86 72.00 67.00 71.88 67.63 64.82 71.70 72.20 70.70 71.50 71.67 72.51 72.66 68.10 65.20 67.43 63.70 68.23 71.57 69.05 69.62 71.16 73.28 72.31 72.56 71.53 65.91 67.52 64.95 64.90 63.19 58.06 56.34 55.10 54.62 53.74 51.77 55.35
71.12 71.63 73.04 63.27 60.08 59.83 61.23 72.08 72.07 72.97 71.14 73.03 73.64 73.25 73.28 75.15 75.33 71.57 71.58 72.24 71.18 72.24 73.08 73.40 71.55 67.77 65.19 63.35 63.34 63.02 62.20 59.08 58.48 57.41 53.99 52.28 50.96 51.81
72.01 72.84 72.35 64.53 60.52 59.70 60.85 62.40 61.14 63.11 71.91 71.57 71.21 71.28 71.61 72.61 74.78 75.05 74.44 74.82 75.87 75.10 75.26 73.27 70.83 65.78 62.48 60.53 59.93 61.19 60.41 57.82 56.76 55.49 54.92 53.78 52.54 51.91
74.19 70.91 65.29 61.74 58.27 59.41 59.17 60.45 59.75 66.45 69.91 70.08 70.63 71.53 72.79 74.30 73.11 72.99 74.62 75.52 74.45 74.32 75.39 73.88 70.67 65.71 63.12 61.17 59.80 58.40 55.96 55.92 55.89 54.01 53.50 53.82 53.02 53.08
67.92 68.00 66.22 65.57 64.86 67.02 63.35 59.51 65.42 68.32 69.44 70.56 71.62 72.50 71.72 71.44 71.40 72.33 72.76 72.24 71.13 67.92 70.05 71.14 67.14 64.86 62.87 61.16 59.71 56.96 54.95 53.56 53.34 52.27 51.49 51.66 52.96 53.43
68.87 72.09 69.41 69.09 69.86 70.07 71.71 67.79 67.27 70.81 71.87 72.71 73.01 72.15 71.38 71.74 71.38 72.51 72.78 71.29 67.48 64.62 63.77 66.92 62.68 60.98 59.35 60.60 57.24 55.31 53.66 52.45 51.98 50.86 50.04 49.72 52.18 52.41
67.97 71.34 71.29 71.77 71.74 71.07 71.51 73.50 72.08 71.09 73.60 72.67 71.77 71.38 71.07 70.50 70.79 71.30 70.44 64.45 63.13 63.26 63.99 62.88 62.97 61.27 58.12 56.85 58.46 55.21 52.95 52.13 51.62 50.49 49.67 48.04 48.77 52.86
70.56 71.70 71.62 71.84 71.89 71.50 71.50 72.55 72.52 72.67 72.12 71.56 70.12 69.91 70.59 70.99 69.15 65.39 65.57 64.38 63.99 62.88 62.54 62.47 61.79 61.16 58.36 56.68 56.10 54.14 53.39 52.44 51.46 49.66 49.23 48.07 47.26 48.58
70.78 70.63 71.05 70.00 69.78 70.25 70.79 70.36 70.02 70.27 70.23 69.75 67.88 66.87 65.84 66.71 65.31 64.53 62.77 61.94 60.96 60.56 60.18 61.30 60.95 59.75 58.51 57.40 56.72 54.73 49.20 52.77 51.78 50.00 48.45 49.24 50.31 53.04
69.10 67.79 68.08 67.90 67.74 67.54 67.26 67.04 66.86 66.43 66.80 65.73 64.62 64.35 64.82 63.42 62.99 62.83 61.67 57.34 57.98 60.14 59.02 59.59 61.34 59.79 60.38 60.87 57.38 55.00 52.90 50.48 53.26 51.75 49.74 48.10 46.58 46.33
67.77 67.16 66.80 66.80 66.88 66.77 66.52 66.05 65.03 65.31 65.19 64.74 63.99 63.51 62.43 62.61 62.63 62.10 60.92 60.56 60.51 61.71 61.99 61.70 62.19 61.24 60.04 59.75 58.25 56.76 54.76 51.79 51.46 51.99 53.44 53.03 49.72 46.69
66.98 66.89 65.80 65.74 65.63 65.53 64.45 63.98 63.95 63.59 63.26 62.43 61.35 61.16 61.50 60.54 61.16 60.83 60.73 60.42 59.60 58.95 58.24 58.72 60.22 60.52 59.80 59.87 58.65 57.16 58.07 55.61 52.70 52.20 51.12 52.91 52.74 51.82

GFSNE_sfc_wetblb_060.txt.gz
Wetbulb
70.86 69.80 70.52 70.55 69.48 69.37 67.56 64.92 63.64 60.38 60.99 65.73 66.93 68.18 68.29 68.52 70.04 70.01 70.68 69.90 69.14 68.41 67.10 66.36 66.68 67.79 68.31 68.84 69.00 69.07 69.42 69.39 69.78 69.85 69.99 70.49 71.09 71.99
72.18 71.58 70.12 70.57 69.82 71.41 70.39 67.63 66.36 63.57 61.58 65.13 65.94 68.42 70.37 70.36 70.67 70.74 69.99 70.23 69.24 68.02 67.30 66.54 66.29 66.84 67.17 67.67 67.64 67.76 67.89 68.23 68.40 68.38 68.57 68.70 68.89 69.75
71.65 71.27 71.44 71.14 70.64 70.68 71.70 71.28 69.73 67.00 64.11 65.74 67.22 69.69 69.96 69.48 70.23 70.68 71.07 69.58 70.17 68.50 67.88 66.99 65.95 65.95 66.52 66.70 66.70 66.61 66.65 66.67 66.79 67.25 67.74 68.11 68.30 68.62
71.60 71.98 71.89 73.60 71.70 70.84 70.99 70.70 70.23 69.95 67.93 66.60 66.79 68.35 69.37 71.49 71.81 71.75 73.15 74.36 73.35 71.86 67.73 66.36 65.59 65.04 64.95 64.58 64.22 64.02 63.57 63.64 64.22 64.82 65.68 66.56 66.97 67.53
72.23 72.10 71.85 71.21 71.73 71.93 71.25 71.01 70.83 71.38 70.48 69.18 69.59 70.21 71.44 71.06 70.77 70.92 71.24 72.72 74.18 72.58 69.41 67.44 66.40 66.05 65.36 63.16 62.04 60.77 58.98 58.78 59.57 60.56 61.37 62.19 63.33 64.73
72.52 72.68 72.75 72.49 71.26 71.46 72.21 72.09 72.04 71.07 70.41 69.27 68.75 69.30 69.95 71.34 70.83 70.54 69.91 70.27 70.52 73.82 72.32 69.65 70.18 70.17 69.13 66.60 64.80 63.10 59.73 57.84 57.23 57.34 57.78 58.30 59.25 60.30
72.37 72.84 73.31 72.93 71.47 71.32 72.78 72.22 71.87 71.14 70.78 70.38 69.73 69.82 69.82 70.22 69.74 70.33 69.18 69.28 70.52 71.87 71.45 74.77 74.45 74.92 74.60 71.37 71.91 66.71 62.13 59.94 58.55 57.85 57.04 56.48 56.66 57.35
72.28 72.24 72.53 71.92 71.22 68.89 68.69 69.51 71.84 72.12 71.27 70.76 70.79 70.47 70.35 69.43 69.25 69.18 68.48 68.37 68.06 72.39 73.23 73.47 73.87 74.07 74.38 75.01 64.38 61.75 59.98 59.07 58.45 57.74 56.95 56.35 56.07 55.88
72.94 72.97 72.81 74.64 71.76 73.31 69.03 66.78 67.02 67.25 69.39 72.33 71.13 70.18 69.28 69.98 69.61 68.84 69.07 69.14 69.79 73.07 73.91 73.11 73.00 72.76 74.06 73.36 61.66 60.15 59.09 58.18 57.01 56.56 55.49 54.40 53.57 53.07
73.86 73.78 73.31 73.45 72.36 72.37 72.25 72.11 71.87 71.28 69.41 68.69 69.59 71.50 71.71 72.05 71.55 72.30 71.03 70.89 73.45 74.83 73.33 69.75 72.18 72.89 73.51 67.49 60.77 59.95 58.43 57.33 56.74 55.82 54.96 53.56 51.57 51.18
72.23 73.27 73.80 73.45 68.78 65.53 71.90 71.61 71.76 72.45 70.31 64.33 64.89 64.64 63.89 63.30 66.35 71.08 70.94 71.15 70.90 69.84 72.67 72.14 71.89 72.67 71.39 66.60 63.84 59.36 57.43 55.60 55.07 54.80 54.72 53.03 51.16 50.65
71.91 72.10 66.13 71.58 65.23 63.29 71.02 71.75 70.59 70.97 70.36 70.22 71.17 67.72 64.03 67.18 63.70 68.44 71.32 70.18 69.95 69.82 72.02 72.64 72.39 69.15 64.61 66.46 63.57 61.66 59.68 55.92 54.37 53.07 53.40 52.33 50.58 52.28
70.38 70.79 71.67 62.76 60.78 60.03 61.14 72.03 71.09 71.68 69.77 70.91 71.53 72.21 72.65 72.87 73.52 70.59 68.96 70.54 68.94 70.16 72.39 72.81 72.12 67.45 64.47 63.19 62.15 60.72 57.38 55.91 55.02 53.87 52.33 51.32 50.09 51.18
71.87 71.26 71.12 61.51 58.12 57.89 58.62 61.42 59.82 60.45 68.03 70.29 70.63 71.08 70.68 71.06 71.94 73.35 74.19 73.25 74.28 74.60 74.94 72.80 70.56 66.48 62.88 59.32 59.41 60.20 57.60 54.83 53.49 52.38 52.13 51.55 50.93 51.30
74.22 69.98 63.47 58.58 57.83 59.71 59.37 59.71 58.42 63.57 67.11 68.46 69.95 70.62 70.69 71.96 73.69 73.34 73.43 74.05 74.66 74.61 74.49 73.05 71.81 64.91 62.47 59.92 59.37 56.95 54.97 54.13 52.34 50.72 50.49 50.37 51.63 52.20
67.64 70.35 66.35 64.73 62.73 65.46 63.95 61.43 62.22 65.34 67.09 68.22 69.46 70.26 71.08 71.24 72.13 72.06 72.24 70.97 70.95 70.17 67.78 69.59 69.66 64.60 61.79 60.54 58.68 56.45 54.15 53.35 51.76 50.36 49.54 49.10 50.55 50.87
67.24 71.02 66.93 66.75 68.08 68.55 68.94 68.21 64.29 65.32 66.54 67.88 69.18 70.63 71.54 71.99 72.08 71.69 70.41 70.20 70.20 66.10 62.88 63.13 58.42 59.16 58.95 59.87 56.58 54.97 53.13 51.97 51.14 49.77 48.27 47.23 48.51 50.18
65.18 70.28 70.53 70.00 69.72 70.26 69.52 70.15 68.42 66.61 69.23 70.54 71.85 72.42 71.45 69.82 69.80 69.48 70.14 68.55 64.84 62.98 63.07 62.10 60.22 59.60 58.75 57.67 58.31 54.87 52.25 51.47 50.96 49.87 48.43 46.42 45.97 48.48
71.68 70.52 70.97 70.78 71.28 71.39 70.76 70.95 71.34 71.53 70.80 71.99 72.14 69.66 69.95 68.71 67.94 68.42 65.10 63.12 62.48 61.56 61.30 61.28 60.58 59.72 57.63 56.45 56.90 55.37 54.17 51.78 50.67 48.78 48.42 47.32 46.22 47.30
70.69 70.90 70.87 71.01 70.74 70.92 70.00 70.02 70.45 70.27 69.55 69.00 68.37 68.30 67.76 66.47 63.82 62.76 62.86 61.56 60.58 59.91 59.51 60.26 59.76 58.94 57.88 56.82 56.27 55.47 51.07 52.13 50.95 49.35 48.00 47.95 49.07 52.02
69.70 70.16 70.16 69.07 68.73 67.99 67.06 66.86 66.45 66.36 66.49 66.04 65.45 65.41 65.84 64.88 63.06 62.47 61.33 56.67 57.72 60.50 58.54 58.82 60.54 59.11 59.96 59.17 56.63 55.69 54.31 50.00 52.39 51.26 48.81 47.39 46.33 45.58
70.16 69.66 68.76 67.72 66.65 66.04 65.50 65.26 64.85 64.61 64.98 64.99 65.33 64.82 65.05 64.02 62.66 62.15 62.02 61.09 60.12 59.96 59.15 59.55 60.30 60.05 59.05 58.37 56.75 55.87 55.48 52.77 51.42 51.89 52.72 52.08 48.18 46.00
67.62 67.40 66.34 65.79 65.25 64.77 63.85 64.69 63.85 64.26 64.35 63.51 62.92 62.76 62.83 62.45 62.37 60.74 59.84 58.86 57.70 57.86 57.81 57.18 58.11 58.33 57.85 57.61 56.43 58.61 57.98 54.50 51.68 50.67 51.92 53.17 53.16 52.88

GFSNE_sfc_wetblb_063.txt.gz
Wetbulb
69.81 68.83 69.14 69.35 69.03 68.38 66.69 63.74 62.40 59.57 60.42 63.71 65.74 67.38 68.16 67.22 68.67 68.43 68.43 69.50 69.11 68.44 67.55 67.03 67.17 67.72 68.38 68.93 69.00 68.94 69.42 69.60 70.12 69.99 70.19 70.48 71.32 71.93
71.08 70.31 68.96 69.42 69.28 69.37 69.35 66.67 64.94 62.58 61.22 62.99 65.26 66.59 69.97 70.69 70.86 70.60 70.62 70.31 69.18 67.93 67.18 66.60 66.68 67.06 67.32 67.60 67.87 68.02 68.10 68.23 68.38 68.63 68.69 68.92 69.46 70.03
70.16 70.40 70.08 69.98 69.80 69.80 70.23 70.12 68.41 65.55 63.89 65.66 65.72 69.19 69.22 68.76 70.75 71.26 71.96 71.27 70.92 68.78 68.10 67.35 66.26 66.13 66.53 66.88 66.62 66.55 66.71 66.62 66.79 67.15 67.72 68.00 68.35 68.68
70.46 70.24 70.55 71.66 70.71 70.23 69.85 69.40 68.88 68.39 67.09 65.62 66.49 68.45 69.05 70.86 70.94 71.32 72.26 73.32 72.91 71.42 68.21 66.89 65.73 64.97 64.84 64.80 64.08 63.36 62.47 62.47 62.92 63.47 63.97 64.73 65.44 66.08
71.16 70.59 70.57 70.75 70.36 70.48 69.98 70.05 69.90 70.56 68.80 68.17 69.16 69.23 70.17 69.97 70.74 70.80 71.04 71.51 72.43 71.22 68.69 68.92 67.65 67.04 66.42 64.71 62.78 61.00 58.42 57.88 58.52 59.13 59.86 60.38 61.17 61.96
71.47 71.42 71.73 71.45 70.53 70.13 70.48 70.88 70.59 70.21 69.49 68.48 67.81 67.99 68.91 70.45 70.14 69.61 70.61 69.97 70.36 72.70 72.14 69.98 68.86 69.67 69.37 66.13 64.34 62.09 58.52 56.64 56.37 56.71 56.65 56.96 57.78 58.51
71.33 71.60 71.99 72.09 70.63 70.15 71.24 70.46 70.30 69.77 69.41 68.93 68.44 68.44 68.89 69.18 69.52 69.29 68.73 69.04 69.31 70.82 71.02 72.87 73.43 73.37 73.69 67.31 64.08 62.19 59.21 57.71 56.46 55.85 55.28 54.85 54.95 55.55
70.72 70.86 71.72 71.15 70.59 68.01 67.40 68.38 70.81 70.48 69.51 69.11 69.07 69.50 69.40 69.16 68.78 68.10 67.51 67.06 67.06 71.36 73.15 72.65 73.06 72.38 73.63 63.80 62.10 60.11 58.84 57.72 56.55 55.64 54.75 54.07 53.85 53.96
71.48 71.34 71.19 73.10 70.48 72.08 68.59 66.60 66.28 65.92 68.12 71.70 70.64 70.48 69.74 69.42 68.50 67.65 67.83 67.63 67.92 71.60 73.20 72.85 72.47 71.50 69.29 62.24 60.26 59.23 57.91 56.80 56.06 55.25 54.50 53.22 52.38 52.25
72.08 72.04 71.74 71.87 71.59 71.87 71.89 71.40 71.15 70.91 69.13 68.89 70.48 72.53 71.99 72.07 70.27 70.35 69.89 69.18 70.56 73.20 74.31 70.22 71.41 72.25 65.82 60.80 59.58 58.67 57.17 56.01 55.29 54.77 54.08 52.41 50.65 50.31
71.66 71.95 72.73 72.59 68.37 64.73 71.41 70.70 71.03 71.41 68.67 63.77 64.70 64.51 63.28 62.57 65.14 69.56 68.75 68.23 69.07 71.56 71.99 72.07 71.48 72.39 68.16 62.69 59.36 57.95 55.96 54.58 53.93 53.89 54.12 52.43 50.03 50.25
71.87 71.17 65.17 70.15 64.40 62.05 69.62 70.88 70.38 71.40 70.96 70.15 69.29 65.87 62.89 66.30 62.10 68.46 70.33 70.27 69.39 69.27 71.83 71.13 71.26 69.96 65.88 65.40 61.52 59.50 57.20 54.81 53.11 52.41 52.64 51.54 49.98 51.15
71.05 71.21 71.57 62.12 60.03 59.35 60.24 71.84 70.68 71.25 69.53 69.25 69.09 69.61 70.47 71.50 71.91 69.16 70.01 71.24 69.64 69.75 71.34 73.08 71.94 68.73 66.02 63.05 61.62 59.14 56.18 54.39 53.05 51.98 51.31 50.17 49.99 50.82
71.20 71.54 70.94 60.15 57.94 57.69 58.87 61.52 60.28 61.25 67.81 68.32 68.37 69.32 69.36 70.49 71.69 72.18 73.25 71.23 72.31 72.40 72.85 73.02 71.51 68.21 63.77 60.12 59.72 59.10 56.44 54.04 52.31 51.08 50.54 50.22 50.36 50.56
73.16 69.65 63.16 58.62 55.80 57.74 57.68 59.83 58.73 63.58 66.60 65.35 67.27 68.14 69.71 71.16 70.81 71.43 73.51 74.22 73.88 74.19 74.31 73.21 73.16 67.04 64.34 62.22 59.07 57.80 55.49 54.19 52.04 50.15 49.58 49.44 49.05 50.21
67.32 69.65 66.91 63.64 62.08 64.79 63.77 61.57 63.48 64.74 65.68 66.72 67.78 69.10 68.62 69.14 70.18 71.58 72.19 72.24 71.17 69.72 66.11 63.91 72.12 66.91 62.71 60.82 59.56 56.86 54.77 54.05 52.01 50.40 49.04 48.27 48.67 51.54
67.96 70.65 71.53 67.67 69.01 67.96 67.36 67.81 65.05 63.63 64.87 66.36 66.63 67.17 68.12 68.96 70.22 71.42 71.74 70.88 69.89 66.46 64.16 61.70 58.68 60.33 60.16 59.94 57.82 56.32 54.51 52.85 51.90 49.77 48.21 47.40 47.47 49.75
66.22 70.70 70.22 70.73 70.75 70.60 70.17 69.40 68.46 65.73 66.28 66.68 67.22 67.92 68.51 69.88 70.31 69.48 70.11 70.02 68.80 66.27 63.75 62.17 58.88 59.04 59.54 58.86 59.14 56.10 52.96 52.51 51.68 50.13 48.18 47.17 46.70 47.74
70.96 71.04 70.97 70.67 70.48 70.31 70.48 70.04 70.19 69.86 69.06 69.23 69.43 70.02 69.84 70.22 67.55 67.89 67.64 65.13 63.04 61.76 61.26 60.76 60.20 60.37 57.18 56.46 58.30 55.86 55.25 52.32 50.86 50.21 48.95 47.71 46.81 47.26
71.21 71.99 70.81 70.67 70.58 70.54 70.42 70.69 70.87 71.51 70.79 70.72 70.63 70.38 69.43 68.66 65.63 66.11 65.77 63.53 61.96 60.07 59.90 60.82 60.25 60.55 58.30 57.22 56.66 56.58 51.27 53.30 51.37 50.55 49.07 47.87 48.88 51.05
67.67 70.74 71.73 71.03 71.19 71.17 71.15 71.17 71.26 71.03 71.35 70.70 69.61 69.21 67.85 66.25 64.41 63.56 62.90 57.73 58.45 60.78 60.00 60.24 60.73 59.39 60.69 59.09 56.92 56.00 56.14 49.95 52.48 52.34 49.32 48.35 47.26 46.32
70.17 69.18 70.85 70.40 70.63 70.85 69.21 69.25 68.37 67.33 67.80 67.15 64.36 63.92 63.99 63.06 62.71 61.85 61.79 60.66 60.39 60.61 60.82 60.85 60.73 59.41 58.75 58.33 56.86 55.70 56.22 55.28 51.33 52.08 52.44 52.44 49.13 47.13
67.92 68.82 67.37 66.42 66.06 66.17 65.47 65.45 65.79 65.11 64.10 63.33 62.75 62.69 62.49 61.86 61.74 61.49 61.15 61.95 60.79 59.81 58.97 57.30 57.36 58.07 57.62 57.74 56.28 56.34 56.02 56.36 53.94 52.26 51.93 52.92 53.01 52.88

GFSNE_sfc_wetblb_066.txt.gz
Wetbulb
72.22 72.05 72.06 72.12 71.65 71.13 70.49 67.98 67.76 65.64 66.07 68.84 70.24 72.36 74.05 73.88 73.28 74.30 74.41 71.01 69.12 68.48 67.44 66.87 67.25 67.80 68.80 69.17 69.22 69.15 69.44 69.54 69.60 69.81 70.19 70.73 71.63 72.36
72.87 72.54 71.73 71.74 71.94 71.45 72.34 69.78 68.66 67.45 66.99 67.93 69.95 70.98 73.37 74.27 74.46 75.82 75.38 71.40 70.23 68.53 68.12 67.18 67.16 67.71 67.78 68.16 68.14 68.14 68.29 68.34 68.42 68.31 68.47 68.89 69.24 69.91
72.27 72.83 73.02 72.95 72.48 72.58 72.65 72.77 71.34 69.00 68.82 70.88 69.76 72.79 73.82 74.68 75.72 75.87 76.17 76.49 76.10 70.06 68.18 67.01 66.35 66.31 66.89 67.02 66.44 66.02 65.82 65.66 65.69 65.66 65.86 66.40 67.04 67.42
72.60 72.30 72.56 72.83 72.87 73.26 72.55 72.84 72.47 71.91 70.85 70.32 71.31 72.73 73.70 74.88 74.97 75.40 75.43 76.00 75.60 71.62 67.79 66.39 66.26 66.15 65.90 65.04 63.50 62.33 61.32 61.93 62.21 62.58 62.94 63.34 63.59 63.98
72.67 72.56 72.80 72.77 73.09 73.39 73.28 72.87 72.73 72.86 72.12 71.25 72.45 73.01 73.28 73.72 74.62 75.52 75.51 75.76 75.02 71.65 68.97 68.73 67.98 67.36 65.80 63.35 61.14 59.15 57.43 57.69 58.32 58.54 58.83 59.27 59.53 60.19
73.49 73.39 73.50 73.32 73.31 73.54 73.02 73.29 73.69 73.22 73.07 72.38 71.83 71.85 72.36 74.35 73.77 73.30 73.77 74.41 73.84 75.28 73.39 70.72 69.44 69.96 64.96 61.59 60.58 58.92 56.41 55.27 55.19 55.64 55.80 55.89 56.60 57.30
73.44 73.57 73.65 73.17 70.83 71.56 73.88 74.08 73.40 72.62 72.58 72.25 72.01 72.16 72.41 72.93 73.36 73.83 72.41 72.58 73.89 74.55 74.95 76.24 76.36 76.46 68.03 63.12 63.19 60.77 58.27 56.85 55.62 54.77 53.95 53.75 53.93 54.87
72.82 73.20 74.04 71.46 70.98 67.76 67.18 67.94 72.34 73.89 73.53 72.82 72.93 72.16 73.61 73.11 73.73 72.98 71.94 71.91 71.42 75.32 76.02 75.01 76.70 75.49 68.48 66.45 61.44 59.61 58.10 56.97 55.95 55.09 54.17 53.56 53.28 53.71
73.48 73.34 72.86 73.28 71.42 74.03 69.19 66.26 66.24 65.79 68.10 74.59 73.32 73.69 73.90 74.87 74.11 73.36 72.46 71.78 72.10 74.39 75.21 74.63 76.16 73.32 67.27 63.12 59.81 58.40 57.22 56.49 55.66 54.95 54.01 53.22 52.40 51.96
73.10 73.17 73.22 73.60 73.64 73.60 73.93 73.83 74.15 74.30 72.63 71.03 72.26 74.28 75.28 76.00 74.66 74.53 73.73 73.28 73.55 74.44 75.86 74.06 74.18 73.60 66.34 62.51 59.42 58.02 56.80 55.86 55.19 54.72 53.85 52.37 50.76 50.40
73.20 73.65 73.55 73.68 68.38 64.63 73.62 73.45 73.81 74.02 69.57 64.12 65.10 65.06 64.18 62.92 67.35 72.76 71.81 71.80 71.91 73.33 74.66 74.23 76.23 73.34 66.16 62.14 61.45 57.94 55.72 54.46 53.71 53.79 53.65 52.42 50.20 50.19
72.64 73.12 65.54 71.42 64.34 61.76 71.93 73.31 72.45 73.13 74.00 74.15 73.42 68.90 64.63 68.36 61.61 70.11 72.64 72.08 73.00 71.13 75.21 74.44 74.45 74.16 69.30 66.59 62.55 62.28 62.18 54.79 53.37 52.31 52.36 51.46 49.81 56.02
70.83 71.69 73.11 61.72 59.95 58.49 60.74 73.44 72.08 72.86 71.69 73.23 73.61 73.23 73.23 73.45 74.35 70.79 72.29 73.51 73.59 72.55 74.41 75.29 73.97 72.27 70.27 66.90 66.03 64.49 63.01 60.89 60.33 57.86 51.70 49.91 49.28 51.26
70.63 71.86 71.95 59.74 57.65 56.82 58.43 61.54 60.22 61.12 72.23 72.52 72.28 72.16 72.58 73.44 73.73 74.44 75.24 74.12 75.42 75.93 74.90 75.86 73.30 72.27 69.96 66.21 67.48 64.95 63.50 61.46 60.08 59.03 57.47 52.99 51.01 50.67
72.40 68.88 63.19 58.46 56.62 58.20 57.42 59.07 58.19 66.59 69.42 70.18 70.18 70.93 72.24 73.21 74.10 74.02 74.98 75.75 75.56 74.81 74.03 74.67 74.46 73.53 70.64 70.79 68.85 65.04 63.63 61.22 59.34 58.42 57.69 56.18 55.05 55.13
66.47 69.68 67.30 64.40 62.94 66.12 65.42 62.96 65.53 68.45 69.12 69.45 70.14 71.25 72.54 72.01 72.23 73.41 72.92 74.49 74.08 74.87 71.73 70.56 73.31 72.51 69.51 70.06 67.91 65.59 62.99 62.62 59.35 58.79 57.13 56.72 56.32 56.22
67.91 71.23 71.54 71.46 71.16 71.26 70.15 70.34 69.64 68.38 67.70 68.71 69.61 70.37 70.96 71.79 72.02 72.71 73.54 74.50 73.34 72.74 70.62 66.91 66.21 69.03 68.81 69.31 65.81 65.38 62.90 60.80 59.71 58.67 57.38 56.83 55.87 55.57
66.20 70.13 69.96 70.44 70.61 70.65 71.07 71.91 71.23 68.03 69.65 70.19 69.86 70.33 70.45 70.72 71.59 72.87 73.32 72.60 72.02 72.32 71.73 67.28 63.63 63.61 63.57 63.75 63.25 64.52 61.25 60.69 59.08 57.57 56.18 56.81 56.94 55.69
70.41 70.66 70.54 70.96 70.64 70.82 71.79 71.85 71.96 71.80 71.63 70.85 70.86 70.82 71.13 71.62 70.27 72.44 71.58 71.62 71.53 72.07 69.97 67.57 66.02 65.52 63.84 63.38 64.29 58.07 62.89 59.72 58.09 57.82 57.28 56.10 57.07 57.01
70.96 71.30 71.68 71.97 71.65 71.11 71.24 71.39 72.36 72.75 71.91 71.43 71.28 71.91 71.55 71.16 71.12 71.26 71.48 71.30 71.09 69.50 66.71 65.79 65.61 65.25 65.06 64.67 63.82 63.08 53.30 61.07 59.46 59.95 58.24 56.20 56.19 52.46
67.67 70.83 72.50 73.29 71.95 71.63 71.66 72.31 72.56 72.45 71.98 71.98 71.55 72.13 71.95 71.84 71.74 71.49 69.57 59.24 63.01 66.11 65.17 64.63 65.86 60.29 64.46 64.28 62.95 62.73 62.77 50.31 57.67 60.99 58.85 57.33 57.01 54.50
71.98 70.35 71.36 72.54 72.65 72.13 72.20 72.16 72.05 71.42 71.58 71.74 71.58 70.52 68.39 67.04 66.27 65.11 66.23 66.34 65.75 65.66 64.62 63.72 63.94 63.80 63.30 63.06 63.30 62.16 63.27 63.00 53.61 52.00 53.71 56.13 57.95 55.88
72.68 72.67 71.42 71.80 72.43 72.32 72.16 71.39 71.03 70.68 70.09 68.23 66.49 65.93 66.00 64.96 65.35 65.95 65.98 66.03 65.44 64.00 62.51 61.07 61.82 62.14 61.82 61.48 60.38 61.84 62.03 62.14 61.65 60.69 60.14 53.25 53.03 52.98

GFSNE_sfc_wetblb_069.txt.gz
Wetbulb
75.93 76.25 76.11 76.48 76.41 76.03 76.28 74.58 71.98 68.86 69.85 73.08 73.77 76.68 77.38 78.39 76.75 78.54 79.17 72.48 70.44 69.63 68.31 67.76 68.05 68.90 69.35 69.55 69.74 69.63 69.79 69.81 69.78 69.80 69.73 70.11 70.18 70.74
75.69 76.29 75.93 75.56 75.49 76.32 76.03 75.99 75.32 73.63 70.24 74.51 74.89 76.16 77.88 78.33 77.22 78.99 79.47 73.41 72.77 70.20 68.88 67.62 67.47 68.29 69.10 69.12 68.54 68.21 68.20 68.22 68.08 68.14 68.10 68.20 68.57 68.90
76.25 76.07 76.17 77.11 75.09 75.53 76.37 76.17 75.27 74.60 72.10 73.89 75.65 77.02 78.22 78.22 78.47 79.31 79.13 79.08 77.20 70.92 68.70 67.31 66.60 67.49 68.13 67.73 66.36 66.00 65.96 65.83 65.58 65.78 65.90 65.79 65.70 65.57
75.77 75.92 75.50 75.64 76.79 76.87 75.86 76.75 75.86 76.49 74.24 73.80 75.95 75.72 76.95 78.46 78.72 78.81 78.03 77.41 78.48 73.15 68.43 66.99 66.74 66.83 65.96 64.77 63.39 62.78 62.08 62.03 62.31 62.12 61.52 61.50 61.54 61.84
75.91 76.13 76.00 76.33 76.22 75.85 76.69 76.02 75.90 76.27 76.29 74.96 74.21 75.87 76.56 77.14 77.46 78.05 78.34 78.80 77.87 73.20 69.63 68.31 68.17 66.68 63.98 61.65 60.19 58.63 56.81 57.09 57.46 57.65 57.77 57.90 58.76 59.52
76.63 76.55 76.52 76.41 76.65 77.19 76.41 76.83 76.72 75.94 76.12 75.27 74.33 74.58 75.23 77.18 77.12 75.69 74.93 76.47 76.78 77.98 74.77 72.00 71.13 65.20 62.60 60.54 60.12 58.38 56.04 55.39 55.04 55.03 55.03 55.29 56.14 56.89
76.72 76.72 76.79 75.77 72.20 73.37 75.77 76.72 77.04 76.05 75.04 74.35 73.77 73.97 74.07 74.14 74.42 75.72 74.92 75.91 77.49 78.16 76.50 77.61 78.68 79.72 69.47 63.63 62.89 59.81 57.88 57.00 55.61 54.76 54.31 53.99 54.19 54.98
76.18 76.58 77.14 73.14 72.55 68.01 67.59 68.25 72.57 76.33 75.82 74.45 73.67 73.53 74.99 75.58 75.83 75.10 75.02 74.45 72.24 77.95 76.77 76.51 78.88 79.33 76.35 73.42 60.55 59.16 57.96 57.31 56.09 55.18 54.45 53.99 53.90 53.96
76.81 76.66 76.22 75.97 74.01 76.91 69.69 66.67 67.03 66.00 68.37 76.10 74.86 74.75 75.05 76.19 76.96 76.16 76.29 75.75 74.41 75.71 76.62 75.26 78.65 78.14 74.70 65.93 59.60 58.63 57.68 56.91 56.14 55.55 54.50 53.49 52.73 52.46
76.82 77.05 76.83 76.90 76.63 76.16 76.48 76.13 76.33 76.56 75.53 74.16 75.48 76.49 77.33 78.20 78.18 77.67 77.25 76.71 76.39 76.48 78.60 74.70 77.38 77.32 73.47 69.95 59.15 58.53 57.45 56.59 55.81 55.21 54.21 53.01 51.13 50.77
76.74 76.71 77.22 76.97 71.16 65.56 75.58 75.39 76.05 76.21 70.34 66.45 66.67 66.34 66.09 64.41 68.68 76.07 74.58 73.42 72.16 73.10 77.65 76.69 76.28 77.42 73.66 71.22 65.18 58.03 56.80 55.40 54.84 54.60 54.21 52.59 50.68 50.28
75.58 76.84 66.75 73.35 65.73 62.49 74.24 75.24 74.75 75.14 75.62 75.79 76.51 71.18 66.67 71.79 62.30 73.91 75.48 73.39 72.76 72.37 76.95 75.57 75.46 77.25 73.87 74.39 69.29 65.70 62.33 55.27 53.72 53.59 53.19 51.84 50.36 61.50
72.05 72.64 73.38 62.73 61.16 58.86 61.81 76.21 75.07 75.13 72.68 75.54 75.43 75.69 76.48 77.02 76.99 75.33 76.27 75.43 73.61 73.28 75.65 77.46 75.69 76.64 75.19 73.03 72.49 70.14 69.50 67.43 65.47 60.49 52.83 51.40 50.32 52.21
73.42 73.71 73.57 60.47 57.93 57.57 59.76 63.98 61.47 63.41 74.26 73.33 73.06 73.92 74.45 74.97 75.76 76.91 78.67 77.81 77.31 77.39 79.22 78.19 76.08 76.12 75.12 73.15 71.86 72.84 70.87 69.75 67.54 66.32 65.63 57.26 51.43 52.12
73.92 70.91 63.19 56.91 56.04 58.93 57.65 60.31 59.16 71.54 72.84 72.22 72.10 72.73 74.26 75.48 76.99 76.95 77.31 77.83 78.12 78.30 77.39 78.98 77.12 78.13 75.96 73.16 73.49 73.40 70.31 69.33 67.57 65.96 65.64 64.51 63.36 62.57
66.91 71.18 68.77 65.96 63.96 68.12 68.52 64.09 69.84 72.96 72.62 72.41 72.21 73.46 74.88 75.15 74.71 75.38 74.56 75.42 75.48 75.64 78.20 78.03 77.24 77.00 74.15 73.91 73.64 73.87 72.07 69.30 66.62 65.74 65.05 64.20 63.42 63.35
68.98 72.35 72.79 72.65 72.59 73.07 73.45 73.97 74.28 73.59 72.53 73.26 73.54 73.51 73.91 74.44 74.35 75.56 75.40 75.26 74.19 74.21 74.47 76.81 75.64 75.42 74.17 72.82 72.36 73.23 72.78 70.31 68.53 67.13 63.78 64.46 63.83 62.46
68.98 72.21 72.44 72.44 71.69 71.52 72.17 73.45 74.00 72.12 73.88 73.55 73.58 73.57 73.42 73.82 74.14 75.21 75.49 74.78 74.05 74.00 73.64 76.56 73.41 71.43 70.16 70.77 68.94 72.00 71.48 69.55 68.45 66.03 64.85 63.90 64.89 63.02
71.23 72.38 72.55 72.72 72.24 72.12 73.01 73.53 73.42 74.28 75.92 73.59 73.21 73.25 73.67 73.76 73.09 74.31 74.78 74.73 74.08 74.38 74.61 76.43 72.97 69.67 68.38 67.62 69.98 57.39 70.20 68.78 67.23 65.13 65.27 64.71 64.48 65.10
72.01 72.43 72.89 72.69 72.65 73.23 73.33 72.85 73.11 74.45 74.66 74.10 73.50 73.56 73.51 73.56 73.48 73.69 74.05 74.36 73.99 74.52 74.49 69.80 68.97 69.65 70.00 69.87 70.31 70.28 52.16 68.86 66.34 65.94 65.54 65.04 64.24 52.26
68.45 71.52 73.11 73.81 73.91 74.60 74.51 74.48 74.53 72.31 72.17 73.70 73.59 73.67 74.09 74.55 73.91 74.28 74.20 64.67 68.67 72.91 69.77 69.61 71.08 65.52 72.41 70.47 68.01 68.38 67.28 53.86 58.75 65.33 66.89 64.93 64.51 63.93
74.49 73.09 73.21 74.52 73.99 74.17 74.47 74.49 74.79 72.08 72.06 72.60 72.81 73.17 73.14 73.63 73.24 73.56 73.18 68.56 66.89 69.29 70.06 72.01 70.12 69.64 68.81 67.72 67.65 66.61 64.82 62.78 54.83 53.39 54.18 56.08 63.92 61.52
74.52 75.14 74.79 74.40 75.03 75.72 74.76 73.94 73.48 73.18 72.40 72.33 72.48 72.86 72.76 71.69 72.12 70.62 69.07 68.96 69.80 70.42 70.00 68.20 67.58 67.81 67.22 65.90 62.97 63.46 63.20 62.75 62.29 59.92 60.67 53.96 53.56 53.77

GFSNE_sfc_wetblb_072.txt.gz
Wetbulb
76.35 76.61 75.95 76.60 77.04 77.03 76.87 75.42 72.30 70.31 71.55 74.37 74.79 78.16 77.76 78.49 77.24 78.83 79.10 72.80 72.31 71.15 69.11 68.32 68.54 69.92 70.58 70.56 70.20 69.73 69.59 69.58 69.43 69.39 69.22 69.36 69.57 70.16
75.15 76.61 77.06 75.58 76.15 76.12 75.67 76.14 75.33 72.74 70.36 75.72 75.53 76.84 78.81 78.59 78.24 79.05 78.54 75.18 75.16 71.42 69.11 68.33 68.18 69.27 70.28 69.87 68.62 68.15 68.39 68.25 68.04 67.82 67.51 67.29 67.06 66.84
76.68 76.36 77.05 77.80 75.30 75.02 75.75 75.54 74.76 74.46 71.71 73.38 76.33 78.36 79.22 79.19 79.29 79.89 78.70 78.30 76.74 71.45 69.83 68.37 68.15 68.50 69.05 67.71 66.91 66.76 66.20 65.69 65.40 65.06 64.60 63.87 63.61 63.68
76.60 76.65 76.16 75.61 77.44 77.45 75.70 76.77 76.27 76.51 74.12 74.23 76.63 76.08 77.92 79.12 79.08 79.45 78.01 77.59 78.30 72.58 68.96 68.56 68.09 67.66 65.40 64.49 64.01 62.93 62.13 61.47 60.72 60.46 60.33 60.70 61.10 61.58
77.06 76.70 76.82 76.64 76.35 75.69 76.71 75.51 75.56 76.04 76.26 74.93 74.36 75.76 76.50 77.62 77.97 79.50 78.65 79.07 77.40 73.26 69.61 69.06 67.75 64.95 63.00 61.48 60.44 58.58 56.64 57.25 57.20 57.14 57.34 57.94 58.69 59.54
77.79 77.50 77.09 76.87 77.08 77.48 76.98 77.51 77.33 76.11 76.71 74.86 74.35 74.39 75.27 77.54 77.20 75.21 74.48 75.93 76.49 77.46 75.30 72.87 70.29 64.19 62.12 60.49 59.77 58.20 56.14 55.47 55.41 55.49 55.49 55.64 56.15 56.92
78.01 78.30 77.92 75.80 72.57 74.06 76.68 78.23 78.80 76.52 74.77 73.89 73.63 74.03 74.15 74.27 75.68 74.62 74.32 74.70 77.62 76.72 77.14 76.30 77.68 73.06 67.74 62.46 63.83 60.16 58.30 57.22 56.15 55.46 54.82 54.36 54.78 55.43
77.28 78.25 78.45 74.10 73.42 68.95 68.85 68.88 72.59 76.93 76.12 75.00 73.94 74.06 77.49 76.23 75.89 74.33 74.30 73.00 72.15 76.99 76.64 74.40 76.76 78.45 79.90 77.25 63.22 60.00 58.55 57.42 56.48 55.95 55.34 54.32 54.30 54.51
77.41 77.24 77.34 76.89 75.18 77.57 70.22 67.30 67.77 66.43 68.01 76.03 75.51 75.99 76.53 76.85 77.80 76.56 77.68 75.49 74.62 76.08 76.24 73.22 76.21 77.65 79.79 68.35 60.21 59.37 58.50 57.68 56.48 55.33 55.24 54.29 53.42 53.22
77.43 77.50 78.11 78.33 77.66 77.03 77.35 76.64 76.99 77.30 76.20 75.32 75.89 76.35 77.79 78.27 78.96 78.82 78.55 78.19 77.12 76.73 78.87 73.51 76.08 75.57 80.17 76.84 59.61 59.49 58.43 57.63 56.73 55.72 55.09 54.37 52.38 51.80
77.54 78.40 78.87 78.63 71.98 65.71 76.91 76.41 76.88 76.99 70.83 66.49 67.15 66.57 64.70 64.81 69.32 75.78 73.71 72.48 71.08 71.72 75.37 73.47 74.99 75.65 79.37 77.00 71.59 58.88 57.67 57.06 56.46 56.09 55.26 54.43 52.13 50.47
76.16 77.89 67.84 74.32 66.42 62.93 76.76 76.80 75.83 75.87 75.39 75.72 76.57 72.97 69.09 73.81 65.03 74.98 75.57 72.43 71.14 70.28 75.73 73.74 74.45 75.06 74.09 78.52 77.14 67.10 63.95 55.85 54.57 55.78 55.54 53.98 51.51 63.12
73.04 72.75 73.47 63.12 62.01 59.43 62.53 77.82 75.81 75.09 72.65 74.91 74.55 74.39 75.33 76.57 77.78 77.42 77.69 76.04 72.49 71.14 72.94 76.04 74.21 74.61 74.85 75.44 77.38 75.98 72.90 69.52 66.68 61.84 52.24 53.89 51.91 53.24
74.88 74.68 75.08 60.01 57.84 58.98 61.31 64.83 61.02 64.12 73.30 71.16 70.74 70.92 71.48 72.85 74.36 76.66 80.38 79.68 78.49 79.25 79.87 80.48 75.52 74.95 74.45 73.92 73.94 80.81 75.10 74.59 73.68 71.87 70.65 59.04 51.58 53.36
74.62 71.63 62.39 57.12 54.00 58.27 58.80 61.41 60.50 72.42 72.14 70.17 70.27 70.49 71.66 72.34 77.38 78.59 80.38 82.42 80.85 80.39 79.19 79.96 78.07 78.36 76.57 75.00 74.72 76.45 76.73 73.96 73.74 71.92 70.88 69.52 68.59 67.18
66.49 70.27 69.47 66.03 62.08 67.54 69.69 65.24 70.99 73.19 72.36 71.97 71.16 71.60 72.84 72.24 72.39 74.23 74.53 75.08 75.06 75.18 80.27 80.29 80.52 79.25 76.67 76.49 76.60 75.76 77.04 73.64 73.28 72.12 70.50 70.10 69.33 67.67
70.17 73.84 73.83 73.80 73.81 74.24 74.15 74.30 74.46 73.86 72.81 73.32 73.43 73.22 72.62 72.05 71.95 73.64 73.97 74.19 73.22 72.96 73.23 75.98 80.07 80.27 78.36 77.31 73.80 74.93 75.54 76.08 74.72 72.87 70.36 69.36 70.13 68.80
70.89 72.65 73.64 74.21 74.08 74.47 73.99 73.88 74.28 72.48 74.69 74.57 74.23 73.78 73.02 72.40 72.05 72.99 73.71 73.40 73.02 73.45 73.59 74.78 78.28 76.06 74.41 74.73 71.94 74.97 76.18 74.29 76.81 72.88 71.08 68.78 68.99 70.48
71.12 73.00 73.78 74.40 75.14 75.34 75.29 75.11 74.35 74.81 76.74 74.60 74.26 74.05 73.35 73.44 71.95 72.52 72.84 73.52 74.48 74.44 74.46 75.14 75.15 74.64 71.69 70.91 74.59 63.14 74.04 76.11 73.21 71.35 70.15 69.42 68.54 68.90
71.01 71.79 72.98 75.00 75.62 76.23 75.69 75.91 75.81 76.02 75.92 75.53 75.22 74.73 74.42 73.42 72.75 72.80 73.05 73.73 73.74 74.54 74.82 76.08 76.16 75.59 72.79 72.41 72.65 74.50 56.31 73.66 72.42 70.12 69.30 69.75 66.30 55.44
71.78 72.47 72.52 73.98 75.14 75.40 75.62 76.32 76.97 76.55 75.98 76.27 76.16 75.74 75.26 74.65 73.80 73.87 73.56 64.63 68.65 74.52 75.18 74.83 75.60 67.59 76.06 75.79 72.24 71.87 69.35 54.32 62.68 71.03 70.26 67.97 66.61 66.79
74.10 74.18 74.40 74.73 75.09 76.47 76.73 76.87 76.41 75.75 75.51 75.20 75.72 75.90 74.80 75.43 75.45 75.29 75.09 74.65 74.88 75.03 75.62 76.17 75.80 72.68 72.41 72.02 71.57 71.93 69.56 68.26 58.01 55.28 55.52 58.57 65.63 62.41
74.26 75.37 75.64 75.69 76.06 76.30 76.50 76.16 76.18 76.20 75.25 74.93 75.18 75.05 74.77 73.05 73.41 73.37 73.35 73.52 74.08 74.54 74.40 71.92 69.41 70.76 70.77 70.61 67.59 69.85 68.01 67.88 65.69 62.21 62.66 54.60 54.38 54.13

GFSNE_sfc_wetblb_075.txt.gz
Wetbulb
76.58 77.20 76.34 74.95 74.42 75.17 74.38 73.74 72.55 69.59 69.99 74.43 73.30 78.46 77.51 77.55 76.97 78.82 78.96 73.45 73.48 72.22 70.49 69.76 69.18 70.44 71.57 71.14 70.13 69.83 69.90 69.95 69.69 69.47 68.91 68.63 68.37 68.65
74.53 78.39 78.43 75.87 75.30 74.67 74.48 74.60 74.06 72.56 70.39 73.62 74.22 77.05 78.96 78.51 78.42 79.22 79.03 74.93 73.60 73.14 70.20 69.95 69.75 70.10 70.84 69.50 68.96 68.77 69.08 68.58 67.90 66.86 66.03 65.19 64.75 65.05
78.10 76.84 77.70 79.85 75.47 74.44 74.45 74.38 74.10 74.04 71.56 72.92 75.19 79.08 79.59 80.45 79.83 80.69 79.10 80.05 77.78 71.63 70.24 70.47 69.51 69.85 69.31 68.23 67.68 67.05 66.26 65.06 63.90 63.37 63.25 63.28 63.11 63.27
76.56 77.83 75.93 75.46 79.17 79.20 75.73 80.22 76.75 78.28 74.23 76.96 76.66 74.65 79.03 81.20 81.52 81.81 78.54 77.34 78.36 72.82 69.12 69.13 69.33 68.34 65.70 65.46 64.61 63.34 61.44 61.03 60.56 60.21 60.51 60.83 61.30 61.39
76.64 77.04 76.72 77.68 78.28 76.64 78.09 75.71 75.53 76.06 76.22 74.40 74.52 75.47 75.95 77.13 78.48 80.54 81.31 80.67 78.51 73.03 68.58 69.17 68.30 66.12 63.88 62.14 60.92 58.97 57.13 57.55 57.57 57.72 57.61 57.92 58.62 59.12
77.50 77.81 77.53 77.54 78.42 79.09 77.15 79.23 77.50 76.65 76.33 74.01 73.35 73.65 74.90 78.62 76.99 75.43 74.89 75.42 75.32 76.25 75.09 74.16 70.97 65.75 63.16 61.28 60.06 58.31 56.36 55.90 56.08 56.04 55.85 55.98 56.29 56.82
78.27 77.95 78.65 76.72 72.98 74.97 76.06 78.22 78.96 77.14 74.26 73.24 72.70 73.19 73.45 74.16 76.46 75.84 74.43 75.05 78.13 76.01 75.14 76.50 75.89 72.64 67.46 61.76 63.73 60.87 58.50 57.62 56.67 55.97 55.28 54.72 55.09 55.54
78.74 79.59 79.88 74.37 73.59 69.19 68.92 69.42 72.60 77.15 78.81 74.90 73.75 73.79 78.67 76.81 75.25 74.36 73.98 72.35 70.86 76.48 76.40 74.88 75.51 74.77 75.95 73.92 67.38 61.72 59.32 58.16 57.04 56.53 56.20 54.95 54.81 54.93
78.93 79.62 77.96 75.97 75.40 78.22 70.34 68.38 69.06 67.10 67.81 76.32 76.53 76.59 76.67 78.46 78.77 78.49 76.71 76.52 74.41 75.49 76.21 73.19 75.31 75.33 77.65 68.01 61.92 60.23 59.02 58.49 57.53 56.84 56.46 55.19 54.27 54.29
78.69 79.37 79.21 79.16 79.07 78.43 78.46 77.50 76.89 77.47 76.85 74.88 75.76 76.79 78.02 79.02 79.26 78.49 79.02 79.23 77.79 77.48 78.74 73.16 75.58 74.92 76.74 70.19 60.34 59.92 58.77 58.01 57.42 57.62 57.45 56.28 53.87 52.75
77.97 78.13 78.65 79.30 73.13 67.13 77.39 78.27 78.31 78.69 71.20 67.75 69.11 68.79 68.12 66.22 69.43 75.63 73.72 72.32 70.62 71.72 74.49 72.70 73.30 73.75 75.25 75.23 66.76 59.56 58.06 57.14 56.73 56.69 57.46 56.62 53.22 51.18
76.25 77.18 68.24 73.88 67.05 64.26 77.29 77.52 76.65 77.55 78.66 76.70 76.40 72.06 68.46 73.01 65.06 74.40 75.33 72.93 71.76 70.77 74.04 72.24 72.52 73.43 72.51 76.07 72.09 64.16 63.00 56.16 55.00 54.92 55.05 56.99 53.71 60.69
74.61 75.02 75.55 64.11 61.90 60.20 61.17 77.95 76.46 77.60 75.73 76.70 75.93 75.10 75.13 77.07 77.72 77.77 78.41 76.22 73.41 72.47 73.96 74.14 72.62 73.00 73.01 72.98 75.87 71.94 71.46 67.75 64.09 60.34 52.32 52.67 54.78 54.34
75.23 75.36 75.66 60.35 58.37 59.31 62.18 65.70 62.84 65.53 76.24 75.08 73.51 72.17 72.14 73.25 73.62 75.04 79.57 79.47 78.41 77.54 78.69 79.72 75.36 74.42 73.10 71.89 72.11 76.09 75.96 74.23 71.09 71.88 71.79 60.17 51.49 52.51
75.70 72.11 59.98 57.59 54.51 56.96 57.39 60.49 60.55 72.27 73.81 73.72 73.25 72.82 72.48 72.63 74.61 75.62 77.23 82.05 81.00 81.05 79.45 81.00 78.78 78.05 76.77 74.26 73.33 74.38 74.07 76.46 75.99 74.03 73.70 70.95 69.04 65.55
67.76 71.87 69.82 65.89 60.84 65.53 69.36 65.47 69.77 73.39 73.75 73.62 73.66 74.11 74.02 72.68 72.30 73.71 72.82 73.07 73.78 75.73 80.49 80.34 80.50 80.32 76.69 76.29 76.09 75.38 75.94 75.99 76.86 73.33 74.06 72.63 71.91 70.52
70.87 74.45 73.78 73.62 73.63 74.71 75.67 76.21 76.55 75.19 73.69 74.08 74.41 73.93 73.58 73.34 72.74 73.83 73.19 73.06 72.82 73.62 74.17 75.81 80.41 80.62 79.58 78.92 75.39 76.21 76.05 75.95 78.73 75.52 73.96 73.49 72.16 72.15
69.63 73.08 73.62 74.26 75.01 75.01 75.55 75.87 76.68 73.75 75.77 75.67 74.79 74.35 73.85 74.14 74.21 74.66 73.90 72.86 72.43 73.54 74.09 75.05 75.24 77.05 76.57 78.47 74.29 75.96 75.70 76.34 77.34 76.00 72.94 71.08 71.00 73.55
69.79 73.63 73.88 74.38 75.18 75.99 75.85 75.91 75.84 76.22 76.94 75.80 75.76 75.98 75.51 75.18 73.91 74.06 74.05 73.54 73.14 73.86 74.41 75.54 75.44 74.37 72.68 71.42 75.47 68.32 75.07 76.23 76.54 74.93 73.96 72.26 70.59 72.50
69.60 71.98 73.80 74.98 75.76 76.35 76.14 76.42 76.41 76.42 76.70 76.96 76.82 76.15 75.74 75.33 74.77 74.33 74.06 73.63 73.18 73.85 74.39 76.03 75.80 75.42 74.39 72.80 73.35 75.97 59.05 76.07 75.57 74.25 72.66 73.27 65.29 56.49
72.28 72.97 73.60 74.78 75.36 76.36 76.97 77.35 77.77 76.77 76.72 76.47 75.66 75.48 75.25 75.10 75.20 75.16 74.46 64.65 68.05 74.51 74.00 74.33 76.23 69.98 80.66 79.74 73.79 73.54 75.66 57.78 63.36 72.92 73.99 70.62 68.77 67.80
71.01 74.28 74.40 74.46 74.62 76.45 77.06 76.93 76.81 77.16 77.76 77.03 76.26 77.03 77.79 76.90 75.17 74.84 74.16 72.69 74.55 73.95 73.99 75.51 79.65 78.28 77.38 74.37 72.88 73.56 73.49 72.68 62.24 59.16 58.63 61.17 70.02 64.75
71.45 73.63 76.35 76.45 76.15 77.15 76.81 76.62 76.32 76.51 76.65 76.50 76.66 76.26 76.95 75.70 76.59 76.21 76.22 75.49 75.21 75.33 76.09 75.47 76.83 75.69 74.72 74.08 70.40 71.37 70.51 71.30 68.32 67.89 67.63 56.49 54.65 55.09

GFSNE_sfc_wetblb_078.txt.gz
Wetbulb
77.72 76.67 76.08 73.95 75.28 74.47 75.06 74.78 72.12 69.52 70.13 74.44 72.65 77.39 77.54 78.17 76.08 78.33 78.03 75.43 75.51 72.89 71.95 70.18 69.61 70.74 71.64 70.40 69.96 70.03 70.23 70.10 69.30 68.31 67.18 66.42 66.52 66.95
75.33 76.55 77.26 72.65 76.04 75.50 74.65 75.33 74.72 73.12 69.21 72.50 75.11 77.59 78.21 78.16 78.56 79.34 79.22 75.09 73.70 73.29 72.45 70.46 69.91 70.59 70.72 69.68 69.23 68.91 68.26 67.61 66.84 65.89 65.24 64.96 64.57 64.74
77.98 76.72 76.35 77.36 74.68 76.38 75.13 75.40 74.61 75.01 72.66 73.56 75.52 79.63 78.74 78.80 77.99 79.27 79.27 78.09 76.68 72.12 73.29 70.84 69.93 70.44 69.55 68.69 67.73 66.49 65.40 64.25 63.95 63.93 63.41 63.33 62.99 62.75
76.52 75.97 76.37 76.03 77.01 77.42 76.18 75.76 76.31 76.26 74.78 72.92 74.68 74.55 74.63 76.29 79.52 78.57 78.91 77.49 76.85 72.59 70.65 69.31 69.16 68.63 66.88 66.47 64.88 63.12 61.64 60.96 60.97 61.01 60.87 61.04 61.21 61.04
77.43 77.05 76.40 77.10 76.47 75.77 77.31 76.54 75.28 75.92 76.01 74.08 72.84 75.77 76.20 76.53 76.54 78.47 78.46 78.47 78.93 73.38 68.83 69.09 67.95 66.79 64.74 63.22 61.72 59.53 57.68 57.74 57.98 58.21 58.32 58.57 58.92 59.16
77.13 77.69 77.39 76.74 76.59 76.63 76.15 76.38 75.71 75.82 75.00 74.68 73.22 72.58 73.47 74.68 77.17 75.05 75.14 74.99 74.39 76.74 74.61 72.45 69.57 66.73 64.19 61.86 60.53 58.91 56.38 56.18 56.34 56.20 56.07 56.19 56.83 56.94
76.32 76.98 77.45 77.50 74.33 75.17 75.75 76.33 75.96 75.42 74.33 72.94 72.09 72.52 72.70 75.16 75.07 75.94 73.97 74.78 74.75 75.51 73.55 75.81 71.99 68.20 64.57 62.53 62.93 61.72 58.40 57.44 56.53 55.94 55.16 55.05 55.19 55.80
75.52 76.96 77.85 75.22 73.10 69.14 68.86 69.11 73.12 76.14 75.12 74.44 74.04 72.75 73.24 75.24 75.32 74.84 73.74 71.76 69.31 75.27 74.15 73.05 74.32 73.19 72.02 65.86 65.06 62.00 59.50 58.34 57.20 56.69 55.96 55.35 55.01 55.06
76.72 76.36 76.69 75.67 73.94 75.83 69.03 67.72 68.06 66.82 68.98 73.24 72.28 73.43 73.55 74.39 75.49 75.15 74.43 74.50 73.64 74.07 73.73 71.07 73.75 73.66 75.35 70.29 64.31 61.59 59.24 58.28 57.51 57.22 57.87 56.06 55.07 54.64
76.43 76.89 76.48 76.18 76.67 77.04 77.05 75.69 74.25 74.59 73.31 71.31 71.61 72.02 73.20 74.19 75.59 75.14 74.36 74.96 75.72 76.39 76.13 72.10 74.52 73.80 74.21 70.09 62.88 60.98 58.93 57.93 57.21 56.88 56.72 58.03 55.24 53.46
75.69 76.00 75.68 77.18 71.51 67.64 74.84 75.57 76.36 76.62 71.47 67.61 68.54 67.88 67.41 66.27 69.01 74.54 72.77 71.24 69.71 70.49 71.77 70.14 69.87 71.73 72.79 68.76 62.72 60.01 58.14 56.93 56.20 56.17 56.26 57.23 54.96 51.73
73.77 74.62 68.04 71.64 66.20 62.87 73.36 74.78 73.66 74.19 76.34 76.63 72.82 69.12 66.85 69.61 64.77 71.09 73.62 71.59 71.19 70.20 72.19 69.81 70.40 70.87 69.34 73.72 67.15 61.29 59.21 56.25 54.73 54.60 54.71 55.06 55.75 54.27
73.66 73.64 74.06 64.13 61.11 60.16 60.69 74.81 74.09 74.34 73.39 74.95 75.17 74.74 74.51 75.15 75.30 74.01 73.97 73.26 71.70 71.54 73.07 72.26 69.92 72.97 71.76 70.36 72.38 66.35 64.02 61.15 58.13 55.83 52.49 52.36 52.59 54.59
74.14 74.46 74.39 61.27 58.54 59.71 61.33 63.52 62.57 64.81 74.59 74.11 73.73 73.32 72.81 72.51 72.63 72.48 75.81 75.73 75.69 74.56 75.05 74.25 73.76 72.80 71.80 70.99 70.38 71.03 69.41 68.77 64.35 65.06 62.30 56.35 51.27 52.28
75.19 72.13 64.98 60.10 56.74 56.74 56.87 58.52 58.31 69.00 71.25 71.39 71.28 72.05 72.98 73.39 72.39 71.32 71.09 76.41 77.17 77.20 76.81 76.44 75.48 75.03 74.76 72.82 71.73 71.33 70.91 71.52 68.95 69.69 70.75 64.19 61.40 58.49
65.48 70.82 69.00 65.90 63.29 65.36 66.11 63.10 64.66 69.72 70.47 70.67 70.87 71.94 73.22 73.20 72.39 71.97 69.66 68.98 68.92 74.10 78.03 77.67 77.87 76.63 74.61 74.73 73.42 72.94 73.54 71.26 73.97 73.37 72.81 68.62 67.10 66.00
63.00 72.31 72.74 72.92 72.29 72.30 72.51 73.12 73.13 71.06 70.32 71.44 71.76 72.03 72.65 72.82 72.30 72.16 70.33 69.25 68.84 69.09 69.25 75.10 77.42 77.65 77.04 75.39 73.53 74.18 74.04 73.90 74.62 74.12 71.89 70.69 70.46 69.98
66.01 70.24 71.22 72.64 73.15 73.32 72.67 72.41 73.15 72.21 74.08 72.92 72.57 72.35 71.91 72.08 71.95 72.24 71.63 70.31 69.37 69.47 69.33 70.17 73.04 74.84 75.79 76.19 73.27 73.71 74.38 73.73 74.45 73.71 73.40 69.81 68.86 71.21
64.57 67.80 70.50 72.50 73.33 73.66 73.88 74.26 73.95 74.56 75.00 74.61 74.23 73.89 73.29 72.87 71.17 71.28 71.10 71.36 71.55 71.20 70.54 71.20 72.62 71.97 69.47 68.55 72.57 67.35 73.67 73.94 73.16 73.04 72.71 69.96 68.97 70.39
64.97 66.76 68.26 70.25 71.58 72.89 73.65 73.76 74.87 75.57 75.61 74.61 74.23 73.64 73.50 73.48 73.29 72.56 72.44 71.85 71.28 70.96 70.42 71.21 72.09 70.83 69.33 68.73 69.23 73.44 62.36 74.21 72.97 72.17 71.70 69.43 61.58 59.39
67.02 68.63 69.70 70.49 71.33 72.44 73.87 74.55 74.38 74.14 74.81 75.26 75.61 74.71 74.69 73.37 71.77 71.43 71.41 63.45 66.15 70.97 70.37 70.60 71.51 66.25 73.35 75.75 71.22 71.31 72.75 58.87 66.33 72.94 72.11 69.89 63.95 63.46
66.57 67.01 68.17 69.41 72.82 72.94 73.43 74.84 74.97 74.25 74.10 75.07 75.88 75.21 76.60 75.43 73.23 73.21 73.20 71.90 71.42 71.45 71.52 72.77 72.46 73.06 72.90 71.43 70.02 70.75 71.40 67.96 59.78 61.12 60.71 62.80 66.15 64.77
69.36 70.17 71.16 72.01 74.54 74.45 74.29 74.58 74.50 74.45 74.56 74.19 74.78 75.38 75.44 74.46 74.34 74.56 73.68 73.60 72.32 72.21 72.04 71.72 72.57 72.05 71.49 71.20 68.63 71.36 71.80 72.44 67.41 65.31 64.84 59.73 58.65 56.79

GFSNE_sfc_wetblb_081.txt.gz
Wetbulb
71.30 71.34 70.31 70.63 69.99 71.52 70.65 69.68 67.81 64.32 65.13 69.25 67.86 71.56 73.23 74.29 73.73 74.83 74.69 74.60 72.25 73.87 71.53 70.00 69.54 70.23 71.07 70.04 69.91 69.74 69.44 68.63 68.05 66.88 66.22 65.89 66.17 66.33
70.30 69.85 71.41 70.16 69.72 71.74 71.72 70.81 69.57 67.39 65.39 70.18 71.84 73.65 75.18 75.55 75.44 75.36 75.66 74.24 73.00 71.28 72.02 70.38 69.70 69.92 70.08 69.31 68.65 67.97 67.40 66.42 65.71 65.53 65.10 64.38 64.35 64.07
71.98 72.21 71.71 72.95 71.30 72.23 72.43 71.04 71.12 70.80 68.74 70.10 71.92 74.27 72.30 72.97 74.94 75.44 76.06 75.51 74.74 72.11 70.58 70.73 69.42 69.33 69.20 68.36 67.28 66.25 65.06 64.08 63.88 64.22 63.48 62.98 62.85 62.11
71.32 71.86 70.54 73.72 72.08 72.94 71.48 70.97 70.76 70.39 69.20 66.63 68.92 69.26 69.89 71.29 72.57 75.57 75.49 77.43 75.03 73.30 69.93 69.86 68.27 68.22 67.16 66.16 64.78 63.63 62.17 61.67 61.30 61.49 61.97 61.28 61.00 60.42
71.79 71.83 71.89 71.59 71.48 71.38 70.55 71.65 71.37 73.26 71.86 70.68 69.92 70.85 72.09 71.14 70.66 72.47 74.78 74.91 75.91 74.95 68.88 68.08 67.21 67.09 65.44 63.93 62.38 60.28 58.27 58.21 58.63 58.66 58.90 59.63 59.17 58.72
72.98 73.37 72.95 71.59 71.97 71.31 70.89 70.87 71.71 70.49 71.17 70.03 69.25 69.13 68.93 70.56 71.64 71.90 71.05 71.34 71.68 74.73 71.80 69.58 68.18 67.09 65.46 62.82 61.73 59.64 56.84 56.29 56.30 56.51 56.64 56.86 57.17 57.41
73.11 73.35 73.62 74.15 73.28 72.67 72.48 71.40 72.08 70.96 70.46 69.94 69.24 69.21 69.99 70.73 71.33 72.35 70.41 71.09 70.19 70.36 70.24 71.89 69.33 68.26 66.15 63.63 63.10 62.58 58.21 57.16 56.27 55.82 55.10 54.77 55.05 55.54
71.28 71.99 73.42 73.03 72.45 69.96 69.83 70.43 72.67 72.04 70.32 70.28 70.17 70.40 70.18 71.04 71.84 70.71 71.22 69.18 67.81 71.75 70.77 70.75 70.66 70.17 69.84 65.73 63.69 61.91 59.42 57.70 57.09 56.27 55.42 54.70 54.51 54.87
72.55 72.66 73.15 74.66 72.11 73.96 68.87 67.29 67.38 67.43 68.98 70.24 69.28 68.96 68.61 69.26 69.70 68.61 68.68 69.43 69.61 71.73 71.17 71.05 72.19 71.08 73.07 69.07 63.22 61.73 59.82 58.01 57.22 56.68 56.05 55.28 54.84 54.43
74.12 74.22 73.57 72.61 72.11 73.05 73.29 71.73 70.22 70.57 68.90 68.83 69.87 70.83 69.46 69.88 69.94 70.16 70.44 70.54 71.54 72.90 73.21 70.41 72.41 71.20 73.53 70.75 63.53 61.86 60.10 58.25 57.18 56.23 55.60 55.35 54.96 53.47
72.28 72.85 73.64 73.35 69.77 66.27 71.70 72.66 73.11 73.36 69.91 65.66 66.47 66.17 65.41 64.58 66.99 71.56 70.47 68.80 68.61 69.14 68.76 68.24 69.04 66.58 67.46 69.30 64.58 61.91 59.90 57.45 56.23 55.84 55.76 55.60 55.82 52.35
70.39 71.27 66.77 70.58 65.67 64.24 71.01 71.74 70.55 71.96 72.93 74.17 69.74 68.31 65.80 67.69 64.00 68.21 70.40 68.06 68.52 68.55 70.26 67.79 67.83 66.18 64.78 68.41 63.42 60.23 58.27 55.89 54.81 54.67 54.53 54.47 53.94 54.48
71.82 71.90 71.69 62.98 59.84 59.72 60.22 71.19 70.89 72.25 71.22 72.01 72.36 72.83 72.51 71.33 71.17 69.57 70.33 71.24 70.22 69.78 71.03 69.43 66.99 66.55 68.17 67.82 68.10 61.50 60.09 57.55 56.95 54.86 52.73 52.28 52.05 53.77
72.34 73.17 72.92 62.02 58.13 57.68 59.53 61.91 60.45 62.74 70.76 71.74 71.87 71.82 72.02 71.86 72.39 72.94 73.12 72.42 72.98 72.17 72.52 70.63 69.24 68.75 67.12 66.92 67.23 66.82 62.26 61.69 58.43 59.02 58.37 54.72 51.03 51.75
67.25 68.56 60.54 57.64 57.76 56.83 56.24 57.97 58.26 64.77 66.67 67.91 68.70 70.06 71.40 72.50 72.67 70.26 70.06 69.18 73.05 73.58 73.75 73.19 72.54 72.11 69.76 69.94 68.18 68.84 68.89 67.29 63.33 63.39 63.63 60.82 58.38 54.02
63.39 65.33 64.92 63.47 62.63 65.84 65.78 63.43 61.87 63.88 66.03 67.22 68.16 69.44 70.59 70.18 70.47 71.39 70.78 70.80 69.15 67.95 73.20 74.65 74.25 73.67 72.22 71.88 72.03 71.35 69.80 68.56 68.35 66.96 67.49 67.00 62.70 60.01
61.33 64.33 68.38 70.11 69.85 70.70 71.32 71.54 71.76 67.23 66.01 67.56 68.02 68.41 68.83 69.37 69.77 70.96 70.70 70.50 67.27 67.38 65.98 67.38 75.21 75.12 74.80 73.55 70.60 72.32 71.57 70.43 70.09 70.23 69.19 69.13 66.91 65.86
58.76 62.69 65.14 68.75 70.46 70.73 70.82 71.04 71.04 69.88 69.77 69.55 69.01 69.28 69.08 69.39 69.92 70.79 70.94 69.52 68.45 68.00 66.45 66.38 67.30 71.26 71.36 72.78 71.64 71.92 70.90 72.19 71.56 70.43 70.27 70.13 69.85 68.80
58.06 58.89 61.50 64.31 68.72 71.20 71.62 71.85 71.46 71.29 71.31 71.57 70.73 70.33 70.31 70.56 69.16 70.14 69.99 69.41 68.65 67.45 66.84 66.85 66.28 66.06 64.85 65.91 67.91 66.27 71.75 71.68 71.67 69.62 70.50 69.26 69.36 69.75
54.68 58.69 61.19 63.48 65.44 67.90 69.86 71.31 72.26 72.26 72.25 72.18 71.73 71.86 71.52 71.02 70.58 70.22 70.00 69.34 69.00 68.72 67.94 67.61 67.80 67.15 67.35 66.61 65.20 68.12 60.01 72.66 71.48 71.25 69.84 63.82 59.26 56.81
59.30 59.56 62.15 64.36 65.25 66.18 68.48 70.68 71.62 72.01 71.93 71.78 71.97 71.97 72.31 71.67 71.11 71.08 70.74 63.99 65.50 69.38 68.57 68.15 67.90 64.18 68.45 70.62 68.35 68.65 71.03 57.36 66.66 70.85 68.78 65.41 60.73 59.80
59.83 61.48 62.94 64.01 64.81 66.55 69.54 70.08 70.34 70.76 71.84 72.27 71.98 71.53 71.79 71.91 71.05 70.38 69.77 69.21 67.97 67.57 68.71 68.80 69.47 70.61 70.22 68.48 67.44 65.96 68.73 67.72 60.76 60.72 61.12 63.94 65.17 61.37
58.92 61.04 65.02 66.42 67.79 68.13 69.43 69.98 70.18 71.09 71.33 71.47 72.14 72.24 71.52 71.04 71.25 71.65 70.47 69.92 69.59 68.91 69.44 69.45 69.08 68.85 68.98 68.94 67.36 68.72 68.54 68.44 63.44 62.71 61.81 56.95 58.72 60.75

GFSNE_sfc_wetblb_084.txt.gz
Wetbulb
69.84 70.19 69.16 68.81 68.32 70.57 69.27 68.47 65.39 62.38 63.31 68.27 67.81 70.98 72.75 73.11 73.53 72.87 74.03 72.67 71.52 70.15 69.64 68.59 69.12 69.80 70.88 69.98 69.69 69.36 68.68 68.01 67.14 66.17 65.84 65.36 65.41 65.42
68.69 68.34 69.02 70.48 68.29 70.31 70.61 69.73 68.29 65.75 63.46 67.66 70.60 72.74 73.75 73.66 74.19 74.12 74.40 72.78 72.04 70.36 69.47 68.71 68.19 69.08 70.05 69.07 68.44 67.65 67.05 66.44 65.77 65.42 64.81 64.12 63.66 63.33
69.29 70.86 70.25 71.28 70.53 70.93 70.45 69.58 69.41 69.02 66.13 68.15 71.03 71.27 70.49 69.72 71.11 72.32 74.12 74.53 74.16 70.80 69.49 68.47 67.44 67.91 68.77 68.02 67.16 66.32 65.19 64.33 64.19 64.47 63.94 63.26 62.38 61.54
70.20 69.63 70.47 71.42 70.45 71.33 70.42 69.92 70.09 70.12 68.43 66.85 67.84 68.97 69.59 70.59 71.16 70.56 73.18 75.73 74.79 72.44 68.72 66.99 66.53 66.68 66.79 65.90 64.99 64.13 62.68 62.02 62.08 62.36 62.88 62.59 61.43 60.87
70.64 69.99 70.51 69.85 69.24 69.84 69.77 69.02 69.56 71.37 70.37 69.50 68.67 69.98 70.50 68.95 69.98 71.01 71.28 72.89 73.11 71.54 68.74 66.50 66.26 65.81 65.59 64.07 62.66 61.05 58.69 58.26 58.96 59.23 59.93 60.42 60.51 59.85
71.30 71.29 71.15 70.88 69.98 69.42 69.80 69.13 69.34 69.38 68.96 68.72 68.21 67.93 68.17 69.60 71.14 71.14 69.62 70.42 70.94 72.75 69.91 68.43 67.41 66.79 66.36 63.68 62.52 61.35 57.67 56.01 56.11 56.59 57.10 57.35 58.09 58.72
71.95 72.43 72.43 72.64 70.86 69.94 71.27 70.01 69.41 69.46 68.79 68.63 68.52 68.30 69.24 69.66 69.57 70.98 69.11 69.56 69.25 68.96 70.18 69.58 68.97 68.21 67.91 65.32 65.74 64.50 60.47 57.44 56.06 55.40 55.13 54.93 55.24 55.93
70.49 71.02 71.61 71.25 70.89 68.92 68.31 68.53 70.07 69.51 69.00 68.82 68.07 68.16 68.43 69.51 70.57 69.87 68.45 66.34 64.45 69.57 69.35 69.14 69.81 69.79 70.03 68.03 66.28 63.88 61.31 58.59 56.99 55.98 55.17 54.32 54.46 54.62
71.72 71.17 70.83 72.81 70.87 72.15 69.59 66.77 66.70 66.61 68.47 69.98 68.67 68.20 67.84 68.65 68.18 66.37 66.34 66.50 66.41 69.21 69.68 69.51 70.82 70.85 71.48 71.03 64.72 63.05 61.18 59.01 57.20 56.29 55.71 54.72 54.01 53.62
72.86 72.26 71.51 71.60 71.60 71.22 70.98 71.00 70.85 69.71 68.62 68.62 69.89 71.02 69.82 70.63 67.78 67.38 66.00 67.28 68.90 70.21 71.51 68.95 68.97 69.01 70.58 69.97 66.08 63.36 60.93 58.99 57.29 56.06 55.18 54.07 52.81 52.16
69.76 71.95 73.32 73.32 68.69 64.32 70.17 71.08 71.58 72.53 69.27 63.67 64.56 64.67 64.08 63.58 65.99 68.05 67.35 67.44 67.20 67.60 68.63 68.20 68.54 66.36 65.93 66.39 67.68 61.28 59.43 57.73 56.53 55.93 55.40 54.34 52.16 52.22
70.18 70.12 65.39 69.52 64.91 63.17 68.69 70.49 69.66 70.81 71.35 72.34 71.73 65.85 64.07 66.09 62.29 67.73 69.21 66.91 66.50 67.02 68.31 67.34 66.34 65.74 64.41 66.10 66.30 62.84 59.70 56.08 55.03 54.62 54.58 53.85 52.05 54.74
68.43 70.73 71.55 62.58 59.16 58.84 60.45 71.74 71.06 71.37 70.15 70.54 71.80 72.29 71.39 70.81 70.90 68.84 69.14 70.08 68.63 68.43 69.75 68.36 66.48 64.93 65.45 65.77 67.57 64.56 60.89 59.12 57.58 55.31 52.13 51.61 50.81 53.35
70.87 71.96 71.82 60.08 55.24 54.97 57.47 59.83 59.12 60.69 68.04 69.17 69.43 70.08 70.76 71.50 72.21 72.37 71.20 70.43 71.71 71.59 72.56 69.53 67.96 67.60 65.37 64.48 65.18 67.08 62.65 60.73 58.78 58.77 57.94 54.48 50.83 51.14
67.17 65.42 59.32 55.88 55.15 58.67 59.17 57.94 57.84 62.79 64.45 65.28 66.45 68.06 69.82 71.22 71.95 70.94 71.97 72.56 72.27 71.97 72.02 71.64 70.10 70.32 68.07 68.42 67.26 66.46 66.77 66.27 61.24 60.73 59.70 58.56 58.78 55.30
62.10 64.04 62.50 60.99 58.94 62.33 63.55 66.24 63.95 65.36 66.57 67.90 68.66 69.18 69.60 69.25 69.31 70.44 70.04 70.32 69.29 69.63 70.35 71.92 71.72 71.16 69.74 69.61 69.94 69.43 68.58 67.89 66.47 63.70 63.63 63.08 62.18 59.73
51.81 58.10 60.70 62.22 62.91 65.64 68.71 69.57 70.19 69.17 66.19 67.48 68.10 68.81 69.05 68.73 68.39 69.12 69.21 69.31 68.18 68.35 68.84 69.49 69.98 71.73 71.63 70.76 68.94 70.21 70.48 69.20 70.21 68.32 65.09 65.39 65.84 64.18
51.30 55.19 57.03 59.82 61.52 62.81 64.81 68.01 70.58 69.42 70.79 70.06 69.16 69.03 68.72 68.61 68.15 68.57 68.74 68.22 67.71 68.27 68.66 69.13 65.29 66.30 69.92 71.67 70.54 70.81 69.99 71.29 71.35 69.74 68.00 67.37 68.07 68.03
51.73 54.00 56.44 57.53 58.69 60.21 63.14 66.65 69.13 71.03 71.62 70.35 69.81 69.38 69.31 68.94 67.77 68.32 68.71 68.61 68.54 68.86 69.21 68.93 64.83 62.89 62.68 62.95 67.02 65.37 71.63 70.94 70.29 68.41 69.99 69.56 69.79 69.36
48.73 51.90 53.80 55.67 57.90 60.12 61.97 63.52 65.47 68.37 70.22 71.14 70.84 70.87 70.76 69.89 69.08 69.11 68.95 68.30 68.48 68.85 68.58 67.30 65.70 66.01 65.08 65.35 64.23 66.36 58.55 72.14 69.49 69.83 68.14 64.74 61.83 56.98
52.60 54.39 55.81 57.29 58.71 60.62 62.23 64.15 65.66 66.60 67.49 69.03 70.47 71.07 70.94 70.51 70.12 70.21 69.63 62.22 64.61 69.17 68.27 68.23 68.47 63.22 67.78 67.78 66.12 66.48 68.78 56.06 62.94 70.27 67.94 65.61 63.41 62.54
50.29 52.22 55.32 59.22 60.96 62.00 63.30 64.94 65.66 66.84 68.21 69.38 69.96 70.66 70.21 70.15 69.85 69.99 69.11 66.95 67.24 68.81 69.30 70.57 67.94 66.78 65.42 65.74 66.86 65.38 65.15 66.58 61.13 59.14 56.38 59.62 64.35 63.08
49.49 52.17 53.73 54.33 56.24 59.39 63.35 65.23 66.43 67.49 68.83 69.58 68.93 70.06 70.67 69.79 70.21 70.03 69.62 69.48 69.35 69.55 69.60 68.61 67.64 67.89 67.80 67.51 65.88 67.80 66.86 66.88 65.42 63.97 63.27 57.45 56.86 55.56

GFSNE_sfc_wetblb_087.txt.gz
Wetbulb
68.81 68.91 68.61 69.68 68.86 69.14 68.93 67.53 64.19 61.53 62.37 67.25 68.17 70.74 72.22 72.04 72.88 73.32 72.62 71.82 71.02 70.34 68.97 68.34 68.53 69.46 71.28 70.39 69.84 69.34 68.78 68.07 67.03 66.24 65.59 65.26 64.98 64.66
68.28 67.76 67.35 70.19 69.57 70.64 69.54 68.83 66.96 64.57 62.73 66.27 69.48 72.19 72.75 71.59 72.39 72.31 72.43 71.89 71.35 69.87 68.91 67.92 67.76 68.64 69.86 69.64 68.99 68.09 67.20 66.48 65.77 65.72 65.26 64.07 63.27 62.95
68.52 69.06 69.71 69.83 70.12 71.09 70.84 68.96 68.87 67.99 65.16 66.93 69.95 70.08 69.83 69.85 70.80 70.86 71.79 72.21 73.33 70.53 67.65 67.70 66.93 67.24 68.28 68.39 67.69 66.92 66.27 64.99 64.49 64.64 64.40 63.59 62.41 61.62
69.17 68.48 68.99 70.78 69.21 70.11 70.30 69.97 69.26 69.36 67.95 66.50 67.75 68.55 69.10 69.92 70.10 70.22 72.05 73.69 72.36 70.36 66.88 67.27 66.46 65.70 66.01 66.16 65.31 64.63 63.80 62.82 62.57 62.94 63.36 63.37 62.24 60.96
69.45 69.33 69.05 69.37 68.24 67.97 68.98 68.64 68.37 69.74 69.40 68.39 67.69 69.10 69.47 68.48 69.77 71.19 70.78 70.76 71.74 71.35 68.24 67.42 66.75 65.43 64.76 64.12 63.18 61.68 59.55 58.81 59.35 59.75 60.66 61.07 61.42 60.84
71.19 70.18 68.92 69.44 69.43 69.03 68.57 68.56 68.24 68.12 67.87 67.87 67.22 67.33 67.87 69.60 70.23 69.96 69.47 69.33 70.08 71.42 69.21 68.27 67.80 67.12 65.86 64.17 63.63 62.81 59.32 56.88 56.26 56.85 57.41 57.91 58.83 59.48
70.62 71.31 71.27 70.98 70.28 69.43 69.99 69.27 68.58 67.89 67.78 66.99 66.81 67.02 67.62 67.51 67.56 69.31 68.80 68.75 68.25 67.31 67.68 69.50 68.65 68.73 68.75 66.84 67.72 66.82 63.06 59.76 57.00 55.67 55.67 55.45 55.70 56.52
69.72 70.00 70.69 70.58 70.14 67.78 67.07 67.58 69.68 69.23 68.07 67.44 67.38 66.84 66.66 67.45 68.35 68.32 67.15 65.04 62.75 66.65 68.19 67.90 69.06 69.33 70.09 69.54 67.69 65.30 63.57 61.48 58.61 56.65 55.31 54.61 54.57 54.98
70.39 70.60 70.79 72.46 69.69 70.83 68.70 66.61 66.39 65.54 66.80 69.80 68.67 68.42 67.91 68.31 67.80 66.10 64.96 64.84 64.10 66.44 68.00 67.15 68.99 69.46 70.44 70.10 65.64 64.46 62.75 61.19 59.31 57.49 56.17 55.14 54.32 53.73
70.81 71.47 70.94 70.95 70.29 70.36 70.58 70.07 70.19 70.37 68.94 68.05 69.73 71.30 70.47 70.86 68.52 68.01 66.10 64.68 66.19 67.71 69.69 66.92 67.45 67.28 68.95 68.75 65.08 64.15 61.87 60.29 58.68 57.16 55.90 54.35 52.80 51.82
68.79 69.46 71.44 71.86 68.00 64.02 68.48 69.80 70.29 70.95 68.61 63.21 64.46 64.24 63.29 62.68 65.14 67.11 65.96 65.41 67.43 67.06 69.23 67.60 66.77 66.17 65.90 66.76 66.76 61.81 59.83 58.11 56.83 56.61 56.16 54.63 52.00 50.78
69.47 69.65 64.30 67.08 63.68 61.77 67.83 69.99 69.43 70.18 70.93 70.68 70.43 66.08 63.14 65.50 62.14 66.61 69.25 66.86 67.86 67.24 68.35 67.54 65.60 65.43 64.16 65.27 66.24 66.43 64.59 58.23 54.93 54.46 55.02 54.27 51.41 53.79
69.36 69.38 70.66 63.24 57.14 55.79 56.23 67.90 69.24 68.77 69.75 69.52 70.24 70.79 70.97 70.71 70.65 67.02 68.07 68.98 69.06 68.58 70.34 68.35 66.24 64.50 64.50 65.13 66.10 67.27 64.55 62.90 59.79 57.76 52.44 52.00 50.86 53.67
67.04 69.25 68.48 59.39 55.04 54.50 56.25 57.90 56.53 58.98 64.18 66.54 67.84 68.57 68.87 69.53 70.71 71.43 70.81 69.86 71.15 71.43 72.76 69.52 67.26 67.44 65.01 63.59 64.21 66.48 65.38 63.63 61.30 61.32 59.53 54.45 50.72 51.16
62.81 60.50 56.93 54.09 53.03 55.99 58.48 58.61 57.50 63.59 63.94 65.44 66.68 67.36 68.58 69.79 70.13 70.12 70.58 71.68 70.90 70.78 71.47 71.57 69.87 70.49 67.39 67.98 67.68 67.49 65.41 66.08 61.93 61.89 60.59 59.36 57.96 54.67
52.99 52.47 54.04 55.85 55.99 58.01 58.92 62.98 65.03 65.69 66.19 66.86 67.91 69.21 70.05 69.61 68.70 69.40 68.98 69.54 68.28 69.20 71.25 71.92 71.40 70.39 69.32 69.34 68.72 67.80 68.68 65.98 65.77 63.78 63.34 61.88 60.85 59.59
45.98 50.59 54.59 55.50 56.09 57.57 59.87 63.87 67.15 68.01 67.21 67.15 67.31 68.16 69.06 69.42 69.33 69.51 68.63 68.33 67.29 67.71 68.50 69.20 68.98 70.17 70.10 69.35 67.69 67.96 68.39 68.46 68.98 68.68 63.67 64.71 64.60 63.99
46.19 50.02 51.94 53.58 55.59 57.00 58.23 59.15 61.24 63.64 67.03 69.24 69.14 68.53 68.70 69.09 69.07 69.14 68.55 67.18 66.44 67.16 67.61 68.46 66.91 64.44 65.85 68.25 68.39 68.12 67.89 68.30 69.53 69.16 66.63 66.97 68.37 67.76
48.57 49.76 50.60 52.31 53.77 54.88 56.00 57.54 58.80 61.44 65.43 68.14 69.45 69.94 69.85 69.51 67.80 68.22 68.27 67.54 66.91 67.26 67.81 68.63 66.52 64.98 64.47 63.43 65.84 64.05 68.80 69.04 69.47 67.33 68.93 67.91 68.50 69.63
47.67 48.98 50.40 52.58 54.02 54.88 55.86 57.27 58.92 60.79 62.17 63.92 66.51 68.49 69.62 69.85 69.63 69.34 68.62 68.37 67.87 68.04 68.12 68.79 67.78 67.02 64.93 65.39 65.52 65.56 57.56 70.28 68.62 68.95 67.78 68.55 66.40 57.02
45.62 46.55 48.32 49.84 51.50 54.53 57.69 59.09 60.20 61.41 62.43 63.76 64.56 66.01 67.78 69.36 69.06 69.69 69.62 61.75 64.27 68.89 67.92 68.41 69.38 64.57 68.50 66.77 65.68 66.73 67.22 56.67 62.16 68.53 67.87 66.20 65.18 64.04
45.45 46.37 47.76 48.65 50.37 53.01 53.69 55.75 57.26 58.80 61.50 64.15 65.79 66.84 68.19 68.98 68.68 69.06 69.52 69.13 69.08 68.77 68.84 69.34 69.20 67.26 65.51 65.92 66.25 66.73 65.29 65.71 59.03 58.49 58.65 61.53 65.86 64.06
45.17 46.33 46.56 46.96 48.00 49.55 51.13 50.44 51.35 53.10 55.80 59.81 60.24 60.39 65.88 67.04 67.44 67.71 68.32 68.07 68.37 68.19 67.51 67.26 68.91 67.78 67.46 66.42 65.36 66.97 66.15 66.07 64.79 62.61 61.87 56.21 57.36 55.97

GFSNE_sfc_wetblb_090.txt.gz
Wetbulb
72.14 71.82 71.35 71.64 71.82 71.55 71.87 70.84 68.68 66.70 67.51 71.54 73.16 75.70 76.37 76.25 75.53 76.37 75.99 72.31 70.40 69.63 68.53 67.80 68.49 69.41 70.19 71.47 70.47 69.59 68.71 68.24 67.14 66.29 65.52 65.20 64.97 64.66
71.13 71.01 71.22 71.62 72.68 73.19 72.29 71.85 69.95 68.83 68.17 70.06 72.99 75.09 74.71 74.45 74.88 75.30 74.90 71.62 70.95 69.65 67.60 67.28 67.99 68.54 68.96 70.11 69.53 68.76 67.80 66.77 65.90 65.67 65.40 64.34 63.31 63.29
71.30 71.35 72.01 72.65 72.69 73.43 73.08 71.85 72.09 71.38 69.98 71.43 72.54 73.92 74.71 74.96 75.42 75.93 75.97 76.47 75.79 68.63 67.07 67.04 67.23 67.04 67.80 68.23 68.14 67.64 67.09 66.07 65.10 64.93 64.85 64.18 62.66 61.79
71.37 71.13 71.15 71.60 72.47 72.95 73.23 72.83 72.41 72.56 71.72 71.10 72.24 72.66 73.67 74.57 74.41 74.76 75.08 75.15 75.00 70.98 67.11 66.29 66.41 66.04 65.48 65.32 65.26 64.86 64.36 64.09 63.54 63.49 63.92 64.18 63.51 61.70
72.01 71.43 71.86 71.53 71.73 71.45 71.37 71.45 71.43 71.70 72.38 71.26 71.13 72.27 72.66 72.69 73.62 75.34 75.58 75.81 75.06 71.39 68.22 67.17 67.19 66.33 64.81 63.63 62.79 61.80 60.31 59.87 60.21 60.60 61.44 62.01 62.45 62.35
71.52 72.50 72.22 71.67 72.04 72.37 71.77 71.86 71.37 71.17 71.35 70.75 70.69 70.66 71.18 73.11 73.16 72.51 72.68 74.02 73.68 73.82 70.24 68.51 68.10 67.77 66.48 64.70 63.85 63.36 60.11 58.08 57.47 57.58 58.09 58.96 59.94 60.47
72.47 72.91 72.98 71.99 69.75 70.57 72.84 73.05 72.02 71.44 71.05 71.01 70.41 70.68 71.06 71.15 71.35 72.59 71.85 72.35 72.57 71.66 71.00 73.17 73.20 72.95 73.41 69.31 69.70 67.84 64.04 61.27 58.74 56.71 56.22 56.07 56.53 57.44
72.19 72.95 73.03 70.47 70.41 67.31 66.77 67.33 71.28 72.74 72.48 71.05 71.45 70.86 72.22 71.90 72.29 71.97 71.50 70.20 68.78 71.75 72.08 71.41 72.64 73.03 73.70 74.44 68.88 65.82 64.07 62.28 60.64 58.27 55.97 55.22 55.38 55.69
73.10 72.79 72.71 73.25 71.49 72.93 67.99 65.75 66.04 65.50 68.34 73.48 72.08 72.52 72.58 73.53 72.92 72.47 71.07 69.96 69.73 71.46 71.08 71.24 73.53 72.79 74.39 73.67 65.88 64.66 63.09 61.62 60.29 59.08 57.42 55.58 54.81 54.26
72.34 72.93 73.03 73.39 73.42 72.66 73.21 72.76 73.26 73.38 72.17 70.24 71.71 73.01 74.00 74.50 73.67 74.09 73.10 71.44 70.42 70.81 72.16 69.88 73.49 72.27 74.44 74.08 65.80 63.16 61.71 60.71 59.49 58.24 57.01 54.97 53.16 52.16
71.37 71.34 71.86 72.37 67.90 63.86 71.36 71.57 72.41 72.88 69.28 63.27 64.53 64.68 63.79 62.74 66.88 71.62 70.33 70.21 70.17 71.56 72.49 71.67 72.87 71.65 72.66 72.70 73.34 64.09 60.93 59.56 57.97 57.08 56.76 55.06 52.40 50.97
70.66 71.41 65.24 66.98 62.30 59.51 68.43 70.62 70.48 71.92 72.66 73.35 73.63 69.66 65.19 68.45 61.72 68.92 71.67 70.15 70.27 69.85 73.62 71.01 71.95 70.82 69.92 72.93 72.15 72.73 73.61 61.68 57.20 54.98 55.36 54.52 51.77 60.99
65.46 67.47 68.28 58.63 56.31 55.22 55.55 66.93 68.77 69.89 68.61 69.89 70.66 71.91 72.62 73.18 73.29 71.89 71.18 71.21 70.71 70.69 72.75 72.86 71.93 71.54 69.68 70.19 72.13 72.78 73.28 72.71 71.20 67.61 53.25 51.91 51.00 57.25
56.76 58.32 59.18 55.36 53.20 54.10 56.86 58.61 57.58 58.39 65.43 67.42 68.86 69.84 70.86 71.69 72.81 73.27 73.95 72.63 73.19 73.28 75.11 73.17 71.78 72.02 71.23 70.07 69.51 72.87 72.65 72.19 71.82 71.21 71.62 60.36 50.58 51.20
53.92 52.98 51.33 50.09 50.83 55.29 56.88 56.47 56.97 63.78 64.77 64.88 65.39 67.20 69.78 71.71 72.90 72.98 73.72 74.72 74.29 74.05 73.41 74.33 73.33 73.11 72.52 70.62 70.67 71.71 71.07 72.38 71.90 70.58 71.31 69.42 68.39 63.90
51.45 50.80 51.51 52.09 53.20 56.00 58.12 61.86 64.36 65.48 65.83 66.01 66.85 68.59 70.37 70.83 71.35 71.81 70.86 71.69 71.19 71.52 74.28 74.45 74.19 73.52 71.52 71.79 72.00 71.32 72.50 70.84 73.51 72.17 70.74 70.59 69.87 67.88
46.62 51.38 54.85 55.87 56.22 57.70 59.01 60.75 62.67 64.05 64.92 66.60 67.70 68.09 69.04 69.92 70.22 71.66 71.70 70.91 69.29 70.08 70.79 72.80 74.00 74.42 73.55 73.09 70.81 71.76 71.42 71.55 72.43 72.65 71.57 70.39 71.87 71.15
48.93 50.65 50.79 52.13 53.17 54.69 55.75 57.12 58.87 59.78 61.63 62.95 65.83 67.94 68.39 68.22 67.47 68.91 69.68 69.19 68.50 69.98 70.25 71.12 71.14 71.06 70.47 71.28 69.61 70.44 71.35 71.38 71.98 73.09 72.48 70.33 70.76 73.87
48.38 47.25 48.20 49.16 50.93 53.17 54.70 56.03 57.02 59.38 62.35 63.12 64.24 65.34 66.93 68.61 66.30 66.49 68.11 68.14 68.22 68.70 69.85 70.95 70.24 69.11 67.31 66.01 71.37 63.75 70.93 71.41 71.72 71.85 72.40 70.87 70.70 73.01
45.21 45.69 46.37 47.92 49.00 50.53 51.93 53.47 57.88 58.48 59.86 62.22 63.73 64.41 65.68 66.37 67.04 68.20 69.62 69.67 68.45 68.30 68.38 69.42 69.75 69.97 67.78 67.54 69.29 71.92 57.16 71.40 72.54 71.59 72.77 73.21 72.50 61.53
43.97 45.07 46.48 47.10 48.18 49.19 49.89 51.64 52.95 55.54 55.64 56.04 57.78 59.58 63.27 64.61 65.12 66.31 66.91 60.13 62.95 68.70 68.12 68.28 69.94 65.59 71.98 71.55 68.14 68.30 69.42 55.37 65.79 71.67 72.64 71.52 70.92 70.85
41.30 42.34 44.28 45.79 46.69 47.59 48.27 49.05 50.20 51.52 51.51 52.04 53.32 55.67 58.65 62.52 62.28 62.87 64.27 66.46 67.77 69.27 70.22 70.29 70.55 71.73 69.43 67.58 67.02 68.92 70.70 71.22 59.03 55.91 58.12 63.12 69.79 68.38
39.96 40.17 40.94 41.81 43.16 44.71 45.61 47.74 49.26 49.76 50.71 51.35 52.30 54.27 57.35 58.38 59.44 60.39 63.74 65.53 67.40 67.04 67.47 67.07 68.21 69.54 68.78 68.17 65.68 67.90 68.81 69.89 69.02 65.06 64.27 56.84 57.74 56.65

GFSNE_sfc_wetblb_093.txt.gz
Wetbulb
75.75 76.35 75.37 75.71 76.81 76.04 76.13 75.66 73.02 70.06 71.79 75.33 76.52 78.52 77.92 78.60 76.95 78.37 79.35 72.82 70.32 69.77 68.23 67.73 68.90 69.86 71.00 71.83 71.59 70.54 69.52 68.13 67.09 66.37 65.67 65.17 64.59 64.51
75.14 75.33 75.53 75.04 75.88 76.89 76.80 76.34 75.69 73.51 70.62 75.33 76.63 77.23 78.29 77.72 77.04 78.46 78.64 73.28 71.46 69.41 67.65 67.25 68.43 69.42 69.78 70.26 70.85 70.13 69.15 67.88 66.56 65.86 65.27 64.66 63.74 63.64
75.39 75.16 75.39 76.44 74.89 75.80 76.76 76.00 75.31 75.18 71.74 74.18 75.82 77.20 77.82 77.89 77.40 77.77 77.54 78.82 77.23 69.59 68.24 67.19 66.88 67.94 68.70 69.02 68.89 68.92 68.45 67.59 66.46 65.89 65.84 65.26 63.96 63.44
75.39 75.01 74.67 74.55 75.77 76.17 75.37 76.50 75.64 76.02 73.18 72.85 74.76 74.19 75.87 77.47 77.49 77.67 77.03 76.73 77.65 73.26 68.66 67.00 66.32 66.74 66.05 65.94 65.33 65.59 65.34 65.36 65.36 64.93 65.02 65.39 64.86 63.51
75.31 75.46 75.11 75.36 75.30 74.51 75.10 74.26 74.10 74.59 74.45 73.43 72.97 74.93 75.46 76.07 76.59 77.20 77.41 77.63 76.19 72.21 68.95 67.19 67.90 67.57 66.00 64.56 63.69 62.12 60.73 60.83 61.67 62.02 62.48 63.28 64.14 64.07
75.83 75.85 75.85 75.58 75.42 76.10 75.44 75.82 75.17 74.66 74.83 74.24 73.69 74.03 74.76 76.73 76.53 75.02 74.46 76.10 76.19 76.90 73.67 69.59 68.38 69.05 67.55 65.52 64.99 64.96 60.79 58.68 58.70 59.00 59.18 59.97 61.19 62.18
75.43 75.68 76.11 74.58 71.49 72.13 74.70 76.58 76.63 75.49 73.60 73.09 72.76 73.26 73.29 73.33 73.83 74.63 74.67 75.56 76.73 76.42 75.14 75.48 74.79 75.46 74.87 70.67 71.78 68.63 64.92 61.73 59.38 58.12 57.41 56.91 57.68 58.71
75.21 76.14 76.30 72.07 72.37 67.64 67.01 67.30 72.16 75.63 74.71 72.62 72.37 72.59 74.81 74.97 75.02 74.49 73.99 73.34 71.66 76.00 75.14 73.72 74.68 74.30 74.89 74.95 68.83 66.52 63.94 62.60 60.93 59.18 57.71 56.65 56.00 56.59
76.27 76.77 76.41 75.66 73.64 76.27 69.61 66.23 66.79 65.62 67.50 75.69 73.99 75.11 75.35 77.18 76.75 75.92 75.63 74.69 73.75 74.89 75.40 72.45 74.33 73.59 75.57 74.88 67.36 65.33 63.21 61.44 61.01 59.64 58.74 57.13 55.99 55.33
75.12 75.45 76.32 76.31 76.05 75.37 76.12 75.82 76.29 77.08 76.26 74.06 74.80 75.85 77.03 77.59 77.74 76.91 76.06 75.64 75.44 75.18 77.50 71.97 74.24 73.71 75.71 76.34 67.98 65.12 63.06 61.77 61.05 59.31 57.81 56.31 54.24 53.18
72.70 73.66 74.16 74.33 61.04 60.61 72.97 74.68 75.45 75.80 71.21 65.07 65.27 65.03 64.36 63.37 66.73 74.23 73.71 72.99 71.96 73.01 76.02 73.90 74.08 74.10 75.23 75.44 76.21 67.15 63.29 60.93 59.60 58.67 58.01 56.27 53.43 52.02
69.91 67.68 60.88 58.48 56.07 56.73 66.62 71.74 72.44 74.37 74.55 75.70 75.97 72.77 68.34 73.04 63.17 71.98 74.62 72.84 72.74 72.22 75.64 73.42 73.64 74.04 72.38 75.07 75.93 76.42 76.56 61.44 57.53 56.33 56.43 55.67 52.53 67.50
60.28 61.07 61.29 56.41 54.15 53.44 56.21 65.50 65.92 64.80 66.08 68.78 71.53 74.07 75.20 75.80 75.94 76.49 76.45 74.70 73.18 72.99 74.82 75.41 73.80 73.92 73.32 73.15 74.93 75.93 76.14 75.73 76.51 73.48 55.26 53.08 51.86 60.76
54.34 55.69 55.96 50.98 49.26 50.59 55.25 57.90 55.24 57.34 65.53 66.48 67.36 67.97 69.09 70.10 71.20 72.40 75.90 76.35 76.31 75.98 77.42 78.64 74.41 74.06 73.48 72.73 72.29 74.91 75.79 76.45 76.58 75.75 76.07 65.54 51.82 51.92
52.60 51.85 51.29 49.71 49.84 54.77 55.81 56.13 55.69 65.09 65.56 65.31 65.69 66.35 67.49 68.61 71.15 72.64 73.69 76.47 76.69 76.32 75.98 76.82 75.40 75.80 74.50 72.98 72.58 73.91 73.27 75.04 76.10 75.62 75.69 75.47 75.15 74.71
50.18 53.59 53.61 52.09 52.40 55.27 58.83 61.06 63.41 64.10 63.81 64.20 65.60 66.90 68.06 68.39 68.82 70.34 69.97 70.66 70.62 71.97 76.09 77.15 76.85 76.33 74.13 74.09 73.45 72.59 74.29 73.07 75.44 75.65 75.66 75.78 75.72 75.47
47.80 54.71 54.98 55.41 56.13 57.53 58.35 59.23 60.03 61.49 61.55 62.50 62.93 63.93 64.83 65.81 66.87 69.00 69.41 69.78 69.36 69.79 70.72 72.23 76.77 77.26 75.43 75.82 72.34 73.29 73.60 73.87 75.09 75.26 75.60 74.56 74.78 75.31
50.41 51.19 52.14 52.93 53.22 53.66 54.76 56.03 57.87 58.79 59.95 61.68 62.34 62.94 63.53 64.28 65.19 66.66 68.03 67.67 67.48 69.18 69.24 71.29 72.79 72.41 72.36 74.50 71.41 72.63 73.41 73.63 74.73 75.93 75.42 73.68 73.12 74.93
48.90 48.52 49.04 50.47 51.38 52.33 53.35 53.76 54.26 56.83 59.46 58.59 59.19 61.09 63.07 63.91 63.67 64.37 65.23 65.94 66.70 68.06 69.45 70.64 69.45 68.74 67.39 66.35 72.22 64.37 72.72 73.54 74.05 74.04 74.39 73.98 73.43 74.58
47.83 47.96 48.26 49.46 49.33 49.57 50.91 51.85 51.87 52.86 53.57 55.06 56.31 56.96 58.21 58.87 59.63 61.96 64.46 64.96 66.31 67.34 67.32 69.28 68.91 69.28 70.02 67.97 68.38 72.38 57.39 72.97 73.18 72.70 72.59 73.57 74.40 64.91
45.55 45.70 46.31 46.79 47.31 48.16 48.37 48.58 48.86 49.99 51.40 52.37 53.64 54.30 54.94 55.42 56.19 58.18 60.60 55.99 58.51 63.83 64.36 66.70 69.93 65.56 73.10 73.36 68.67 69.04 72.05 56.83 66.61 73.34 73.46 72.25 72.32 72.88
44.37 44.57 44.80 44.89 44.86 45.33 45.87 46.75 47.56 48.15 48.62 50.19 50.98 52.34 53.37 54.15 55.43 57.19 58.16 58.11 61.09 62.15 64.63 67.15 69.96 72.07 70.23 70.22 66.63 68.16 70.16 72.92 66.73 57.94 58.32 61.40 72.06 69.91
43.60 43.92 43.84 44.05 43.96 43.80 43.60 43.88 44.65 45.24 45.93 46.09 47.26 48.69 50.67 50.96 51.01 51.17 52.27 55.82 58.70 60.11 60.72 62.12 65.27 70.11 69.68 69.55 65.55 67.19 69.37 69.88 70.23 68.92 69.16 57.76 57.27 57.70

GFSNE_sfc_wetblb_096.txt.gz
Wetbulb
76.43 76.69 75.74 75.88 76.47 77.08 76.87 75.86 73.50 70.36 72.17 76.17 75.25 79.05 78.56 79.36 77.01 78.32 78.66 73.02 71.83 70.33 68.15 68.00 69.39 70.92 71.66 72.80 72.94 71.94 70.89 69.69 68.49 67.54 66.71 66.11 65.48 64.93
75.58 76.08 76.34 74.63 75.21 75.64 75.58 75.42 75.34 73.53 70.71 75.83 75.58 77.25 78.38 77.80 77.52 78.14 77.70 74.08 72.75 70.45 68.65 68.45 68.45 70.27 70.61 71.54 71.78 71.66 70.52 69.36 68.15 67.16 66.79 66.56 65.54 64.54
76.71 76.14 76.17 76.93 74.61 74.21 74.96 75.08 73.97 73.81 71.77 73.28 76.13 77.24 78.61 78.06 78.22 78.68 77.71 77.43 75.99 70.97 69.74 69.43 68.05 68.80 69.66 70.15 69.98 69.99 69.81 69.04 68.13 67.03 66.89 66.84 66.12 64.85
75.11 75.79 75.50 74.54 76.10 76.31 74.68 76.72 76.18 75.93 73.26 74.25 76.15 74.80 77.22 78.12 78.10 78.51 76.97 76.27 76.28 72.98 69.80 68.64 67.85 67.53 67.18 66.66 66.65 66.43 66.16 66.49 66.86 66.48 66.34 66.63 66.44 65.89
75.39 75.36 75.50 75.55 75.70 74.55 74.84 74.01 73.77 73.80 74.61 72.87 72.78 74.05 75.35 76.61 77.10 78.96 77.62 78.05 77.03 73.23 70.00 68.03 68.90 68.97 67.32 65.32 64.26 62.97 61.26 61.14 62.47 63.52 63.90 64.45 65.31 65.68
76.06 75.68 75.27 75.42 75.88 76.06 76.14 76.14 76.12 75.36 75.65 73.15 72.58 72.20 73.41 76.88 75.91 74.01 73.02 74.67 75.27 76.13 74.92 71.85 70.51 70.78 68.32 66.08 65.36 65.01 61.55 59.17 58.94 60.05 60.66 60.94 62.10 63.36
75.89 76.28 76.17 75.04 72.01 72.71 75.09 77.26 77.46 74.98 72.97 71.51 71.57 71.71 72.02 73.07 74.37 73.76 73.12 73.82 76.20 76.08 74.94 75.75 74.69 73.71 73.94 69.29 70.71 68.73 65.93 63.38 60.09 58.58 58.74 58.53 58.47 59.59
75.92 76.81 76.95 73.72 72.80 68.85 67.77 68.01 71.51 76.23 74.96 73.56 72.54 72.81 75.95 75.42 75.50 74.25 73.89 72.56 71.50 76.00 75.53 73.60 74.49 73.58 73.74 74.42 69.55 67.02 65.33 63.86 61.98 60.08 58.42 57.68 57.37 57.49
76.65 76.68 75.90 74.79 74.19 76.15 70.04 66.94 67.21 65.91 67.53 76.59 74.29 74.63 76.41 78.13 76.86 75.88 76.47 75.06 74.07 75.13 75.32 72.76 75.21 74.30 74.67 74.61 68.53 67.17 65.42 63.44 61.43 60.29 59.44 58.06 57.21 56.35
76.50 76.46 76.41 76.02 64.38 69.25 76.00 75.80 76.15 76.81 77.21 75.53 76.02 76.85 77.67 78.27 79.10 77.83 77.18 77.43 76.85 76.42 77.96 72.27 74.59 74.15 75.71 75.91 67.81 67.26 65.16 63.42 61.85 60.39 59.07 57.34 55.47 54.37
72.65 67.76 70.12 68.78 57.50 57.99 73.33 75.29 75.74 76.08 72.00 65.27 65.36 64.83 64.19 63.83 67.38 74.68 73.75 72.98 72.25 73.09 75.81 73.47 73.72 73.67 74.63 74.97 75.82 67.48 65.50 62.70 60.69 59.83 59.28 57.47 54.71 53.33
71.94 68.04 57.97 58.81 53.61 54.25 67.55 70.86 71.79 73.55 73.36 72.98 74.27 73.15 69.22 73.26 64.43 74.46 75.70 73.45 73.22 72.47 76.12 74.72 74.61 74.72 72.76 75.41 75.45 76.01 76.75 61.72 59.04 58.19 58.35 57.55 54.22 69.19
66.76 67.02 65.98 53.50 50.81 50.33 52.08 65.66 66.74 64.64 65.54 68.51 71.17 72.91 74.30 75.48 75.78 76.02 79.36 77.32 74.20 73.78 75.59 75.92 74.59 74.95 75.00 73.72 75.50 75.93 75.91 75.53 76.63 73.41 57.03 55.74 53.26 61.05
54.02 56.72 57.78 50.70 49.46 49.98 53.66 55.90 54.95 56.78 66.24 68.82 69.36 69.60 70.24 70.87 71.80 72.51 75.01 74.56 74.36 75.69 77.29 78.44 75.21 74.79 74.50 73.27 73.00 75.53 76.30 76.73 76.78 76.60 77.10 68.27 54.03 53.21
55.46 52.72 50.42 49.64 49.91 54.11 53.16 55.57 55.22 66.38 67.60 67.24 67.83 68.44 69.61 70.45 71.38 72.65 75.01 77.71 77.86 77.04 75.69 78.18 76.52 76.72 75.38 74.12 73.74 74.76 73.87 75.92 76.84 76.40 77.17 76.99 76.88 76.80
53.93 56.40 55.88 53.94 52.78 56.36 58.23 60.46 62.59 62.67 63.23 62.94 63.57 65.38 66.30 66.57 66.84 67.94 68.08 69.01 69.39 70.29 75.88 77.08 78.75 78.19 74.72 76.43 76.54 74.01 75.22 73.68 75.63 76.27 76.55 76.92 77.68 77.56
48.38 57.21 57.17 57.33 57.41 58.23 58.84 59.28 60.37 61.17 60.49 61.63 62.52 62.91 63.31 63.78 64.21 65.86 66.03 66.48 66.20 67.38 68.64 70.48 75.74 76.82 75.29 76.85 72.85 73.23 73.70 74.17 75.55 74.32 78.06 74.90 76.53 77.29
52.68 52.91 53.88 53.97 55.03 55.71 56.38 57.07 58.04 58.49 59.52 60.41 60.55 60.64 60.85 61.85 63.10 64.62 65.26 64.69 64.56 65.55 66.30 68.12 69.87 70.18 70.61 72.64 69.69 71.84 72.85 72.85 73.94 74.55 76.67 74.07 74.29 77.10
54.17 53.29 51.34 52.09 53.07 51.78 52.78 54.32 54.76 56.01 57.12 56.91 57.20 57.98 58.70 58.52 58.29 59.58 60.45 61.23 62.59 64.67 65.58 66.77 67.39 68.20 67.73 66.71 70.31 62.66 70.28 71.11 72.80 73.79 75.57 74.52 74.03 74.97
51.85 51.51 51.38 51.65 51.45 51.06 51.62 50.69 51.82 51.98 53.19 54.08 54.70 56.00 56.72 56.79 56.79 57.08 57.77 58.30 59.17 60.75 61.77 63.09 63.54 64.51 64.89 65.52 67.67 71.20 57.13 72.78 71.29 71.53 72.16 73.98 73.87 66.50
50.23 50.24 50.46 50.15 49.89 49.95 50.11 50.35 50.20 50.49 50.06 50.25 52.25 53.09 54.13 54.63 55.02 55.97 56.25 52.34 54.50 59.10 58.37 60.38 64.20 60.58 67.26 69.89 67.77 68.76 71.01 58.46 66.65 72.75 73.16 72.73 71.77 72.56
49.30 48.98 49.26 49.35 49.09 49.05 48.79 48.55 48.55 48.69 49.13 49.22 49.67 49.91 49.92 51.20 51.76 52.82 53.26 53.30 53.50 54.50 56.43 59.67 62.93 63.78 63.15 62.62 64.83 68.05 69.62 71.60 66.52 58.23 59.86 64.34 71.90 67.86
48.54 48.46 48.26 48.53 48.65 48.51 48.32 47.80 47.66 47.63 47.72 47.64 47.68 48.23 48.38 47.39 48.63 49.47 49.82 50.33 51.23 52.83 54.62 55.79 57.72 59.92 59.92 60.74 60.92 64.40 67.61 69.38 69.37 69.83 71.12 60.46 58.83 58.36

GFSNE_sfc_wetblb_099.txt.gz
Wetbulb
77.26 77.38 76.12 74.84 74.29 75.25 75.29 74.28 72.41 68.33 71.38 68.51 74.82 72.54 76.47 77.77 77.13 78.10 78.05 73.52 72.45 71.31 69.01 69.05 69.74 71.36 72.21 73.03 73.36 73.36 72.34 71.48 70.45 69.54 68.83 67.44 66.88 65.58
75.65 78.03 77.04 75.13 75.42 74.42 74.48 74.57 74.03 72.32 69.80 73.75 75.98 77.71 78.79 78.09 78.00 79.06 78.05 74.13 73.54 72.00 69.54 70.08 70.10 70.64 71.46 72.05 71.95 71.85 71.58 70.83 69.69 68.70 68.06 67.74 67.31 65.87
77.49 76.89 76.12 78.39 74.66 74.16 75.31 74.54 73.82 73.39 71.10 72.98 74.79 77.62 79.21 78.71 78.45 79.42 78.37 79.05 76.19 71.67 70.69 70.32 70.22 69.58 70.97 70.94 70.86 70.32 70.26 70.01 69.45 68.68 67.97 67.58 67.43 67.08
75.55 75.83 75.36 74.68 78.27 78.32 74.17 77.01 74.77 76.08 73.08 73.61 75.05 73.97 76.96 80.06 80.57 81.10 77.59 76.55 76.60 73.04 71.53 70.35 69.96 68.04 68.06 67.92 67.63 67.16 66.34 66.52 67.37 67.70 67.50 67.27 67.23 67.06
75.70 75.74 75.41 75.61 76.82 75.37 76.76 74.93 73.83 73.60 74.85 72.71 72.45 73.96 74.62 75.03 76.51 79.17 79.86 78.61 76.79 73.28 70.87 69.49 69.98 68.54 67.67 66.13 65.18 64.08 62.27 61.82 62.84 63.99 65.08 65.41 65.90 66.27
76.11 76.26 75.82 75.46 76.38 77.00 75.26 78.23 76.56 74.92 74.80 72.98 72.10 72.92 73.32 76.51 75.16 74.15 73.31 74.53 74.28 75.19 74.62 72.19 72.06 70.21 68.31 66.28 65.99 65.20 61.80 60.18 59.48 60.15 61.17 62.07 62.90 63.86
76.43 76.34 76.59 75.47 72.49 72.60 74.79 78.16 77.40 75.77 73.49 72.80 71.33 71.22 71.39 73.63 73.47 73.31 73.72 73.85 76.06 75.83 74.84 74.85 74.90 74.75 74.48 68.65 70.91 69.08 65.47 62.86 60.80 59.54 58.79 59.10 59.61 60.41
75.67 76.62 77.69 73.80 72.90 69.60 68.79 68.65 71.46 75.25 75.01 73.27 72.41 72.19 75.37 74.92 74.46 74.20 74.16 72.26 70.70 76.23 75.31 74.72 75.73 75.08 75.13 75.91 70.66 67.95 65.61 64.52 62.58 60.81 59.27 58.20 58.18 58.55
77.34 77.21 75.70 74.47 73.66 76.16 70.32 67.39 67.90 66.48 67.93 75.80 74.12 75.12 75.93 77.46 77.89 76.66 76.10 75.11 73.64 75.64 75.99 74.57 76.19 75.43 75.89 75.29 68.83 66.98 66.51 65.49 63.66 61.40 59.74 58.70 57.84 57.36
75.80 75.88 76.31 73.69 64.10 65.78 72.50 75.23 75.77 76.49 75.12 74.83 76.23 76.35 77.91 79.11 78.41 77.81 77.45 77.05 76.66 77.06 77.90 73.96 76.23 74.93 76.03 75.97 66.98 67.29 66.95 65.94 64.18 61.57 59.74 58.19 56.53 55.17
71.85 69.81 73.26 71.05 55.65 56.07 70.32 73.73 75.36 76.62 70.45 65.59 66.59 65.54 64.26 63.95 67.90 74.17 73.20 71.80 71.63 73.30 76.59 74.16 74.72 75.27 76.03 76.90 77.17 67.50 64.81 63.42 62.17 61.52 60.63 58.99 56.45 55.15
73.43 65.02 55.43 57.28 52.82 52.39 62.05 69.08 71.05 72.95 72.25 71.92 71.39 72.19 69.84 73.42 65.32 72.85 76.13 73.57 74.14 72.10 75.26 74.05 74.57 74.73 72.85 76.17 76.90 77.62 78.16 63.01 59.78 59.39 59.54 58.79 56.03 67.75
58.54 59.24 62.04 53.20 50.69 50.76 51.02 62.22 65.74 60.54 63.81 66.78 68.97 71.18 73.05 74.09 73.42 75.01 77.19 76.89 72.93 72.84 73.76 72.74 72.13 73.28 73.19 73.51 75.93 77.15 77.42 76.83 77.33 72.07 56.88 55.96 54.11 61.72
58.17 57.69 54.79 50.92 49.56 50.02 53.70 54.58 53.72 56.50 63.86 67.56 69.09 69.46 70.11 70.86 71.90 73.20 74.69 74.90 73.45 74.15 75.25 76.82 72.79 73.01 73.06 72.34 72.68 75.98 77.10 77.94 78.18 77.61 78.16 71.06 55.77 54.47
58.54 54.57 50.62 49.16 49.17 52.23 54.68 54.75 55.01 62.15 64.53 64.68 63.84 64.39 66.18 67.24 70.33 70.47 72.63 75.32 76.47 77.13 74.79 77.83 75.53 74.55 74.69 72.02 71.96 73.18 72.68 75.26 77.06 76.74 77.20 77.49 77.15 69.79
55.23 56.01 56.86 54.63 51.89 54.27 56.23 60.74 62.06 62.07 61.23 61.04 60.16 62.92 64.98 64.77 64.44 66.38 65.69 66.75 66.65 67.32 71.74 74.79 76.66 75.76 71.45 72.48 72.91 72.69 74.38 73.04 73.69 76.05 75.97 76.79 77.44 77.81
47.71 57.37 58.23 58.31 58.17 58.74 59.12 59.84 60.29 60.49 59.85 60.75 60.84 60.72 60.83 61.73 62.37 64.42 64.47 65.36 64.96 65.19 66.10 68.48 71.85 74.25 72.81 72.19 70.02 71.32 71.66 72.35 74.28 73.76 78.05 74.63 75.75 75.02
52.05 54.69 54.87 55.19 54.64 55.27 55.79 56.14 57.59 58.00 57.62 57.10 57.65 58.02 57.82 58.38 58.78 59.37 60.51 60.63 60.76 61.63 62.51 64.60 66.09 66.88 68.39 70.47 69.60 71.10 71.18 70.88 72.57 72.63 73.65 72.73 73.52 76.11
53.74 55.27 55.00 54.28 54.63 54.60 53.88 52.84 52.10 53.89 55.79 54.25 54.94 54.82 55.98 57.06 56.99 57.31 57.64 58.75 58.52 59.71 60.77 61.79 61.79 62.47 61.42 60.50 65.09 62.15 68.78 70.38 70.80 71.45 72.76 72.80 71.85 73.69
54.06 53.41 53.08 53.00 52.77 52.56 52.60 52.41 52.64 52.84 52.85 51.82 52.39 52.60 53.36 53.24 53.31 54.27 55.00 56.48 56.03 57.08 57.01 59.20 61.31 61.60 59.61 58.40 61.19 64.68 58.81 67.42 67.00 68.18 70.48 72.89 73.20 65.31
52.46 52.40 52.39 51.97 51.92 51.98 51.72 51.61 51.66 51.07 50.28 51.11 51.11 50.70 50.84 50.33 50.42 51.22 51.84 49.36 50.49 53.86 54.11 55.04 58.07 56.35 59.33 60.50 59.68 61.75 65.01 58.41 60.58 67.52 69.73 68.37 69.68 70.73
51.72 51.57 51.41 51.43 51.30 51.25 50.95 50.74 50.39 50.21 50.21 49.79 49.76 49.72 49.96 49.85 48.85 48.55 48.96 48.69 49.24 49.95 50.40 51.58 53.66 54.12 53.82 55.55 57.36 58.56 59.71 63.06 61.39 59.35 59.00 60.26 67.42 66.44
51.20 50.94 50.79 50.91 50.66 50.17 49.86 49.19 48.67 48.40 48.46 48.48 48.04 47.83 47.68 46.69 47.63 47.87 47.57 47.70 48.21 48.07 48.61 48.99 49.83 50.82 50.47 50.37 51.84 55.20 58.88 60.95 62.75 63.13 65.15 61.19 58.16 58.20

GFSNE_sfc_wetblb_102.txt.gz
Wetbulb
74.76 77.47 76.99 74.81 73.48 74.66 74.50 73.87 70.10 64.66 60.52 63.25 65.08 70.28 69.07 69.51 69.60 77.24 78.02 74.05 72.86 71.68 69.23 69.94 70.34 70.55 71.76 72.21 72.75 72.73 72.82 72.16 71.53 70.45 69.28 69.11 69.37 67.65
74.87 76.16 76.29 76.19 75.53 74.14 74.68 73.02 72.67 69.88 65.72 66.05 66.54 71.12 69.16 71.71 70.97 78.21 77.92 74.18 73.39 73.22 69.84 71.95 72.39 70.99 70.77 71.60 71.53 71.20 71.36 71.27 70.98 70.05 68.77 68.06 68.21 68.45
75.96 75.58 75.00 76.84 75.54 74.84 74.22 72.91 72.88 72.46 70.29 71.18 71.37 70.75 70.39 70.62 76.93 77.92 78.39 77.40 76.13 71.02 71.02 71.93 72.51 71.46 70.18 70.58 70.32 69.92 69.79 69.61 69.73 69.80 69.42 68.42 67.79 67.90
75.51 76.51 76.05 74.00 75.99 76.95 75.74 74.99 74.86 74.95 73.33 71.22 73.29 74.05 74.81 76.84 77.16 78.27 77.90 76.61 75.64 74.16 70.16 70.04 71.78 69.28 68.55 68.03 68.03 67.41 66.54 66.50 67.17 67.64 68.63 68.53 68.04 67.49
76.32 75.69 75.81 74.90 75.22 75.12 75.46 74.76 74.02 73.87 73.08 72.38 71.49 72.52 72.59 73.21 72.93 75.02 76.40 75.59 77.41 73.25 68.79 68.99 68.69 67.42 67.15 65.93 65.14 64.32 62.68 61.89 62.68 63.52 64.65 65.93 66.90 66.92
76.50 77.07 76.61 76.25 75.12 75.30 74.48 74.72 74.09 73.94 73.46 72.82 72.66 72.44 72.21 73.13 74.65 71.81 70.07 74.33 74.22 75.79 73.84 71.57 71.46 69.34 67.55 65.50 64.80 64.63 62.14 60.52 60.13 60.26 60.85 61.67 63.36 64.71
76.50 75.82 76.17 72.99 71.71 71.17 74.79 75.16 74.53 73.57 72.54 71.48 70.93 71.32 72.08 72.44 72.15 73.22 73.22 72.75 73.24 74.09 72.91 74.07 73.64 73.57 73.28 70.67 68.89 68.45 65.85 63.66 61.22 59.56 59.29 58.91 59.25 60.74
75.59 76.68 77.28 72.71 73.15 68.83 68.49 68.52 70.73 73.46 72.70 73.28 72.63 71.23 72.08 73.14 73.72 73.84 73.29 72.20 70.91 75.62 74.03 72.77 74.09 74.10 74.88 74.43 71.81 68.94 67.09 65.13 63.31 61.69 59.94 58.46 58.01 58.62
74.79 75.44 74.66 71.21 65.93 67.71 70.76 67.89 67.66 66.74 67.08 72.56 72.20 72.69 73.12 74.23 75.17 73.76 73.70 73.50 72.58 73.80 73.35 72.12 74.55 73.80 74.97 75.44 68.14 67.94 67.85 65.70 63.86 62.35 61.02 59.37 58.07 57.47
74.91 74.51 73.90 65.14 58.92 58.94 66.23 72.87 74.89 75.74 74.58 72.80 72.33 74.18 75.70 76.11 74.85 74.54 74.03 73.70 74.13 74.26 74.87 71.43 73.90 73.46 75.25 75.64 68.87 67.80 66.01 65.66 63.62 62.36 60.66 58.70 56.90 55.81
69.57 60.89 66.83 60.66 55.46 55.15 65.85 68.10 70.56 73.30 68.57 65.38 64.90 63.53 63.07 62.87 65.79 71.55 70.90 71.31 69.91 71.22 73.66 72.70 72.89 72.59 74.01 74.44 74.59 67.02 64.01 61.86 61.47 61.45 61.05 58.97 56.83 55.02
66.60 61.44 55.00 54.31 52.71 52.77 59.09 62.30 65.50 66.83 63.68 63.10 65.09 66.61 67.51 70.25 66.04 69.81 71.90 70.72 70.65 69.66 73.99 70.43 68.96 69.77 67.70 72.39 73.23 74.23 75.46 68.11 59.92 59.41 58.75 58.36 55.57 62.23
61.21 59.80 59.37 52.98 50.49 50.57 51.41 58.09 62.45 57.87 60.77 61.69 64.63 66.97 69.99 71.71 71.67 72.96 74.83 73.23 70.80 69.78 71.62 69.31 68.72 69.75 70.75 70.59 72.65 73.35 73.57 73.38 75.04 73.35 62.15 56.40 55.20 59.23
59.22 61.11 57.78 50.55 48.90 49.65 52.43 55.33 53.72 55.87 61.95 63.55 63.34 62.26 62.43 63.78 64.07 66.95 69.22 71.27 72.51 71.98 72.31 72.57 70.67 70.11 69.64 69.38 68.77 71.98 72.39 73.54 73.55 73.35 74.11 69.20 58.89 54.18
57.08 53.55 51.53 49.78 49.33 51.60 53.45 54.83 55.24 61.50 62.39 59.64 58.95 59.88 62.35 63.01 63.50 64.02 65.63 66.56 66.31 67.55 67.75 70.47 71.88 69.87 70.86 69.45 68.26 68.72 68.69 68.89 71.97 73.32 73.53 73.67 73.38 71.48
50.55 52.58 54.46 53.98 53.07 54.36 55.94 62.19 62.29 62.76 61.27 58.87 58.11 58.71 59.88 60.28 60.39 62.12 60.02 59.37 59.11 60.37 64.71 65.48 64.80 64.54 63.05 64.92 65.80 65.42 66.99 66.28 69.50 71.48 71.89 73.15 73.94 73.98
43.76 52.33 58.19 57.78 57.03 56.23 56.85 56.48 58.17 56.94 54.77 55.13 55.87 56.46 56.69 57.14 57.20 58.38 57.94 58.22 57.37 57.07 57.97 60.58 62.06 61.46 61.45 62.66 61.99 63.16 64.66 63.86 65.43 66.63 68.69 68.35 68.90 70.79
50.23 57.21 56.65 57.26 55.17 55.67 54.37 54.03 53.65 53.79 53.37 53.28 52.72 52.81 53.14 53.76 53.29 55.35 56.45 55.92 55.34 56.28 56.35 57.19 56.73 56.89 58.81 60.00 61.97 58.61 58.54 59.82 62.11 63.61 65.23 64.47 64.91 68.34
48.72 58.26 56.80 56.05 55.06 54.75 54.38 53.54 52.60 53.83 56.10 52.67 52.71 52.06 51.81 51.72 50.13 50.28 50.88 51.25 50.83 51.11 51.69 53.47 54.19 54.57 52.32 51.01 55.40 56.16 55.62 57.00 59.25 60.64 61.51 61.90 64.36 67.05
53.29 54.80 54.71 54.43 53.82 53.04 52.47 51.79 51.56 52.65 50.70 51.37 51.05 50.91 50.40 50.10 49.47 49.02 49.00 48.04 47.59 47.38 47.97 50.06 50.59 49.95 45.63 46.36 47.74 50.72 53.56 57.87 57.72 56.95 57.05 59.96 61.74 60.48
53.63 53.38 53.22 52.51 52.37 52.42 52.06 52.12 52.54 50.71 50.97 50.39 50.01 49.34 49.28 48.61 47.74 47.90 47.64 46.66 46.81 47.31 46.17 46.42 48.34 51.55 49.53 49.63 46.57 47.18 50.07 51.11 52.49 52.20 54.72 56.93 56.11 56.08
52.55 52.76 52.34 52.83 52.57 52.26 51.55 50.94 49.79 49.14 48.74 48.17 47.71 47.25 46.89 46.57 45.67 45.08 45.12 44.34 44.59 45.05 45.29 46.13 47.24 47.78 47.20 46.22 45.35 45.78 46.33 48.33 50.78 52.02 53.35 54.63 55.14 53.59
52.52 51.88 53.26 53.33 52.22 51.19 50.28 48.78 47.67 47.37 46.99 46.12 45.68 45.07 44.64 43.80 44.17 43.92 43.87 43.91 43.50 42.85 43.05 43.27 44.75 45.37 44.47 44.58 44.63 44.42 44.72 45.37 46.96 47.58 48.54 51.77 52.88 53.17

GFSNE_sfc_wetblb_105.txt.gz
Wetbulb
66.92 70.90 71.93 72.24 72.19 70.92 69.93 65.72 67.51 62.90 62.91 63.51 63.98 68.51 68.86 69.07 69.15 68.66 69.17 69.82 72.72 72.39 70.90 69.68 70.40 70.20 70.43 70.70 71.49 72.26 72.40 72.20 71.68 70.82 70.04 69.04 69.47 69.18
67.12 71.62 70.67 71.59 70.99 70.92 70.58 69.38 69.35 65.59 64.21 65.49 66.19 68.50 68.97 69.28 69.83 70.48 70.37 71.81 72.61 73.41 71.61 69.06 69.54 70.81 70.17 69.78 70.19 70.58 70.75 70.96 70.71 70.44 69.73 68.82 68.20 68.69
71.26 71.37 70.79 71.44 72.36 72.01 71.21 70.95 69.89 70.10 67.21 69.03 68.27 67.91 68.22 68.42 69.17 70.88 73.29 74.08 74.39 71.41 70.31 68.86 67.88 70.25 69.79 69.12 68.78 68.77 69.25 69.08 69.29 69.71 69.85 69.27 68.59 67.95
71.26 70.50 70.67 72.69 70.47 70.23 71.04 70.40 69.22 69.74 68.18 65.74 68.87 69.84 67.97 70.35 71.45 71.85 74.79 76.90 75.61 73.88 69.06 67.91 68.02 69.17 68.50 67.56 66.69 66.34 66.08 66.26 66.62 67.22 68.23 68.95 68.81 68.05
71.60 71.57 71.44 71.58 70.89 70.20 69.33 68.75 70.24 71.09 69.58 68.37 68.25 68.87 69.04 71.20 72.30 71.34 70.71 73.25 74.44 73.26 70.60 69.01 66.93 66.88 67.00 65.79 64.57 63.69 62.35 61.91 62.82 63.16 64.08 65.66 67.18 67.49
72.82 72.11 72.15 71.48 70.49 70.43 70.27 70.03 70.30 68.52 69.29 68.61 68.38 68.45 69.78 71.26 71.65 70.51 71.48 72.10 71.00 74.34 72.56 70.76 69.99 69.04 67.61 65.57 65.04 64.51 62.20 60.67 60.11 60.44 60.75 61.26 63.09 64.92
72.28 72.65 71.87 71.56 70.44 69.55 70.79 70.14 69.74 68.64 68.27 67.64 67.36 67.83 67.92 68.74 69.08 70.87 70.26 70.72 71.01 71.10 71.48 72.53 72.48 73.03 73.08 71.21 72.07 69.91 65.56 62.63 61.03 60.03 59.39 59.04 59.33 60.43
71.61 71.31 71.09 66.48 66.97 67.09 67.69 67.20 67.73 67.82 67.31 68.25 68.08 67.94 68.14 69.15 70.75 70.60 70.35 69.72 68.55 71.73 71.29 71.74 72.61 72.55 73.67 74.47 71.86 70.01 68.56 64.55 62.50 60.81 59.71 58.81 58.27 58.42
70.59 70.93 69.80 63.18 60.55 62.31 66.15 68.12 67.96 66.39 67.15 68.34 67.74 68.50 69.15 69.90 70.75 70.10 69.87 69.88 69.65 71.78 71.50 70.30 72.17 71.27 73.53 74.52 70.36 68.69 66.75 66.59 64.15 61.83 60.83 59.66 58.86 57.44
65.85 67.85 62.58 56.94 55.26 56.42 63.67 67.50 69.30 66.66 66.44 67.32 68.08 68.32 68.55 68.74 68.77 70.16 70.72 70.39 70.97 70.92 70.64 67.86 70.31 69.19 71.01 71.96 69.26 67.20 64.95 64.11 63.14 61.84 60.90 59.20 57.14 55.35
56.75 58.39 55.19 52.22 54.45 55.94 59.02 59.93 63.38 64.75 63.76 61.44 61.20 61.35 61.41 61.30 62.77 65.48 66.08 66.93 67.06 67.67 70.09 69.36 69.58 66.82 66.85 68.49 70.65 67.05 64.79 63.34 60.23 59.63 59.71 59.36 56.28 54.91
59.43 55.81 55.17 51.50 51.96 52.42 52.59 54.89 57.91 59.79 57.03 57.36 59.76 62.39 63.46 65.36 64.16 66.48 67.69 66.66 66.48 65.69 69.74 67.85 66.11 64.94 65.13 68.01 70.14 71.48 71.28 66.39 61.87 61.34 60.81 58.96 55.49 60.93
56.46 55.17 54.30 52.64 50.10 50.04 51.34 52.27 55.72 54.86 56.25 57.97 60.28 59.46 58.98 60.27 60.83 62.49 64.13 67.29 65.94 65.36 67.26 65.99 65.35 65.95 65.95 66.63 68.14 69.51 69.84 70.67 70.73 70.54 64.10 61.80 58.35 59.59
51.61 53.73 50.01 50.42 48.99 49.59 50.95 53.73 52.90 54.72 57.13 57.05 57.50 57.21 57.64 58.35 59.44 60.05 60.47 59.10 60.13 60.35 62.27 63.92 64.48 62.35 61.49 62.84 64.72 66.58 67.28 68.36 68.90 68.21 69.24 67.13 63.22 57.06
49.40 50.06 50.85 50.41 51.42 53.11 54.58 55.10 54.52 56.77 54.39 53.17 52.80 53.19 54.94 55.71 56.09 56.71 56.71 56.47 56.34 57.58 59.97 58.91 57.82 57.24 56.82 56.07 57.12 59.77 62.15 64.01 65.02 65.46 66.45 67.44 69.35 70.42
45.12 45.41 50.08 53.16 53.61 53.71 53.03 53.50 53.09 52.45 51.20 49.85 50.33 51.31 52.40 53.20 52.03 53.84 53.15 54.60 53.01 54.78 56.23 56.89 54.65 54.51 53.58 55.47 56.22 55.81 57.77 57.18 59.51 59.25 60.04 61.89 63.83 66.41
41.98 47.78 51.29 50.66 50.13 50.10 50.47 50.12 50.51 49.82 49.35 48.68 48.61 49.15 49.99 49.97 48.87 50.28 50.76 49.78 49.16 48.82 48.84 50.69 53.15 54.27 53.41 52.75 53.12 52.59 53.05 53.21 54.67 55.57 56.68 58.45 60.72 61.56
42.87 47.54 47.98 48.88 48.72 48.28 47.96 47.87 48.57 50.27 47.85 48.21 47.83 47.90 47.39 47.42 47.05 48.30 48.63 47.40 46.11 45.81 45.31 47.01 48.41 48.44 46.59 47.93 54.20 49.39 48.40 47.03 49.30 53.69 54.76 53.66 54.73 57.66
43.56 47.51 47.30 47.41 46.82 46.56 46.24 46.14 45.52 46.13 45.78 46.21 46.08 46.05 46.57 46.68 46.17 45.89 45.75 45.36 44.71 44.76 45.77 46.77 46.21 44.67 41.87 40.18 44.28 50.81 45.90 46.97 47.89 47.37 48.37 48.85 48.76 50.13
43.45 46.34 46.32 46.36 46.19 45.81 45.63 45.06 45.51 44.64 45.31 45.11 45.06 45.00 44.43 43.98 43.56 42.99 42.89 42.09 41.89 42.50 42.44 43.28 43.32 42.97 41.21 40.86 42.53 46.07 48.69 46.92 46.54 45.29 45.19 46.60 48.27 51.36
46.25 45.94 46.49 46.77 46.29 46.17 45.78 45.11 44.51 43.77 43.39 42.83 42.74 42.66 42.31 41.97 41.14 41.18 41.17 42.19 42.05 40.72 39.58 39.88 41.66 47.50 44.48 44.61 41.05 41.57 44.25 47.44 47.64 45.45 45.21 44.20 44.21 45.79
46.01 46.42 46.53 46.46 46.20 45.61 44.79 43.89 42.82 42.39 41.47 41.09 41.00 40.72 40.48 40.36 39.70 39.67 39.91 39.45 39.39 39.61 39.57 41.00 42.47 42.47 41.50 40.07 38.88 39.70 41.24 43.19 46.08 48.53 49.87 49.27 44.65 41.64
45.07 44.86 45.11 45.11 44.79 44.15 43.17 42.42 41.55 41.40 40.84 40.35 39.19 38.62 38.64 38.28 38.68 39.25 39.25 39.19 39.17 38.99 39.31 38.77 39.84 40.47 39.90 39.85 39.79 39.02 39.54 40.54 41.45 41.18 42.64 48.13 49.21 49.50

GFSNE_sfc_wetblb_108.txt.gz
Wetbulb
66.43 69.93 70.20 70.86 70.01 68.60 68.10 65.86 66.24 62.64 62.88 64.78 63.98 66.20 68.33 69.00 69.49 69.11 68.31 68.82 69.01 68.73 68.78 69.04 68.78 69.43 69.81 70.52 70.11 70.91 71.85 71.83 71.89 71.38 70.71 69.88 70.07 70.51
66.00 69.40 69.20 69.81 69.97 69.94 68.97 67.49 68.60 65.73 63.38 66.29 65.70 65.62 68.86 69.97 69.54 68.87 68.56 70.25 70.12 69.06 69.13 68.51 67.90 68.56 69.29 69.42 69.23 69.36 70.11 70.36 70.37 70.43 70.11 69.65 68.96 69.11
69.97 69.72 69.85 69.49 69.87 70.67 70.27 69.95 68.21 67.86 65.29 67.13 67.60 67.96 67.59 68.05 69.60 69.36 70.54 71.08 73.54 70.24 68.01 67.31 66.69 67.27 67.71 68.13 68.19 67.65 67.97 68.65 68.84 69.49 69.89 69.87 69.34 68.61
69.89 69.97 69.97 71.41 69.14 69.62 69.27 68.47 68.53 68.55 66.86 64.31 66.89 68.38 68.12 68.99 69.85 70.14 72.44 74.57 73.24 71.25 67.60 66.75 66.62 65.96 65.61 65.64 65.55 64.71 64.34 64.93 65.87 66.69 67.97 68.89 69.36 68.92
70.79 69.89 70.38 70.06 69.81 69.44 68.25 67.46 69.01 69.45 68.55 67.41 67.25 68.32 68.63 69.95 70.48 71.99 72.06 71.89 73.84 72.16 69.77 68.44 67.65 67.00 65.85 64.50 63.67 62.62 60.47 59.79 61.15 62.39 63.92 65.47 66.93 67.81
71.87 71.85 70.87 70.81 69.71 69.39 69.59 68.75 69.29 67.66 67.61 66.69 66.24 66.49 68.18 69.69 69.99 69.13 70.15 70.68 70.79 73.32 71.35 69.88 68.69 68.80 67.60 66.07 65.76 65.65 62.57 60.56 58.21 58.48 59.70 60.62 62.53 64.35
71.87 72.03 69.97 69.18 67.70 67.61 69.07 68.79 68.96 67.21 67.03 65.77 65.57 66.06 66.17 66.93 67.14 69.39 69.19 69.89 70.31 70.37 70.53 71.72 72.22 72.23 72.59 70.04 70.81 69.05 63.81 62.53 60.30 58.68 57.91 57.81 58.43 59.78
70.68 71.06 67.18 65.60 66.53 65.18 65.18 66.01 67.56 67.44 65.93 66.24 66.51 66.19 66.38 67.70 69.07 69.14 68.87 68.19 67.16 70.82 70.03 70.79 71.48 70.91 71.70 71.99 67.37 66.16 63.85 63.29 61.67 60.76 59.37 57.53 57.34 57.88
68.40 69.05 65.51 60.43 59.03 60.92 64.64 67.07 66.84 66.07 66.16 66.82 66.08 66.12 66.91 68.44 69.28 68.15 67.25 67.54 67.81 70.33 70.17 68.82 69.94 69.38 69.76 70.46 65.67 64.93 63.70 62.53 61.59 61.23 60.23 59.91 58.93 58.03
64.86 61.63 57.11 54.52 54.98 58.37 61.53 63.02 66.46 64.26 63.00 63.09 62.35 64.39 65.08 65.46 64.66 65.29 65.39 67.43 68.96 69.95 69.63 66.21 69.06 68.32 67.30 67.21 65.21 64.59 62.96 62.27 61.76 60.74 59.78 58.07 56.09 55.64
55.97 53.96 52.50 51.40 54.07 55.59 55.63 57.52 59.85 60.52 59.27 58.78 58.76 58.98 59.11 59.46 61.71 64.12 65.53 65.26 63.99 66.33 68.81 67.22 66.85 66.04 65.06 66.04 68.65 64.43 63.26 62.14 60.49 60.16 59.85 58.81 55.71 54.91
56.53 55.37 54.74 51.08 51.75 52.15 51.88 51.97 53.59 55.56 54.68 57.27 58.85 58.81 58.59 58.77 60.22 62.06 63.60 63.39 63.08 62.94 63.37 62.88 63.91 63.61 63.32 66.42 67.18 69.02 67.60 62.37 60.94 59.89 59.93 58.71 56.56 65.77
54.57 54.06 51.83 52.45 50.01 49.61 50.63 51.58 53.33 53.64 55.81 56.48 55.55 56.83 56.72 57.30 57.84 57.57 57.58 58.63 57.42 59.09 58.77 60.03 57.11 56.74 59.14 62.19 64.34 61.36 61.73 63.53 64.82 64.63 59.08 56.12 56.32 58.60
50.59 50.62 49.05 50.02 49.66 50.77 52.00 52.42 53.02 55.55 53.56 52.38 51.99 51.84 52.10 52.66 53.67 54.24 54.45 54.40 55.03 55.57 54.43 53.73 53.04 51.86 52.18 52.90 54.24 56.76 58.37 60.54 58.36 57.10 57.45 55.81 55.82 57.21
48.27 48.56 49.66 49.03 50.24 51.99 53.21 53.16 52.75 50.75 49.53 49.16 47.61 48.01 48.66 49.55 49.32 50.30 51.19 50.92 52.58 51.73 51.63 50.66 50.35 50.83 49.79 49.53 50.99 53.18 53.38 53.74 53.03 50.72 53.01 56.08 57.89 59.95
46.00 46.91 51.94 52.96 52.13 51.38 50.92 50.86 50.68 49.27 47.37 46.16 46.12 47.02 48.27 46.85 47.67 47.95 47.48 48.03 46.80 46.24 47.48 49.17 48.49 50.26 46.79 45.57 49.45 48.53 49.90 47.69 47.13 47.77 50.01 50.93 52.05 54.48
44.96 50.90 50.45 48.10 47.83 47.87 47.97 48.42 48.01 46.60 46.10 45.48 45.48 45.27 46.39 46.64 45.97 46.28 46.11 44.90 43.69 43.80 44.53 46.04 46.94 46.26 45.43 43.61 45.49 43.75 44.46 43.86 45.91 46.87 47.14 46.26 47.60 49.20
45.12 46.97 46.87 46.60 46.43 45.59 44.78 44.46 44.67 45.77 44.39 45.37 44.24 43.98 43.68 44.13 43.83 44.05 44.03 42.74 41.29 42.09 42.28 43.27 43.77 41.80 41.54 42.07 49.24 42.23 42.43 43.79 45.22 45.70 45.20 43.67 43.74 46.17
44.56 46.97 45.09 45.04 44.37 44.24 43.90 43.69 42.74 42.96 43.84 43.61 42.92 41.91 42.24 42.43 41.32 40.91 40.90 40.41 39.95 39.83 40.59 41.09 40.40 39.66 37.76 36.85 41.64 48.81 42.49 43.02 43.01 42.45 43.59 43.20 42.25 44.03
44.25 44.94 45.85 45.02 44.24 43.73 43.72 42.94 42.28 42.46 41.56 41.40 41.03 40.49 40.57 40.23 39.64 39.21 39.51 38.52 38.81 38.57 38.45 38.97 39.34 39.51 38.42 37.82 38.67 41.32 45.67 41.95 41.57 41.07 41.18 42.59 44.37 48.49
43.34 44.10 44.27 44.34 43.64 43.10 42.56 41.94 41.13 40.62 39.64 39.32 38.56 38.32 38.40 38.24 37.83 38.45 38.55 39.62 39.15 37.95 37.08 37.39 39.20 44.05 40.88 40.85 37.82 38.41 40.80 44.97 44.54 41.32 41.43 40.79 40.11 40.68
43.58 43.82 43.63 43.39 43.01 42.41 41.36 40.83 40.62 40.09 38.47 37.91 37.74 38.01 37.98 37.64 37.82 37.83 38.03 38.01 38.28 38.87 38.69 39.74 40.04 40.33 39.69 38.27 37.14 38.13 38.78 40.85 43.82 45.75 46.33 44.36 40.31 37.72
43.17 43.05 43.20 42.72 42.15 41.46 40.88 40.51 40.02 38.99 38.13 37.70 36.90 36.74 36.83 36.43 37.18 37.18 39.54 39.64 39.41 39.03 38.81 37.90 38.57 39.29 38.84 38.78 38.83 38.05 38.84 38.81 39.86 39.47 40.88 45.54 46.47 46.92

GFSNE_sfc_wetblb_111.txt.gz
Wetbulb
66.72 67.70 69.92 69.39 67.81 66.72 66.94 65.26 65.06 60.97 62.20 65.17 63.86 65.72 67.17 67.95 69.15 69.45 68.51 68.61 68.32 68.70 68.29 67.65 67.63 68.65 69.61 70.12 70.46 69.92 70.88 71.50 71.79 71.75 71.50 71.35 71.02 71.19
65.71 67.63 68.23 69.27 69.29 69.09 68.52 66.83 67.14 64.99 62.15 65.35 65.96 65.31 67.30 69.30 70.35 69.71 68.62 69.65 69.51 68.96 67.98 66.40 67.02 67.85 68.26 69.02 69.41 69.15 69.02 69.52 70.00 70.44 70.32 70.30 70.10 69.84
69.32 69.28 68.83 69.09 68.58 69.38 68.95 68.78 67.50 66.42 64.52 65.61 67.14 67.34 67.18 68.32 69.45 70.47 71.61 71.76 72.10 69.39 67.81 66.73 66.97 67.05 67.18 67.09 67.22 67.41 67.58 67.66 67.86 68.72 69.85 70.01 69.91 69.58
69.03 68.64 69.03 71.35 68.88 68.29 68.64 68.17 67.70 67.83 66.45 63.48 65.87 67.77 68.02 68.71 69.40 69.51 72.08 73.78 71.89 71.02 67.44 67.18 66.64 66.23 65.84 65.77 65.48 64.93 63.66 63.63 64.23 65.05 67.19 68.64 69.47 69.26
70.43 69.88 69.81 69.86 69.11 69.33 67.91 67.43 67.92 68.95 67.52 66.33 66.18 67.39 67.83 68.63 69.42 69.91 71.02 71.08 72.82 71.76 69.40 68.46 67.15 66.50 65.91 64.58 63.71 62.42 60.19 59.13 59.83 60.46 62.80 64.46 65.98 67.79
71.27 71.13 70.93 70.51 69.31 69.06 69.26 68.66 68.43 67.82 66.63 65.75 65.14 65.37 66.69 68.12 68.62 68.09 68.90 69.91 70.44 72.34 71.12 69.34 68.60 68.75 67.79 65.63 66.02 64.87 60.95 59.19 58.54 58.82 59.05 60.08 61.55 63.15
71.37 71.65 70.12 69.12 67.88 67.21 69.51 68.91 68.33 66.96 66.85 65.50 65.09 65.25 65.86 66.17 66.13 68.27 67.99 68.99 69.12 69.75 69.73 70.43 70.66 70.71 70.22 68.08 68.96 66.64 63.72 62.20 60.72 59.61 59.57 57.67 57.59 58.43
70.12 68.76 67.84 66.60 64.95 63.90 64.54 65.28 66.45 66.51 65.75 65.38 65.22 65.18 65.63 66.64 67.81 67.86 67.52 65.87 65.06 70.16 68.96 69.58 70.33 69.32 69.10 68.09 64.89 64.38 63.03 62.22 61.38 60.57 59.64 58.84 58.07 57.89
69.82 69.06 64.19 59.03 59.69 62.12 64.64 64.31 63.68 63.91 65.17 67.34 66.10 66.01 65.66 67.73 64.76 64.13 64.03 65.02 65.24 68.13 68.92 67.41 68.68 68.05 68.10 67.84 63.77 63.11 62.77 61.45 60.55 60.04 59.44 58.67 57.57 56.50
64.71 63.85 59.87 55.38 55.19 57.99 60.61 65.20 62.67 59.79 59.55 60.00 58.41 59.70 60.86 61.68 61.61 63.20 63.52 64.56 66.13 67.17 64.48 64.51 66.80 64.87 66.60 65.92 63.57 62.01 60.99 59.54 59.69 58.62 57.15 55.99 56.08 56.12
57.56 57.72 54.58 51.35 53.97 55.36 54.72 56.58 57.24 55.47 57.72 58.42 58.67 57.77 57.54 57.97 59.67 61.98 62.70 61.75 61.25 64.54 56.44 59.77 63.95 61.54 63.89 65.27 66.26 58.92 58.64 57.82 57.39 56.42 55.97 54.37 53.11 56.36
56.58 54.99 54.71 51.51 51.48 51.94 51.00 51.81 52.36 53.31 54.99 55.45 55.24 55.86 55.95 55.95 57.49 55.38 56.45 55.94 59.79 54.32 53.28 56.26 53.12 57.36 56.33 62.72 63.21 57.92 59.11 56.74 54.63 52.70 53.09 52.98 51.86 60.52
54.25 53.10 49.90 52.03 50.30 49.64 51.06 52.42 52.77 53.42 55.31 52.83 52.16 52.38 52.20 52.35 53.33 52.97 53.92 54.18 53.76 49.98 51.18 51.15 50.26 50.29 51.80 54.49 57.12 55.97 56.57 54.40 49.85 49.42 50.35 50.96 51.74 54.48
50.14 49.18 48.12 49.40 50.31 51.01 51.91 52.50 52.85 52.64 50.11 49.03 48.62 47.51 47.11 47.26 48.15 49.71 49.51 50.02 49.61 46.67 47.44 47.90 47.44 47.35 47.57 48.98 49.20 51.95 52.21 51.32 46.95 46.96 48.58 49.63 49.44 50.32
46.73 48.54 49.56 49.04 49.81 51.02 52.32 52.15 50.85 48.25 47.67 47.31 45.72 44.93 44.98 45.34 46.22 46.20 46.36 48.37 45.54 46.72 48.15 45.71 44.18 45.79 46.00 43.45 45.04 46.16 47.19 45.44 45.65 45.59 46.57 46.66 46.54 47.86
47.45 51.21 52.39 51.36 50.88 50.04 48.83 48.61 48.29 46.83 46.04 45.28 44.74 44.86 44.75 44.65 44.56 44.19 42.57 43.30 42.21 42.50 44.41 45.41 43.89 42.52 40.95 40.74 44.64 41.40 43.54 40.48 43.41 44.55 44.90 44.74 44.98 45.46
46.72 48.67 47.64 46.89 46.76 46.08 46.02 45.89 45.45 45.55 44.74 43.86 43.18 42.84 43.16 43.05 42.83 42.32 41.56 40.33 39.56 39.47 39.89 42.02 42.61 41.89 40.90 40.93 39.85 40.48 40.49 40.90 42.84 42.82 42.48 41.88 43.61 43.88
47.32 46.33 45.63 45.49 44.58 43.94 42.67 43.11 42.95 44.41 42.49 42.28 41.55 41.38 40.91 40.65 39.84 40.14 39.89 38.29 37.65 38.16 38.45 39.41 39.70 39.37 39.40 40.07 45.75 39.48 39.93 39.94 41.15 41.84 41.89 40.35 40.49 42.88
46.25 45.15 45.98 44.40 43.71 43.20 42.69 42.74 41.86 41.83 41.24 40.62 40.03 39.96 40.37 39.64 38.73 38.46 38.42 38.17 37.65 36.78 36.94 37.80 38.23 37.91 35.44 34.69 38.53 46.07 39.32 39.47 39.73 39.36 40.17 39.68 39.26 41.09
43.81 43.87 43.70 43.58 42.56 42.34 41.43 40.83 40.68 40.40 40.06 39.54 38.80 38.32 38.14 37.85 37.55 37.26 37.73 36.86 36.69 36.67 36.26 36.68 37.10 38.18 36.17 35.73 36.74 39.16 44.04 39.66 39.21 38.78 39.13 40.54 41.80 45.55
43.09 43.32 43.33 42.53 41.57 41.10 40.30 39.67 39.13 38.47 37.62 36.76 36.45 36.79 37.39 37.22 36.60 36.94 37.09 38.83 37.84 36.04 35.68 35.93 37.53 43.05 40.15 38.65 36.78 38.14 39.82 44.22 43.74 40.92 40.69 39.75 38.79 39.52
42.55 42.89 42.48 41.94 41.34 40.87 39.71 39.02 38.26 37.15 36.23 35.91 35.86 35.82 36.07 36.44 36.19 36.42 36.78 36.07 35.96 36.21 35.82 36.99 38.79 40.45 40.01 38.40 37.41 38.34 38.51 40.90 43.79 45.98 46.09 44.35 40.48 37.52
42.52 42.58 41.68 41.18 40.33 39.94 39.09 38.28 37.31 36.72 36.16 35.72 35.56 35.61 35.90 35.58 35.76 36.14 36.69 36.85 36.67 36.29 36.09 36.05 37.66 39.91 39.95 39.18 38.71 38.24 39.45 40.11 40.55 39.70 40.96 45.39 45.50 45.86

GFSNE_sfc_wetblb_114.txt.gz
Wetbulb
70.48 71.02 72.60 72.63 69.57 69.73 70.18 69.89 69.77 67.24 67.59 69.59 68.90 70.54 71.65 72.88 72.93 74.22 73.38 69.82 68.74 68.63 67.72 66.81 67.73 68.67 69.42 70.18 70.26 70.38 70.46 71.19 71.87 71.79 71.92 72.21 72.55 72.07
69.10 70.77 71.97 72.30 72.18 71.49 70.97 69.76 70.19 69.14 67.46 69.37 70.33 70.54 72.27 72.33 73.17 74.28 74.28 71.29 70.56 68.94 67.54 67.12 67.47 68.03 68.29 68.42 68.63 68.78 69.07 69.47 69.72 70.41 70.56 70.62 70.80 71.13
71.77 71.30 71.94 71.86 71.20 71.65 71.66 71.15 70.10 69.28 67.95 69.76 70.43 71.70 72.09 72.84 73.97 74.23 75.05 75.27 74.73 68.27 67.62 67.20 66.55 66.89 67.33 67.62 67.13 66.89 66.58 66.45 66.98 68.34 69.78 70.23 70.27 70.32
71.37 71.41 71.32 71.77 71.90 71.53 71.18 71.71 71.07 70.56 69.68 68.58 69.47 71.30 71.70 72.80 73.01 73.70 73.89 74.53 74.89 70.61 67.55 66.84 66.13 66.09 65.93 65.58 64.93 63.65 61.51 62.20 63.00 63.80 66.56 68.86 69.44 69.71
72.68 71.90 71.92 71.92 71.69 71.91 71.17 70.79 70.00 70.69 70.33 69.57 69.41 70.70 70.93 71.74 72.46 73.08 73.55 74.15 74.02 71.35 69.16 68.20 67.02 66.65 65.58 63.91 63.51 61.19 59.20 59.73 59.83 60.34 61.60 64.50 66.60 67.84
72.76 72.62 72.66 72.72 72.31 71.77 71.14 71.18 70.94 70.86 69.43 69.26 68.53 68.39 69.33 71.04 71.26 70.84 71.42 72.49 71.77 73.58 71.79 69.75 69.10 68.48 67.15 64.60 64.73 63.83 60.92 59.27 59.20 58.85 59.46 59.41 60.70 62.27
71.75 72.75 72.06 70.15 68.01 68.28 71.65 71.24 71.00 70.77 70.08 69.15 67.90 68.52 68.99 69.34 69.83 70.86 70.49 70.42 70.89 72.80 71.86 73.08 73.94 73.24 71.07 68.09 67.43 64.36 61.29 59.51 58.18 57.76 58.52 58.57 58.93 60.45
70.94 71.64 68.80 66.93 66.06 64.12 65.40 65.58 67.48 70.17 69.60 68.98 68.49 68.91 69.37 69.99 70.18 67.24 68.72 67.71 66.85 70.92 70.41 72.08 71.95 69.98 70.35 66.58 63.21 61.72 59.67 58.43 56.97 55.98 55.64 56.08 57.27 58.10
70.27 68.99 65.69 62.60 62.29 65.20 64.11 63.25 62.88 62.72 64.99 69.92 68.93 68.26 66.41 67.70 64.86 65.81 67.16 67.88 68.06 61.32 68.10 70.66 68.98 66.34 69.38 62.07 60.69 60.15 57.89 55.66 54.96 54.96 55.06 54.89 54.72 55.88
64.06 64.02 60.82 59.55 60.07 59.74 67.08 65.85 61.61 61.79 62.13 62.19 63.12 62.56 61.60 61.62 64.34 66.35 66.66 67.81 69.43 59.33 59.17 64.15 65.15 63.36 68.81 66.34 58.89 57.99 56.44 53.48 52.82 53.37 53.53 52.80 52.40 54.00
58.15 58.91 57.64 54.85 53.79 55.44 61.01 62.50 59.69 59.79 58.46 57.61 57.75 56.93 56.07 56.01 57.63 63.92 61.58 65.09 65.58 60.94 54.26 59.85 57.98 59.56 64.76 64.97 61.10 58.24 53.31 51.70 50.99 51.40 52.14 51.24 49.52 52.79
58.06 57.07 54.44 53.85 52.61 52.80 56.83 58.12 58.45 57.93 59.30 58.27 57.07 56.23 56.29 55.97 56.03 57.97 59.81 62.43 63.26 56.40 53.62 56.24 54.38 56.06 56.69 63.53 59.36 56.97 57.24 50.69 49.58 49.67 50.38 49.61 48.42 53.81
57.34 56.26 53.62 51.57 50.97 49.86 52.30 58.23 57.55 58.00 55.76 55.08 53.63 53.05 53.26 53.44 53.22 53.37 53.67 54.93 54.36 48.87 50.06 53.64 50.63 53.10 54.05 54.73 57.91 54.84 53.97 50.42 49.81 50.49 49.19 47.96 47.79 48.92
54.62 52.97 51.20 49.81 50.35 50.28 53.72 52.02 51.72 53.59 53.72 51.89 50.84 49.70 49.66 49.92 51.00 51.17 51.22 51.13 50.96 49.03 49.84 49.96 49.18 48.52 49.03 49.86 49.75 51.90 50.85 50.76 48.69 48.28 48.91 48.39 48.36 48.60
50.12 50.32 49.77 49.45 49.78 51.37 51.77 51.39 51.25 51.79 51.67 50.08 48.89 48.08 48.49 48.83 49.70 49.68 50.64 50.34 49.49 48.71 48.17 47.98 45.90 46.92 47.59 47.31 48.75 46.59 45.96 47.09 47.21 47.02 47.09 47.54 47.78 48.84
51.30 53.78 52.44 51.69 50.78 50.76 51.14 51.12 50.85 50.82 50.00 48.60 48.04 48.10 48.26 46.89 45.79 46.55 45.53 47.21 45.34 45.07 46.84 47.15 46.67 46.51 45.92 47.11 46.34 44.69 45.12 43.39 45.41 45.60 45.58 46.70 47.74 48.34
49.81 51.72 50.99 49.90 49.34 49.01 49.00 49.34 48.72 48.30 47.35 47.21 46.57 45.85 44.82 44.43 43.91 45.01 44.12 43.82 42.29 41.96 42.10 43.90 45.58 46.77 47.09 47.48 45.33 44.14 43.45 43.60 44.50 44.33 44.28 43.93 45.81 46.71
50.51 50.26 48.64 49.09 48.38 47.68 47.77 46.55 46.75 45.62 45.43 45.72 44.84 44.53 43.49 43.14 42.88 43.41 43.72 42.62 41.34 41.23 41.37 41.81 42.58 43.58 44.30 45.81 46.70 42.88 43.36 42.84 43.75 44.34 44.46 42.57 43.36 45.93
50.46 50.16 48.82 48.10 47.28 47.32 46.66 46.12 44.82 44.62 45.34 44.57 43.83 43.37 42.97 42.49 42.49 41.94 41.86 41.86 41.20 41.04 41.31 41.86 41.97 41.40 39.96 38.81 43.23 44.73 41.76 42.99 43.14 43.26 43.98 43.55 42.83 44.48
49.20 48.86 47.85 47.33 46.88 46.40 45.60 44.90 44.07 43.49 43.20 42.91 42.62 42.77 42.82 42.54 41.99 41.44 41.49 40.87 40.78 40.87 40.75 41.43 41.49 40.99 39.68 38.40 39.74 43.07 44.36 43.25 43.05 42.66 43.11 44.55 45.84 46.99
47.83 47.83 47.72 47.28 46.88 46.28 45.23 44.47 43.87 42.59 41.86 41.84 41.79 41.94 42.07 42.14 41.27 41.44 41.34 40.08 40.31 41.17 40.13 40.32 41.76 43.46 44.18 44.53 41.86 41.94 44.39 45.37 45.43 43.52 43.25 41.68 41.60 42.55
47.92 47.83 47.30 46.88 46.30 45.55 44.41 43.91 42.78 41.76 41.30 41.25 41.10 41.57 41.78 41.97 41.38 41.15 41.58 41.00 40.94 41.10 40.85 41.84 43.51 43.50 43.16 41.94 40.80 41.95 42.97 44.92 46.29 46.41 46.06 44.15 40.87 38.13
47.96 47.96 46.77 46.56 46.06 45.21 44.23 43.33 42.49 41.44 41.43 41.08 41.13 41.33 41.70 41.06 41.63 41.70 41.80 41.54 41.17 40.74 40.53 39.98 41.22 42.88 42.54 42.19 41.32 41.55 43.19 43.25 43.55 42.92 43.72 45.99 46.51 46.55

GFSNE_sfc_wetblb_117.txt.gz
Wetbulb
75.37 75.07 75.77 76.46 74.84 75.07 74.66 73.62 71.34 67.65 69.14 73.38 73.33 75.99 76.15 77.40 75.38 78.24 77.53 71.26 70.51 69.59 68.00 67.57 68.29 69.35 70.01 70.08 70.30 70.48 70.80 71.07 71.27 71.44 72.57 73.13 73.57 73.33
74.82 73.99 75.07 75.79 75.70 75.55 74.99 74.45 73.68 71.82 68.87 73.61 74.11 75.10 76.04 76.38 76.55 77.19 76.74 73.30 71.21 69.05 68.42 67.90 67.82 68.82 68.98 68.64 68.01 67.55 67.52 68.52 69.43 69.97 70.68 71.40 71.65 72.03
75.54 74.85 75.15 76.58 74.49 74.53 75.00 74.63 73.94 73.47 70.66 71.77 74.35 75.06 75.92 76.33 76.95 76.84 76.66 76.88 76.39 68.99 68.15 67.40 66.78 67.09 67.42 67.11 66.07 65.42 65.00 65.44 66.21 67.31 68.85 70.18 70.77 71.00
75.24 75.35 74.93 74.37 75.54 76.78 74.69 75.02 74.24 74.76 72.41 71.79 73.92 73.74 75.04 75.93 75.73 76.11 75.38 75.38 76.20 70.71 67.89 66.96 66.18 65.73 65.06 64.72 63.68 62.54 61.92 62.59 62.80 63.60 65.33 67.77 69.14 69.90
75.51 75.35 75.07 75.01 75.41 74.60 76.63 76.60 74.65 74.04 75.03 72.72 72.34 74.04 73.70 73.76 73.95 75.38 75.84 76.34 74.48 72.11 68.84 68.37 66.82 65.91 64.47 63.06 61.55 59.55 57.40 57.71 58.94 60.29 61.47 62.80 64.36 65.73
75.24 75.75 75.84 75.46 75.34 75.64 75.60 75.77 74.76 75.40 75.45 73.88 73.57 72.56 72.84 74.61 74.15 73.22 72.74 74.44 73.22 75.79 72.52 70.71 69.07 67.01 64.71 60.93 60.63 58.74 56.29 55.71 55.71 56.16 57.06 59.01 61.00 62.33
74.76 75.32 75.73 69.94 67.36 67.65 71.88 75.27 75.00 75.13 74.85 74.24 73.99 72.64 74.40 71.94 73.73 73.32 71.31 72.16 74.92 72.27 75.73 73.28 72.29 71.75 69.55 63.41 61.34 58.05 56.84 56.23 55.43 54.93 55.23 56.02 57.69 59.31
73.38 74.38 72.32 68.71 67.18 65.90 66.12 66.59 68.91 73.53 73.69 73.73 73.46 72.23 72.80 72.30 72.94 69.72 70.18 70.08 70.24 68.04 72.69 70.41 71.54 66.83 66.70 62.45 56.91 55.91 55.38 54.98 54.31 53.76 53.07 54.65 56.85 57.66
72.67 74.16 70.60 65.87 66.61 68.05 64.49 63.13 62.64 62.18 64.38 72.81 72.48 72.24 70.14 71.43 68.29 69.67 71.87 71.46 71.03 64.43 69.26 73.77 69.69 68.42 66.12 60.65 55.93 54.45 53.88 53.44 53.20 52.74 52.17 51.61 52.60 55.69
67.52 69.38 67.82 62.00 60.66 62.29 67.49 64.71 63.58 64.13 66.33 67.56 68.11 64.60 63.90 65.27 68.83 70.72 72.14 72.06 67.41 64.47 63.84 67.66 66.10 67.19 68.00 61.78 54.71 53.62 52.71 52.23 52.18 51.63 51.13 50.25 49.40 51.12
60.68 61.01 63.12 59.60 54.61 55.62 64.63 64.47 62.57 61.91 57.55 57.19 56.92 56.74 56.18 56.53 60.17 67.57 67.31 67.08 68.36 65.33 58.75 63.16 62.79 62.49 66.83 65.05 61.09 53.57 52.09 51.44 51.00 51.27 50.75 49.78 48.32 50.24
61.14 59.36 54.05 57.00 52.37 52.72 62.78 64.64 63.48 63.60 62.77 62.24 61.65 59.96 60.52 59.10 57.37 61.48 64.10 64.81 65.81 62.97 54.77 58.83 60.38 59.22 60.80 63.75 59.32 57.62 57.57 51.40 50.43 49.95 50.15 49.16 47.98 55.26
64.19 62.31 61.58 52.46 51.82 51.01 53.40 62.64 62.58 63.02 59.59 60.92 59.91 59.21 59.16 58.97 58.09 57.91 58.10 58.75 60.58 55.71 52.49 56.55 56.71 56.14 56.63 57.54 59.75 56.56 55.57 53.94 54.00 53.80 50.14 48.16 47.90 49.15
63.42 61.85 59.03 50.93 50.46 51.15 56.89 52.81 53.27 57.47 60.29 59.04 58.01 56.70 56.22 56.34 56.27 55.75 55.81 55.36 54.38 53.42 53.49 54.33 54.66 53.06 53.65 55.27 55.73 54.82 53.49 53.55 53.00 52.89 53.10 50.78 49.77 49.62
57.39 53.23 51.38 49.52 49.88 52.71 52.15 52.69 54.24 57.21 57.58 53.91 56.24 54.37 53.45 53.90 56.28 54.73 53.51 53.61 52.95 52.39 52.07 52.77 51.71 53.36 53.40 53.45 52.97 50.89 49.73 51.87 51.86 51.06 51.51 52.34 52.13 52.85
55.47 55.06 54.07 54.05 51.92 53.58 54.87 56.37 55.99 55.44 54.43 54.57 53.58 52.88 52.76 52.20 50.74 52.03 51.67 52.84 51.43 50.29 51.44 50.78 51.30 52.34 52.89 52.72 50.99 49.29 49.83 48.39 49.99 50.35 50.29 51.64 52.43 52.68
55.90 57.16 56.64 55.42 53.21 52.29 51.79 54.25 52.74 53.60 53.99 53.36 52.71 51.12 50.39 50.11 49.79 50.72 50.18 50.96 49.76 49.10 48.63 49.65 51.71 52.33 52.07 51.86 51.05 48.87 48.67 48.91 49.55 49.72 50.01 49.70 51.28 51.96
53.96 56.27 55.43 55.43 54.41 54.02 53.87 51.76 51.34 51.31 48.68 49.75 48.57 50.44 49.87 47.65 49.31 49.42 49.68 48.96 48.17 47.89 48.03 48.52 49.46 51.04 50.21 49.84 48.30 47.42 48.46 48.10 49.16 50.20 50.38 48.46 49.13 51.49
53.81 54.95 54.78 54.46 53.47 53.34 52.63 52.73 50.97 51.58 51.54 50.20 50.41 49.27 49.02 48.43 49.97 48.26 48.52 49.41 48.07 49.19 48.08 48.35 48.59 48.20 48.02 46.70 49.40 47.78 46.23 47.31 47.80 48.11 48.61 48.20 47.66 49.43
52.12 53.99 55.17 54.97 54.33 53.88 53.09 52.11 50.50 50.05 49.79 49.42 48.96 48.93 49.37 49.48 48.62 48.37 49.02 48.46 49.28 49.35 48.29 48.10 47.64 47.24 45.88 45.00 45.84 48.50 45.41 47.50 46.94 46.50 46.76 47.80 48.98 49.24
52.13 53.58 55.07 54.33 53.54 52.93 52.16 51.27 50.51 49.77 48.87 48.49 48.61 48.71 49.16 49.22 48.14 49.24 46.27 42.46 44.57 49.23 47.78 46.56 46.97 44.08 49.05 49.60 47.57 48.43 50.03 46.05 46.97 46.83 46.77 45.44 44.58 45.70
53.79 54.16 53.97 53.93 53.36 52.56 51.47 50.57 49.51 47.68 47.97 47.86 47.88 48.63 48.78 49.16 47.93 47.60 48.88 48.71 48.86 49.04 48.39 49.44 50.21 50.29 49.58 46.88 45.69 46.49 47.87 49.53 49.36 48.51 48.03 45.10 43.95 40.55
54.32 54.55 53.94 53.78 53.21 52.54 51.50 50.34 49.42 48.61 48.12 47.70 47.53 47.63 48.00 47.46 49.03 49.03 48.91 48.87 48.89 48.61 48.19 48.59 49.36 49.50 48.46 47.26 45.37 46.44 46.70 47.30 47.69 47.06 48.06 48.46 47.08 46.86